[[{"header":{"parameterUnit":"m.s-1","parameterCategory":1,"la1":30.6,"la2":28.766,"lo1":-90.7593,"lo2":-88.6598,"dy":0.0162,"dx":0.0183,"nx":116,"ny":114,"refTime":"2024-06-06T06:00:00:Z","depth":0,"parameterNumber":2,"parameterNumberName":"U-component_of_WINDS"},"data":[0.0,0.0,0.0,0.0,0.0,0.0,0.0,0.0,0.0,0.0,0.0,0.0,0.0,0.0,0.0,0.0,0.0,0.0,0.0,0.0,0.0,0.0,0.0,0.0,0.0,0.0,0.0,0.0,0.0,0.0,0.0,0.0,0.0,0.0,0.0,0.0,0.0,0.0,0.0,0.0,0.0,0.0,0.0,0.0,0.0,0.0,0.0,0.0,0.0,0.0,0.0,0.0,0.0,0.0,0.0,0.0,0.0,0.0,0.0,0.0,0.0,0.0,0.0,0.0,0.0,0.0,0.0,0.0,0.0,0.0,0.0,0.0,0.0,0.0,0.0,0.0,0.0,0.0,0.0,0.0,0.0,0.0,0.0,0.0,0.0,0.0,0.0,0.0,0.0,0.0,0.0,0.0,0.0,0.0,0.0,0.0,0.0,0.0,0.0,0.0,0.0,0.0,0.0,0.0,0.0,0.0,0.0,0.0,0.0,0.0,0.0,0.0,0.0,0.0,0.0,0.0,0.0,0.0,0.0,0.0,0.0,0.0,0.0,0.0,0.0,0.0,0.0,0.0,0.0,0.0,0.0,0.0,0.0,0.0,0.0,0.0,0.0,0.0,0.0,0.0,0.0,0.0,0.0,0.0,0.0,0.0,0.0,0.0,0.0,0.0,0.0,0.0,0.0,0.0,0.0,0.0,0.0,0.0,0.0,0.0,0.0,0.0,0.0,0.0,0.0,0.0,0.0,0.0,0.0,0.0,0.0,0.0,0.0,0.0,0.0,0.0,0.0,0.0,0.0,0.0,0.0,0.0,0.0,0.0,0.0,0.0,0.0,0.0,0.0,0.0,0.0,0.0,0.0,0.0,0.0,0.0,0.0,0.0,0.0,0.0,0.0,0.0,0.0,0.0,0.0,0.0,0.0,0.0,0.0,0.0,0.0,0.0,0.0,0.0,0.0,0.0,0.0,0.0,0.0,0.0,0.0,0.0,0.0,0.0,0.0,0.0,0.0,0.0,0.0,0.0,0.0,0.0,0.0,0.0,0.0,0.0,0.0,0.0,0.0,0.0,0.0,0.0,0.0,0.0,0.0,0.0,0.0,0.0,0.0,0.0,0.0,0.0,0.0,0.0,0.0,0.0,0.0,0.0,0.0,0.0,0.0,0.0,0.0,0.0,0.0,0.0,0.0,0.0,0.0,0.0,0.0,0.0,0.0,0.0,0.0,0.0,0.0,0.0,0.0,0.0,0.0,0.0,0.0,0.0,0.0,0.0,0.0,0.0,0.0,0.0,0.0,0.0,0.0,0.0,0.0,0.0,0.0,0.0,0.0,0.0,0.0,0.0,0.0,0.0,0.0,0.0,0.0,0.0,0.0,0.0,0.0,0.0,0.0,0.0,0.0,0.0,0.0,0.0,0.0,0.0,0.0,0.0,0.0,0.0,0.0,0.0,0.0,0.0,0.0,0.0,0.0,0.0,0.0,0.0,0.0,0.0,0.0,0.0,0.0,0.0,0.0,0.0,0.0,0.0,0.0,0.0,0.0,0.0,0.0,0.0,0.0,0.0,0.0,0.0,0.0,0.0,0.0,0.0,0.0,0.0,0.0,0.0,0.0,0.0,0.0,0.0,0.0,0.0,0.0,0.0,0.0,0.0,0.0,0.0,0.0,0.0,0.0,0.0,0.0,0.0,0.0,0.0,0.0,0.0,0.0,0.0,0.0,0.0,0.0,0.0,0.0,0.0,0.0,0.0,0.0,0.0,0.0,0.0,0.0,0.0,0.0,0.0,0.0,0.0,0.0,0.0,0.0,0.0,0.0,0.0,0.0,0.0,0.0,0.0,0.0,0.0,0.0,0.0,0.0,0.0,0.0,0.0,0.0,0.0,0.0,0.0,0.0,0.0,0.0,0.0,0.0,0.0,0.0,0.0,0.0,0.0,0.0,0.0,0.0,0.0,0.0,0.0,0.0,0.0,0.0,0.0,0.0,0.0,0.0,0.0,0.0,0.0,0.0,0.0,0.0,0.0,0.0,0.0,0.0,0.0,0.0,0.0,0.0,0.0,0.0,0.0,0.0,0.0,0.0,0.0,0.0,0.0,0.0,0.0,0.0,0.0,0.0,0.0,0.0,0.0,0.0,0.0,0.0,0.0,0.0,0.0,0.0,0.0,0.0,0.0,0.0,0.0,0.0,0.0,0.0,0.0,0.0,0.0,0.0,0.0,0.0,0.0,0.0,0.0,0.0,0.0,0.0,0.0,0.0,0.0,0.0,0.0,0.0,0.0,0.0,0.0,0.0,0.0,0.0,0.0,0.0,0.0,0.0,0.0,0.0,0.0,0.0,0.0,0.0,0.0,0.0,0.0,0.0,0.0,0.0,0.0,0.0,0.0,0.0,0.0,0.0,0.0,0.0,0.0,0.0,0.0,0.0,0.0,0.0,0.0,0.0,0.0,0.0,0.0,0.0,0.0,0.0,0.0,0.0,0.0,0.0,0.0,0.0,0.0,0.0,0.0,0.0,0.0,0.0,0.0,0.0,0.0,0.0,0.0,0.0,0.0,0.0,0.0,0.0,0.0,0.0,0.0,0.0,0.0,0.0,0.0,0.0,0.0,0.0,0.0,0.0,0.0,0.0,0.0,0.0,0.0,0.0,0.0,0.0,0.0,0.0,0.0,0.0,0.0,0.0,0.0,0.0,0.0,0.0,0.0,0.0,0.0,0.0,0.0,0.0,0.0,0.0,0.0,0.0,0.0,0.0,0.0,0.0,0.0,0.0,0.0,0.0,0.0,0.0,0.0,0.0,0.0,0.0,0.0,0.0,0.0,0.0,0.0,0.0,0.0,0.0,0.0,0.0,0.0,0.0,0.0,0.0,0.0,0.0,0.0,0.0,0.0,0.0,0.0,0.0,0.0,0.0,0.0,0.0,0.0,0.0,0.0,0.0,0.0,0.0,0.0,0.0,0.0,0.0,0.0,0.0,0.0,0.0,0.0,0.0,0.0,0.0,0.0,0.0,0.0,0.0,0.0,0.0,0.0,0.0,0.0,0.0,0.0,0.0,0.0,0.0,0.0,0.0,0.0,0.0,0.0,0.0,0.0,0.0,0.0,0.0,0.0,0.0,0.0,0.0,0.0,0.0,0.0,0.0,0.0,0.0,0.0,0.0,0.0,0.0,0.0,0.0,0.0,0.0,0.0,0.0,0.0,0.0,0.0,0.0,0.0,0.0,0.0,0.0,0.0,0.0,0.0,0.0,0.0,0.0,0.0,0.0,0.0,0.0,0.0,0.0,0.0,0.0,0.0,0.0,0.0,0.0,0.0,0.0,0.0,0.0,0.0,0.0,0.0,0.0,0.0,0.0,0.0,0.0,0.0,0.0,0.0,0.0,0.0,0.0,0.0,0.0,0.0,0.0,0.0,0.0,0.0,0.0,0.0,0.0,0.0,0.0,0.0,0.0,0.0,0.0,0.0,0.0,0.0,0.0,0.0,0.0,0.0,0.0,0.0,0.0,0.0,0.0,0.0,0.0,0.0,0.0,0.0,0.0,0.0,0.0,0.0,0.0,0.0,0.0,0.0,0.0,0.0,0.0,0.0,0.0,0.0,0.0,0.0,0.0,0.0,0.0,0.0,0.0,0.0,0.0,0.0,0.0,0.0,0.0,0.0,0.0,0.0,0.0,0.0,0.0,0.0,0.0,0.0,0.0,0.0,0.0,0.0,0.0,0.0,0.0,0.0,0.0,0.0,0.0,0.0,0.0,0.0,0.0,0.0,0.0,0.0,0.0,0.0,0.0,0.0,0.0,0.0,0.0,0.0,0.0,0.0,0.0,0.0,0.0,0.0,0.0,0.0,0.0,0.0,0.0,0.0,0.0,0.0,0.0,0.0,0.0,0.0,0.0,0.0,0.0,0.0,0.0,0.0,0.0,0.0,0.0,0.0,0.0,0.0,0.0,0.0,0.0,0.0,0.0,0.0,0.0,0.0,0.0,0.0,0.0,0.0,0.0,0.0,0.0,0.0,0.0,0.0,0.0,0.0,0.0,0.0,0.0,0.0,0.0,0.0,0.0,0.0,0.0,0.0,0.0,0.0,0.0,0.0,0.0,0.0,0.0,0.0,0.0,0.0,0.0,0.0,0.0,0.0,0.0,0.0,0.0,0.0,0.0,0.0,0.0,0.0,0.0,0.0,0.0,0.0,0.0,0.0,0.0,0.0,0.0,0.0,0.0,0.0,0.0,0.0,0.0,0.0,0.0,0.0,0.0,0.0,0.0,0.0,0.0,0.0,0.0,0.0,0.0,0.0,0.0,0.0,0.0,0.0,0.0,0.0,0.0,0.0,0.0,0.0,0.0,0.0,0.0,0.0,0.0,0.0,0.0,0.0,0.0,0.0,0.0,0.0,0.0,0.0,0.0,0.0,0.0,0.0,0.0,0.0,0.0,0.0,0.0,0.0,0.0,0.0,0.0,0.0,0.0,0.0,0.0,0.0,0.0,0.0,0.0,0.0,0.0,0.0,0.0,0.0,0.0,0.0,0.0,0.0,0.0,0.0,0.0,0.0,0.0,0.0,0.0,0.0,0.0,0.0,0.0,0.0,0.0,0.0,0.0,0.0,0.0,0.0,0.0,0.0,0.0,0.0,0.0,0.0,0.0,0.0,0.0,0.0,0.0,0.0,0.0,0.0,0.0,0.0,0.0,0.0,0.0,0.0,0.0,0.0,0.0,0.0,0.0,0.0,0.0,0.0,0.0,0.0,0.0,0.0,0.0,0.0,0.0,0.0,0.0,0.0,0.0,0.0,0.0,0.0,0.0,0.0,0.0,0.0,0.0,0.0,0.0,0.0,0.0,0.0,0.0,0.0,0.0,0.0,0.0,0.0,0.0,0.0,0.0,0.0,0.0,0.0,0.0,0.0,0.0,0.0,0.0,0.0,0.0,0.0,0.0,0.0,0.0,0.0,0.0,0.0,0.0,0.0,0.0,0.0,0.0,0.0,0.0,0.0,0.0,0.0,0.0,0.0,0.0,0.0,0.0,0.0,0.0,0.0,0.0,0.0,0.0,0.0,0.0,0.0,0.0,0.0,0.0,0.0,0.0,0.0,0.0,0.0,0.0,0.0,0.0,0.0,0.0,0.0,0.0,0.0,0.0,0.0,0.0,0.0,0.0,0.0,0.0,0.0,0.0,0.0,0.0,0.0,0.0,0.0,0.0,0.0,0.0,0.0,0.0,0.0,0.0,0.0,0.0,0.0,0.0,0.0,0.0,0.0,0.0,0.0,0.0,0.0,0.0,0.0,0.0,0.0,0.0,0.0,0.0,0.0,0.0,0.0,0.0,0.0,0.0,0.0,0.0,0.0,0.0,0.0,0.0,0.0,0.0,0.0,0.0,0.0,0.0,0.0,0.0,0.0,0.0,0.0,0.0,0.0,0.0,0.0,0.0,0.0,0.0,0.0,0.0,0.0,0.0,0.0,0.0,0.0,0.0,0.0,0.0,0.0,0.0,0.0,0.0,0.0,0.0,0.0,0.0,0.0,0.0,0.0,0.0,0.0,0.0,0.0,0.0,0.0,0.0,0.0,0.0,0.0,0.0,0.0,0.0,0.0,0.0,0.0,0.0,0.0,0.0,0.0,0.0,0.0,0.0,0.0,0.0,0.0,0.0,0.0,0.0,0.0,0.0,0.0,0.0,0.0,0.0,0.0,0.0,0.0,0.0,0.0,0.0,0.0,0.0,0.0,0.0,0.0,0.0,0.0,0.0,0.0,0.0,0.0,0.0,0.0,0.0,0.0,0.0,0.0,0.0,0.0,0.0,0.0,0.0,0.0,0.0,0.0,0.0,0.0,0.0,0.0,0.0,0.0,0.0,0.0,0.0,0.0,0.0,0.0,0.0,0.0,0.0,0.0,0.0,0.0,0.0,0.0,0.0,0.0,0.0,0.0,0.0,0.0,0.0,0.0,0.0,0.0,0.0,0.0,0.0,0.0,0.0,0.0,0.0,0.0,0.0,0.0,0.0,0.0,0.0,0.0,0.0,0.0,0.0,0.0,0.0,0.0,0.0,0.0,0.0,0.0,0.0,0.0,0.0,0.0,0.0,0.0,0.0,0.0,0.0,0.0,0.6436,0.0,0.0,0.0,0.0,0.0,0.0,0.0,0.0,0.0,0.0,0.0,0.0,0.0,0.0,0.0,0.0,0.0,0.0,0.0,0.0,0.0,0.0,0.0,0.0,0.8045,0.8828,1.0098,1.022,1.0235,1.0195,0.0,0.0,0.0,0.0,0.0,0.828,0.7828,0.7603,0.7603,0.7986,0.86,0.9428,0.9859,0.9192,0.7644,0.0,0.0,0.0,0.0,0.0,0.0,0.0,0.0,0.0,0.0,0.0,0.0,0.0,0.0,0.0,0.0,0.0,0.0,0.0,0.0,0.0,0.0,0.0,0.0,0.0,0.0,0.0,0.0,0.0,0.0,0.0,0.0,0.0,0.0,0.0,0.0,0.0,0.0,0.0,0.0,0.0,0.0,0.0,0.0,0.0,0.0,0.0,0.0,0.0,0.0,0.0,0.0,0.0,0.0,0.0,0.0,0.0,0.0,0.0,0.0,0.0,0.0,0.0,0.0,0.0,0.0,0.0,0.0,0.0,0.0,0.0,0.6903,0.0,0.0,0.0,0.0,0.0,0.0,0.0,0.0,0.0,0.0,0.0,0.0,0.0,0.0,0.0,0.0,0.0,0.0,0.0,0.0,0.0,0.6725,0.7597,0.8477,0.9316,1.0137,1.0254,1.0272,1.0195,1.0254,0.0,0.0,0.0,0.9123,0.9122,0.8418,0.8104,0.8258,0.9136,1.0344,1.1848,1.2555,1.1453,0.8883,0.8609,0.0,0.0,0.0,0.0,0.0,0.0,0.0,0.0,0.0,0.0,0.0,0.0,0.0,0.0,0.0,0.0,0.0,0.0,0.0,0.0,0.0,0.0,0.0,0.0,0.0,0.0,0.0,0.0,0.0,0.0,0.0,0.0,0.0,0.0,0.0,0.0,0.0,0.0,0.0,0.0,0.0,0.0,0.0,0.0,0.0,0.0,0.0,0.0,0.0,0.0,0.0,0.0,0.0,0.0,0.0,0.0,0.0,0.0,0.0,0.0,0.0,0.0,0.0,0.0,0.0,0.8133,0.7832,0.7625,0.7546,0.8257,0.7824,0.6641,0.0,0.0,0.0,0.0,0.0,0.0,0.0,0.0,0.0,0.0,0.0,0.0,0.0,0.0,0.0,0.0,0.0,0.0,0.0,0.0,0.6725,0.7597,0.8477,0.9316,1.0137,1.0254,1.0272,1.0195,1.0254,0.0,0.0,1.0093,1.0028,1.0037,0.9863,1.0137,1.091,1.1776,1.2676,1.3569,1.3577,1.3728,1.397,1.2631,1.2,1.1843,0.0,0.0,0.0,0.0,0.0,0.0,0.0,0.0,0.0,0.0,0.0,0.0,0.0,0.0,0.0,0.0,0.0,0.0,0.0,0.0,0.0,0.0,0.0,0.0,0.0,0.0,0.0,0.0,0.0,0.0,0.0,0.0,0.0,0.0,0.0,0.0,0.0,0.0,0.0,0.0,0.0,1.0765,1.1132,0.0,0.0,0.0,0.0,0.0,0.0,0.0,0.0,0.0,0.0,0.0,0.0,0.0,0.0,1.4734,1.4764,1.4224,1.3198,1.2716,1.1582,0.9893,0.8376,0.8097,0.8809,0.9643,0.0,0.753,0.753,0.0,0.0,0.0,0.0,0.0,0.0,0.0,0.0,0.0,0.0,0.0,0.0,0.0,0.0,0.0,0.0,0.0,0.0,0.0,0.0,0.0,0.9648,1.0586,1.0898,1.1435,1.152,1.0976,1.0969,1.0744,1.0213,1.0202,1.0199,1.0194,1.0617,1.1483,1.2805,1.3676,1.4541,1.5362,1.5689,1.6035,1.6366,1.5611,1.4465,1.3021,1.1843,0.0,0.0,0.0,0.0,0.0,0.0,0.0,0.0,0.0,0.0,0.0,0.0,0.0,0.0,0.0,0.0,0.0,0.0,0.0,0.0,0.0,0.0,0.0,0.0,0.0,0.0,0.0,0.0,0.0,0.0,0.0,0.0,0.0,0.0,0.0,0.0,0.0,0.0,0.0,0.9906,1.1028,1.1409,1.1376,1.1211,0.0,0.0,0.0,0.0,0.0,0.0,0.0,0.0,0.0,1.2426,1.346,1.4614,1.5784,1.7267,1.7607,1.6853,1.5619,1.4618,1.3707,1.1582,1.083,1.1201,1.1582,1.1318,1.0547,0.957,0.8145,0.6469,0.0,0.0,0.0,0.0,0.0,0.5389,0.0,0.0,0.0,0.0,0.0,0.0,0.0,0.0,0.0,0.0,0.0,0.0,0.9316,1.0664,1.1639,1.1818,1.2462,1.2541,1.184,1.1606,1.1192,1.0535,1.0308,1.0194,1.0175,1.1406,1.2767,1.4228,1.5305,1.6292,1.7157,1.7614,1.7918,1.807,1.796,1.6597,1.4354,1.3334,1.2555,1.1824,0.0,0.0,0.0,0.0,0.0,0.0,0.0,0.0,0.0,0.0,0.0,0.0,0.0,0.0,0.0,0.0,0.0,0.0,0.0,0.0,0.0,0.0,0.0,0.0,0.0,0.0,0.0,0.0,0.0,0.0,0.0,0.0,0.0,0.0,0.0,0.0,0.0,1.0537,1.1349,1.1714,1.249,1.2574,0.0,0.0,0.0,0.0,0.0,0.0,1.3903,1.7057,1.7919,1.5858,1.6128,1.6458,1.6803,1.8751,1.969,1.969,1.7544,1.6522,1.6423,1.4652,1.3478,1.2881,1.2881,1.2881,1.2744,1.0996,0.9531,0.8185,0.6364,0.5624,0.0,0.5575,0.5655,0.5852,0.0,0.0,0.0,0.0,0.0,0.0,0.0,0.0,0.0,0.0,0.0,0.9316,1.0137,1.0996,1.1835,1.2664,1.2714,1.27,1.2639,1.1921,1.1451,1.1344,1.0613,1.0175,1.0113,1.2517,1.4228,1.5132,1.6772,1.803,1.8876,1.8771,1.9066,1.9677,1.9546,1.8536,1.6816,1.5237,1.4519,1.4219,1.1831,0.0,0.0,0.0,0.0,0.0,0.0,0.0,0.0,0.0,0.0,0.0,0.0,0.0,0.0,0.0,0.0,0.0,0.0,0.0,0.0,0.0,0.0,0.0,0.0,0.0,0.0,0.0,0.0,0.0,0.0,0.0,0.0,0.0,0.0,0.0,0.0,0.0,0.0,1.2467,1.3543,0.0,0.0,0.0,0.0,1.0511,1.4758,1.7412,1.7467,1.6829,1.6246,1.5799,1.6982,1.8223,1.948,1.9615,1.969,1.969,1.7544,1.6522,1.6522,1.638,1.5062,1.2881,1.2881,1.2881,1.2744,1.0996,1.0234,0.9945,0.7747,0.6908,0.6881,0.6881,0.6922,0.6941,0.0,0.0,0.0,0.0,0.0,0.5293,0.5859,0.668,0.7441,0.8008,0.959,1.0781,1.1094,1.2363,1.33,1.361,1.4098,1.4146,1.3571,1.2743,1.2257,1.2235,1.1416,1.1737,1.3357,1.426,1.5695,1.7645,1.8241,1.8992,1.9831,1.966,1.9656,1.9793,1.9665,1.9203,1.8407,1.6609,1.5266,1.4222,1.28,1.1457,0.0,0.0,0.0,0.0,0.0,0.0,0.0,0.0,0.0,0.0,0.0,0.0,0.0,0.0,0.0,0.0,0.0,0.0,0.0,0.0,0.0,0.0,0.0,0.0,0.0,0.0,0.0,0.0,0.0,0.0,0.0,0.0,0.0,0.0,0.0,0.0,0.0,1.4691,1.5226,0.0,0.0,1.4851,1.4181,1.3193,1.6772,1.9009,1.8991,1.8673,1.8057,1.7056,1.8298,1.9211,1.969,1.969,1.9006,1.7626,1.6879,1.6522,1.6436,1.488,1.3705,1.2881,1.2881,1.2881,1.2832,1.2207,1.1953,1.1908,1.1095,1.0818,1.0818,1.0818,1.0818,1.0818,0.0,0.0,0.0,0.0,0.5098,0.5391,0.627,0.7148,0.8008,0.8887,1.0527,1.1719,1.2012,1.3242,1.418,1.4484,1.4972,1.4895,1.4021,1.3422,1.2991,1.2702,1.2408,1.317,1.5168,1.5749,1.7003,1.8996,1.9292,1.9735,2.0312,2.0446,2.0408,2.0211,2.0407,2.0369,2.0028,1.842,1.6824,1.5249,1.3891,1.2872,1.21,0.0,0.0,0.0,0.0,0.0,0.0,0.0,0.0,0.0,0.0,0.0,0.0,0.0,0.0,0.0,0.0,0.0,0.0,0.0,0.0,0.0,0.0,0.0,0.0,0.0,0.0,0.0,0.0,0.0,0.0,0.0,0.0,0.0,0.0,0.0,1.4692,1.5803,1.6572,1.7014,1.6961,1.6967,1.664,1.5712,1.8167,1.969,1.969,1.969,1.9286,1.8403,1.9226,1.969,1.969,1.8968,1.7907,1.6522,1.6522,1.6064,1.5242,1.361,1.2881,1.2881,1.2881,1.2881,1.2881,1.2881,1.2881,1.2881,1.2881,1.2881,1.2881,1.2881,1.2881,1.2881,0.0,0.0,0.0,0.5098,0.5098,0.541,0.6309,0.7148,0.8027,0.8926,1.0566,1.1953,1.2793,1.3574,1.4376,1.5237,1.5234,1.4837,1.4002,1.3887,1.3514,1.2777,1.3547,1.439,1.5305,1.692,1.8177,1.9073,1.9931,2.035,2.0408,2.1182,2.1355,2.1081,2.1921,2.2099,2.1733,2.068,1.9323,1.7611,1.5258,1.4698,1.4976,0.0,0.0,0.0,0.0,0.0,0.0,0.0,0.0,0.0,0.0,0.0,0.0,0.0,0.0,0.0,0.0,0.0,0.0,0.0,0.0,0.0,0.0,0.0,0.0,0.0,0.0,0.0,0.0,0.0,0.0,0.0,0.0,0.0,1.319,1.4571,1.5708,1.5756,1.7641,1.8671,1.7948,1.8222,1.8272,1.7787,1.8972,1.969,1.969,1.969,1.969,1.969,1.969,1.969,1.969,1.7585,1.6522,1.6522,1.6423,1.5152,1.2881,1.2881,1.2881,1.2881,1.2881,1.2881,1.2881,1.2881,1.2881,1.2881,1.2881,1.2881,1.2881,1.2881,1.2881,1.2881,0.0,0.0,0.5098,0.5098,0.5098,0.5605,0.7109,0.7539,0.8242,0.9746,1.1465,1.2617,1.2812,1.4082,1.5041,1.5276,1.5234,1.5093,1.4857,1.3619,1.3075,1.347,1.498,1.6474,1.791,1.8417,1.9366,2.0806,2.1045,2.1496,2.2117,2.2334,2.2252,2.1953,2.2192,2.21,2.1771,2.1498,2.0989,2.0174,1.7556,1.6072,1.5266,0.0,0.0,0.0,0.0,0.0,0.0,0.0,0.0,0.0,0.0,0.0,0.0,0.0,0.0,0.0,0.0,0.0,0.0,0.0,0.0,0.0,0.0,0.0,0.0,0.0,0.0,0.0,0.0,0.0,0.0,0.0,0.0,1.5463,1.562,1.7004,1.8269,1.9045,1.9698,1.9938,1.964,1.9705,1.9607,1.9186,1.948,1.969,1.969,1.969,1.969,1.969,1.969,1.969,1.969,1.7585,1.6522,1.6479,1.4744,1.3525,1.2881,1.2881,1.2881,1.2881,1.2881,1.2881,1.2881,1.2881,1.2881,1.2881,1.2881,1.2881,1.2881,1.2881,1.2881,1.2881,0.0,0.5098,0.5098,0.5098,0.541,0.6113,0.748,0.8008,0.873,1.0117,1.1504,1.248,1.2812,1.3694,1.439,1.4734,1.4697,1.4359,1.3639,1.3281,1.3632,1.4884,1.6601,1.8007,1.8977,1.9695,2.0518,2.1496,2.188,2.2303,2.2812,2.3165,2.3141,2.2828,2.3189,2.314,2.2773,2.2462,2.2209,2.1881,1.9867,1.8412,1.7248,1.5865,1.5124,1.4724,1.4126,1.3952,1.3893,1.3095,0.0,0.0,0.0,0.0,0.0,0.0,0.0,0.0,0.0,0.0,0.0,0.0,0.0,0.0,0.0,0.0,0.0,0.0,0.0,0.0,0.0,0.0,0.0,0.0,1.6592,1.7765,1.8498,1.9018,1.9586,2.0225,2.0672,2.0866,2.0618,2.0682,2.0616,2.0277,1.9925,1.969,1.969,1.969,1.969,1.969,1.969,1.969,1.969,1.7585,1.6522,1.6466,1.4071,1.2881,1.2881,1.2881,1.2881,0.0,1.2881,1.2881,1.2881,1.2881,1.2881,0.0,0.0,0.0,0.0,0.0,1.2881,1.2881,0.0,0.5098,0.5098,0.5098,0.582,0.6699,0.7559,0.8437,0.9316,1.0195,1.1055,1.1894,1.2655,1.2788,1.3122,1.3912,1.3931,1.3313,1.1906,1.3306,1.492,1.6553,1.8152,1.9092,1.9292,2.0749,2.1611,2.1793,2.2562,2.2996,2.3093,2.387,2.4025,2.3677,2.4448,2.4577,2.4153,2.3434,2.314,2.3049,2.1988,2.1043,1.992,1.7028,1.6401,1.6888,1.5521,1.5049,1.4949,1.4128,0.0,0.0,0.0,0.0,0.0,0.0,0.0,0.0,0.0,0.0,0.0,0.0,0.0,0.0,0.0,0.0,0.0,0.0,0.0,0.0,0.0,0.0,0.0,0.0,1.8768,2.0364,2.1211,2.0718,2.0261,2.0261,2.1038,2.143,2.1023,2.1181,2.1181,2.0862,2.0139,1.969,1.969,0.0,0.0,0.0,0.0,1.9566,1.969,1.7585,1.6522,1.6466,1.434,1.3152,1.2881,1.2881,1.2881,1.2881,1.2881,1.2881,1.2881,1.2881,1.2881,1.2881,1.2881,1.2881,1.2881,1.2881,1.2881,0.0,0.0,0.5098,0.5098,0.5098,0.582,0.6699,0.7559,0.8437,0.9316,1.0195,1.1055,1.1634,1.176,1.2394,1.3098,1.3855,1.3913,1.4033,1.4359,1.5389,1.6409,1.7348,1.8425,1.9638,2.0999,2.1342,2.2197,2.361,2.3764,2.4178,2.4822,2.4995,2.4873,2.4561,2.4723,2.4577,2.419,2.4024,2.3969,2.3895,2.3033,2.1789,2.0363,1.9575,1.8788,1.8062,1.777,1.7805,1.7833,1.6876,1.664,1.6466,1.4973,1.3834,0.0,0.0,0.0,0.0,0.0,0.0,0.0,0.0,0.0,0.0,0.0,0.0,0.0,0.0,0.0,0.0,0.0,0.0,0.0,1.9005,1.9997,2.0861,2.1944,2.1961,2.1876,2.1876,2.1711,2.143,2.1023,2.0845,2.0514,1.998,1.9782,1.969,1.969,1.969,0.0,1.969,1.8855,1.8817,1.969,1.7585,1.6522,1.6466,0.0,0.0,1.2881,1.2881,1.2881,1.2881,1.2881,1.2881,1.2881,1.2881,1.2881,1.2881,1.2881,1.2881,1.2881,1.2881,1.2881,1.2881,0.5098,0.5098,0.5234,0.5684,0.6465,0.7344,0.8223,0.9082,0.9805,1.0234,1.0684,1.1104,1.1501,1.1521,1.1829,1.2635,1.2671,1.3361,1.5036,1.601,1.7032,1.8256,1.955,2.0642,2.1477,2.235,2.3225,2.411,2.4505,2.4909,2.5303,2.5303,2.5163,2.4911,2.4832,2.4635,2.4337,2.4226,2.419,2.4153,2.3768,2.2868,2.1658,2.0813,2.0129,1.9553,1.9219,1.9193,1.9155,1.827,1.8004,1.7864,1.6667,1.5356,1.4031,0.0,0.0,0.0,0.0,0.0,0.0,0.0,0.0,0.0,0.0,0.0,0.0,0.0,0.0,1.5803,0.0,0.0,1.873,2.0322,2.1093,2.1642,2.2215,2.231,2.231,2.231,2.1899,2.143,2.1023,2.0747,2.0361,1.9762,1.969,1.969,1.969,1.9207,1.8893,1.8893,1.838,1.8106,1.8106,1.7034,1.6522,1.6479,1.5287,1.4698,1.4698,1.4071,1.3894,1.4071,1.3563,1.3515,1.38,1.38,1.38,1.3752,1.3467,1.3152,1.2881,1.2881,1.2881,1.2881,0.5566,0.5605,0.5781,0.6309,0.7266,0.8184,0.8887,0.9746,1.0293,1.0293,1.0293,1.0558,1.1247,1.0659,1.0548,1.1416,1.1723,1.2907,1.5305,1.6259,1.7488,1.9184,2.0696,2.1581,2.1754,2.3302,2.4187,2.4341,2.4986,2.5303,2.5303,2.5303,2.5184,2.4998,2.4869,2.4698,2.4487,2.4301,2.419,2.419,2.419,2.3804,2.307,2.1622,2.098,2.0751,2.0082,1.9757,1.9536,1.8873,1.8539,1.8252,1.7547,1.6366,1.5034,1.4155,1.344,0.0,0.0,0.0,0.0,0.0,0.0,0.0,0.0,0.0,1.5588,1.7813,1.7748,1.7879,1.9788,2.0246,2.056,2.1305,2.1904,2.231,2.231,2.231,2.231,2.231,2.1899,2.143,2.1023,2.0648,2.0224,1.9762,1.969,1.969,1.969,1.8893,1.8419,1.8419,1.8224,1.7666,1.671,1.6552,1.6522,1.6479,1.4525,1.4717,1.6792,1.5437,1.5051,1.5451,1.4529,1.4479,1.5036,1.5036,1.5036,1.4989,1.4363,1.3782,1.3223,1.3008,1.2968,1.3065,0.0,0.7402,0.7187,0.6523,0.7754,0.8887,0.8984,0.9746,1.0293,1.0293,1.0293,1.031,1.0349,1.0263,1.0529,1.1342,1.2762,1.439,1.6234,1.7119,1.8343,2.0081,2.1023,2.187,2.2639,2.361,2.4447,2.5178,2.5264,2.5303,2.5303,2.5303,2.5184,2.4979,2.4855,2.4692,2.4498,2.4284,2.419,2.419,2.419,2.4153,2.3915,2.2563,2.1612,2.0897,2.021,1.9583,1.9071,1.886,1.8259,1.7461,1.6621,1.6184,1.5696,1.431,0.0,1.3691,1.3793,1.4528,1.5449,1.6211,1.6361,1.711,0.0,0.0,1.9643,2.1386,2.1237,2.1017,2.1613,2.1563,2.1592,2.2095,2.226,2.231,2.231,2.231,2.231,2.231,2.1899,2.143,2.1023,2.0277,1.9782,1.9726,1.969,1.969,1.969,1.9603,1.953,1.953,1.8612,1.7907,1.7463,1.6837,1.6522,1.6522,1.625,1.6757,1.7931,1.6097,1.5591,1.6244,1.5606,1.5665,1.618,1.618,1.618,1.6135,1.5527,1.4914,1.4286,1.3253,1.3238,1.3637,0.0,0.8105,0.834,0.7969,0.8516,0.918,0.9687,1.0078,1.0293,1.0293,1.0293,1.0293,1.0267,1.0224,1.0334,1.0679,1.2233,1.3926,1.5638,1.6965,1.8484,2.0215,2.1081,2.1908,2.2774,2.3648,2.4485,2.5303,2.5303,2.5303,2.5303,2.5303,2.5264,2.5163,2.491,2.476,2.4654,2.4339,2.419,2.419,2.419,2.3915,2.3401,2.2523,2.1395,2.0174,1.9621,1.9243,0.0,1.8357,1.7908,1.7555,1.7186,1.6739,1.6111,1.5024,1.5057,0.0,1.6775,1.7354,1.7871,0.0,1.9299,1.9984,2.1386,2.1123,2.1016,2.2647,2.2493,2.2226,2.2873,2.257,2.2297,0.0,2.2398,2.231,2.231,2.231,2.231,2.231,2.1899,2.143,2.1023,2.0431,1.9929,1.9711,1.969,1.969,1.969,1.9132,1.8893,1.9207,1.7907,1.7229,1.7435,1.6795,1.6522,1.6522,1.6522,1.676,1.7167,1.6334,1.6303,1.6907,1.7039,1.7183,1.7448,1.7448,1.7448,1.7376,1.6786,1.6353,1.5932,1.4833,1.4091,1.37,0.0,0.8926,0.9355,0.9355,0.9355,0.957,1.0195,1.0293,1.0293,1.0293,1.0293,1.0293,1.0273,1.0224,1.0193,1.0198,1.1511,1.3051,1.4734,1.6195,1.7888,1.9869,2.0735,2.1562,2.2427,2.3533,2.4399,2.4966,2.5187,2.5303,2.5303,2.5303,2.5303,2.5293,2.4955,2.4804,2.4775,2.4375,2.419,2.4171,2.3969,2.3529,2.2886,2.1885,2.0765,1.9632,1.9169,1.8697,1.8186,1.7305,1.7014,1.6976,1.6758,1.6439,1.61,1.5752,1.627,1.7233,1.8498,1.9247,0.0,2.0742,2.1729,2.2447,2.2403,2.2262,2.2439,2.3616,2.3377,2.3125,2.3605,2.3282,2.2923,2.2721,2.2537,2.2388,2.231,2.231,2.231,2.231,2.1899,2.143,2.1023,2.0583,2.0124,1.9711,1.969,1.9765,1.9959,1.9243,1.9012,1.9357,1.799,1.7303,1.7504,1.6991,1.676,1.676,1.6911,1.7061,1.718,1.7133,1.7364,1.78,1.8225,1.8505,1.8643,1.8643,1.8643,1.8582,1.802,1.7592,1.7286,1.6676,1.5417,1.4072,0.0,0.0,1.0254,1.0254,1.0254,1.0273,1.0293,1.0293,1.0293,1.0293,1.0293,1.0273,1.0215,1.0195,1.0201,1.019,1.0965,1.2145,1.384,1.4772,1.6407,1.8934,1.9869,2.0716,2.1523,2.3225,2.411,2.4149,2.4928,2.5303,2.5303,2.5303,2.5303,2.5293,2.4955,2.4804,2.4775,2.4375,2.419,2.4135,2.3361,2.303,2.2756,2.0589,1.9734,1.9644,1.9172,1.7958,1.6432,1.5574,1.5272,1.5132,1.4359,1.4672,0.0,1.6327,1.7189,1.7862,1.792,0.0,2.0762,2.1641,2.2998,2.4133,2.4119,2.4429,2.4695,2.4747,2.4441,2.4075,2.3774,2.3692,2.3477,2.2822,2.2695,2.2599,2.2349,2.231,2.231,2.231,2.1899,2.143,0.0,2.0583,2.0124,1.9711,1.969,1.9974,2.0647,2.0639,2.0639,2.0639,1.9575,1.874,1.8066,1.7605,1.735,1.7363,1.7903,1.843,1.8895,1.892,1.8945,1.8958,1.8945,1.9284,1.9748,1.9748,1.9748,1.971,1.9146,1.8572,1.8145,1.8672,1.7245,1.506,0.0,0.0,0.0,1.0293,1.0293,1.0293,1.0293,1.0293,1.0293,1.0293,1.0293,0.0,0.0,0.0,0.0,0.0,1.0933,1.1887,1.303,1.4423,1.5849,1.7279,1.8696,1.9823,2.0696,2.1793,2.2658,2.3244,2.3505,2.3639,2.3639,2.3639,2.3583,2.3503,2.3253,2.3074,2.2926,2.2703,2.292,2.3325,2.2534,2.225,2.2201,2.1017,1.9604,1.8165,0.0,1.6598,1.5504,1.4679,1.4404,1.4468,1.4778,1.5059,1.5582,1.7043,1.7703,1.8356,2.0077,0.0,2.2461,2.334,2.431,2.5063,2.5071,2.4929,2.4662,2.422,2.3755,2.3217,2.2665,2.2754,2.2751,2.233,2.2491,2.2485,2.1911,2.2106,2.2094,2.1524,2.1291,0.0,0.0,0.0,0.0,1.9711,1.969,1.9989,2.0677,2.0347,2.0539,2.135,1.9866,1.9157,1.9293,1.8384,1.7928,1.7928,1.8116,1.8493,1.8983,1.8983,1.9221,1.9547,1.9547,1.9635,1.9798,1.9798,1.9798,1.9786,1.961,1.9113,1.857,1.928,1.8358,1.6775,0.0,0.0,0.0,0.0,0.0,0.0,0.0,0.0,0.0,0.0,0.0,0.0,0.0,0.0,0.0,0.0,0.0,1.1327,1.2177,1.3243,1.4489,1.5965,1.6766,1.7727,1.8927,1.9735,2.0427,2.0985,2.1889,2.2331,2.2331,2.2639,2.2738,2.2588,2.2394,2.2187,2.1995,2.1858,2.21,2.2484,2.1405,2.1022,2.0982,1.9779,1.8193,0.0,1.5516,1.4603,1.3812,1.3589,1.3739,1.4145,1.5031,1.5969,1.6951,1.8065,1.8652,1.9434,2.1719,2.2715,2.3377,2.4534,2.5161,2.549,2.5465,2.492,2.4321,2.3888,2.2947,2.2161,2.203,2.1807,2.1752,2.1967,2.2049,2.1973,2.1668,2.1735,2.1615,2.1071,2.0862,0.0,0.0,0.0,0.0,1.9711,1.9914,2.0348,2.1021,2.0946,2.127,2.2039,2.0784,2.0048,1.9901,1.9186,1.8821,1.8781,1.8781,1.8957,1.9309,1.9309,1.9484,1.9798,1.9798,1.9798,1.9798,1.9798,1.9798,1.9798,1.9798,1.9527,1.915,1.9643,1.9044,1.7961,0.0,0.0,0.0,0.0,0.0,0.0,0.0,0.0,0.0,0.0,0.0,0.0,0.0,0.0,0.0,0.0,0.0,0.0,1.1288,1.1385,1.2487,1.4907,1.4305,1.4689,1.6349,1.7196,1.7638,1.7638,2.01,2.1312,2.1312,2.2139,2.247,2.2321,2.2129,2.1924,2.1734,2.1602,2.1578,2.1487,1.9982,1.9397,1.9237,1.7147,1.5821,1.4882,1.339,1.2292,1.1666,1.2483,1.3425,1.4413,1.5234,1.7285,1.9367,1.9427,2.0059,2.1094,2.2715,2.3184,2.3604,2.5201,2.5529,2.5465,2.5369,2.4539,2.3759,2.3645,2.2079,2.0941,0.0,0.0,2.0529,2.164,2.1376,2.1149,2.1483,2.1213,2.0991,0.0,0.0,0.0,0.0,0.0,0.0,1.9794,0.0,2.1021,2.171,2.2338,2.2724,2.2768,2.2176,2.1283,1.9998,2.0013,1.9915,1.9747,1.9798,1.9798,1.9747,1.9798,1.9798,1.9798,1.9798,1.9798,1.9798,1.9798,1.9798,1.9798,1.9798,1.9798,1.9798,1.9798,1.9371,1.8661,0.0,0.0,0.0,0.0,0.0,0.0,0.0,0.0,0.0,0.0,0.0,0.0,0.0,0.0,0.0,0.0,0.0,0.0,1.0499,1.1075,1.1686,1.2337,1.3354,1.4121,1.4628,1.6061,1.6798,1.6798,1.8107,1.8729,1.8677,1.8888,1.8879,1.8657,1.8596,1.8446,1.8199,1.8155,1.854,1.9104,1.8104,1.8212,1.8854,1.7643,1.6781,1.5965,1.4289,1.3571,1.3442,0.0,0.0,0.0,0.0,1.9157,2.0382,0.0,0.0,2.2754,2.373,2.4473,2.5058,2.5432,2.5477,2.526,2.4647,2.4147,2.3282,2.1425,2.0443,1.9569,0.0,0.0,0.0,1.9544,2.0562,0.0,2.0701,2.0846,0.0,2.012,0.0,2.0911,2.0645,2.0963,0.0,0.0,2.0902,2.1216,2.2368,2.2634,2.2933,2.3355,2.2331,2.1592,2.1241,2.0332,1.9545,1.8992,1.9527,1.9527,1.898,1.9527,1.9798,1.9798,1.9798,1.9798,1.9798,1.9798,1.9798,1.9798,1.9798,1.9798,1.9798,1.9798,1.9695,1.9423,0.0,0.0,0.0,0.0,0.0,0.0,0.0,0.0,0.0,0.0,0.0,0.0,0.0,0.0,0.0,0.0,0.0,0.0,0.0,1.0626,1.1042,1.1424,1.1973,1.2469,1.2889,1.4203,1.4699,1.4304,1.5915,1.6489,1.6086,1.6407,1.6441,1.6206,1.6177,1.6063,1.5882,1.589,1.6207,0.0,0.0,1.5977,1.6491,1.5685,1.4954,1.4246,1.3677,1.4222,0.0,0.0,0.0,1.9792,2.0184,2.0937,2.1855,2.2695,0.0,2.3885,2.4654,2.5234,2.5589,2.5472,2.5439,2.5082,2.3859,2.3151,2.2102,1.9859,1.8584,0.0,0.0,0.0,0.0,0.0,0.0,0.0,1.9951,1.9854,1.9641,0.0,2.0139,0.0,2.0707,2.1321,2.1814,0.0,2.1784,2.1904,2.2679,2.2936,2.3236,2.3595,2.2665,2.1866,2.1293,2.0004,1.9097,1.8715,1.915,1.9097,1.8715,1.9475,1.9798,1.9798,0.0,1.9798,1.9798,1.9798,1.9798,1.9798,1.9798,1.9798,1.9798,1.9798,1.9798,1.9747,0.0,0.0,0.0,0.0,0.0,0.0,0.0,0.0,0.0,0.0,0.0,0.0,0.0,0.0,0.0,0.0,0.0,0.0,0.0,0.0,1.0537,1.1286,1.0598,1.0545,1.1302,1.2184,1.2269,1.1497,1.3838,1.4574,1.384,1.4481,1.4668,1.448,1.4419,1.4345,1.4284,1.4288,1.4342,1.4363,1.3769,1.3556,1.3497,0.0,1.2231,1.1704,1.2636,1.4322,0.0,0.0,1.9265,2.0899,2.1782,2.2695,2.3594,2.4355,2.4569,2.4703,2.5394,2.5572,2.5543,2.5428,2.5313,2.4774,2.3004,2.1866,2.0575,1.842,0.0,1.5484,1.4909,1.509,1.5704,1.6943,0.0,1.7907,1.9319,1.8684,1.8302,1.8855,1.9502,2.0121,2.0635,2.1382,2.2051,2.2673,2.276,2.2802,2.2802,2.331,2.3508,2.3363,2.2815,2.1988,2.0696,1.9347,1.8715,1.8715,1.8608,1.8555,1.8555,1.9307,1.9643,1.9643,0.0,0.0,1.9798,1.9798,1.9798,1.9798,1.9798,1.9798,1.9798,1.9798,1.9798,1.9798,0.0,0.0,0.0,0.0,0.0,0.0,0.0,0.0,0.0,0.0,1.0618,1.0193,0.0,0.0,0.0,0.0,0.0,0.0,0.0,0.0,0.0,1.0425,1.0282,1.0269,1.0421,1.1277,1.1643,1.1503,0.0,1.3134,1.2935,1.3055,1.3003,1.2813,1.2802,1.2724,1.2622,1.2613,1.272,1.2875,1.2752,1.2763,1.2856,1.2748,0.0,0.0,1.357,0.0,0.0,1.7723,2.0561,2.2703,2.3634,2.4531,2.5273,2.543,2.5446,2.5413,2.5492,2.5471,2.5428,2.5341,2.4831,2.3841,2.2048,2.0823,0.0,0.0,1.5336,1.4887,1.306,1.3926,1.5214,1.6166,0.0,0.0,0.0,0.0,1.8302,0.0,0.0,0.0,0.0,0.0,0.0,0.0,0.0,0.0,2.343,2.3535,2.3128,2.2072,2.1946,2.128,2.0003,1.915,1.8715,1.8715,1.8058,1.7797,1.7852,1.8555,1.8874,1.8927,0.0,0.0,1.9798,1.9798,1.9798,1.9798,1.9798,1.9798,1.9798,1.9798,1.9798,1.9695,0.0,0.0,0.0,0.0,0.0,0.0,0.0,1.0849,1.1146,1.2015,1.1791,1.1378,1.0936,1.0527,1.0293,0.0,0.0,0.0,0.0,0.0,0.0,0.0,1.025,1.0258,1.0258,0.0,0.0,0.0,0.0,0.0,0.0,0.0,0.0,0.0,0.0,0.0,0.0,1.1065,1.1125,0.0,0.0,0.0,0.0,0.0,0.0,0.0,0.0,0.0,0.0,1.6532,1.9188,2.1886,2.3286,2.4322,2.5019,2.498,2.5271,2.5571,2.5484,2.5337,2.522,2.5153,2.4454,2.3206,2.1062,0.0,0.0,0.0,1.3449,1.2826,1.1539,0.0,0.0,0.0,0.0,0.0,0.0,0.0,0.0,0.0,0.0,0.0,0.0,0.0,0.0,0.0,0.0,0.0,2.3098,2.2801,2.2179,2.1245,2.1245,2.0607,1.9254,1.8501,1.7961,1.7523,1.7191,1.7034,1.7034,1.7797,1.8124,1.8178,0.0,0.0,1.8661,1.9097,1.9202,1.9202,1.9202,1.9475,1.9798,1.9798,1.9579,1.9202,0.0,0.0,0.0,0.0,0.0,0.0,0.0,1.1378,1.1817,1.2688,1.2642,1.232,1.1835,1.1055,1.0508,0.0,0.0,0.0,0.0,0.0,0.0,0.0,0.0,0.0,0.0,0.0,0.0,0.0,0.0,0.0,0.0,0.0,0.0,0.0,0.0,0.0,0.0,0.0,0.0,0.0,0.0,0.0,0.0,0.0,0.0,0.0,0.0,0.0,0.0,0.0,1.7029,1.9375,2.1333,2.2942,2.4136,2.4262,2.4768,2.5308,2.5331,2.5203,2.505,2.4983,2.409,2.2631,2.0232,1.8124,0.0,0.0,1.1846,1.0994,1.0559,0.0,1.2262,0.0,0.0,0.0,0.0,0.0,0.0,0.0,0.0,0.0,0.0,0.0,0.0,0.0,0.0,0.0,0.0,2.1993,2.1424,2.0795,2.0633,1.9953,1.8715,1.7797,1.7146,1.6708,1.6436,1.6379,1.6549,1.709,1.7357,1.7413,0.0,0.0,0.0,1.8232,1.8555,1.8715,1.8715,1.9032,1.9579,1.9579,1.9097,1.8447,0.0,0.0,0.0,0.0,0.0,0.0,0.0,1.0995,1.1815,1.2695,1.2108,1.189,1.2597,1.1953,1.1152,0.0,0.0,0.0,0.0,0.0,0.0,0.0,0.0,0.0,0.0,0.0,0.0,0.0,0.0,0.0,0.0,0.0,0.0,0.0,0.0,0.0,0.0,0.0,0.0,0.0,0.0,0.0,0.0,0.0,0.0,0.0,0.0,0.0,0.0,0.0,0.0,1.5004,1.742,2.0469,2.3279,2.4069,0.0,0.0,2.4987,2.5067,2.4972,2.4835,2.3589,2.1873,1.9824,0.0,0.0,1.2111,1.1213,1.0822,1.0463,1.0878,1.1739,1.3056,0.0,1.3765,0.0,0.0,0.0,0.0,0.0,0.0,0.0,0.0,0.0,0.0,0.0,0.0,0.0,2.1744,2.1424,2.0795,2.0143,1.9465,1.8715,1.7302,1.6922,1.7468,1.614,1.5864,1.6492,1.6539,1.6595,1.6652,0.0,0.0,0.0,1.7688,1.8124,1.8715,1.8715,1.8715,1.8821,1.8821,1.834,1.7633,0.0,0.0,0.0,0.0,0.0,0.0,1.0956,1.1336,1.1867,1.2754,1.2565,1.227,1.2109,1.1797,1.125,1.0371,0.0,0.0,0.0,0.0,0.0,0.0,0.0,0.0,0.0,0.0,0.0,0.0,0.0,0.0,0.0,0.0,0.0,0.0,0.0,0.0,0.0,0.0,0.0,0.0,0.0,0.0,0.0,0.0,0.0,0.0,0.0,0.0,0.0,0.0,0.0,0.0,1.4506,1.662,0.0,0.0,2.2346,2.3272,2.395,2.4417,2.4694,2.4638,2.3308,2.1509,1.9607,0.0,1.4028,1.1841,1.0329,0.9604,1.0288,1.0413,1.0837,1.213,1.2095,1.2106,1.2738,0.0,0.0,0.0,0.0,0.0,0.0,0.0,0.0,0.0,0.0,0.0,0.0,2.0557,2.0257,1.9542,1.927,1.8531,1.7413,1.6821,1.6425,1.6244,1.569,1.5526,1.5864,1.5864,1.5864,1.5864,0.0,0.0,0.0,1.6754,1.709,1.7357,1.7357,1.7633,1.8058,1.8058,1.7578,1.6922,0.0,0.0,0.0,0.0,0.0,1.0508,1.1113,1.1426,1.1816,1.2441,1.2517,1.2288,1.1679,1.1367,1.0977,1.0352,1.0293,0.0,0.0,0.0,0.0,0.0,0.0,0.0,0.0,0.0,0.0,0.0,0.0,0.0,0.0,0.0,0.0,0.0,0.0,0.0,0.0,0.0,0.0,0.0,0.0,0.0,0.0,0.0,0.0,0.0,0.0,0.0,0.0,0.0,0.0,0.0,0.0,0.0,1.5714,0.0,2.0527,2.191,2.3124,2.3791,2.4118,2.4059,2.2847,2.1151,0.0,1.6222,1.3471,1.1686,0.9807,0.8888,1.0161,1.0162,1.0289,1.1294,1.1275,1.1176,1.1256,1.1584,0.0,0.0,0.0,0.0,0.0,0.0,0.0,0.0,0.0,0.0,0.0,0.0,1.9254,1.8715,1.8286,1.7523,1.6482,1.6265,1.5921,1.541,1.541,1.541,1.541,1.541,1.541,0.0,0.0,0.0,0.0,1.5979,1.6322,1.6492,1.6492,1.6821,1.7246,1.7246,1.681,1.6151,0.0,0.0,0.0,0.0,0.0,0.0,1.0312,1.1055,1.1602,1.1602,1.1602,1.1602,1.1602,1.082,1.0312,1.0293,1.0293,0.0,0.0,0.0,0.0,0.0,0.0,0.0,0.0,0.0,1.0293,1.0293,1.0293,0.0,0.0,0.0,0.0,0.0,0.0,0.0,0.0,0.0,0.0,0.0,0.0,0.0,0.0,0.0,0.0,0.0,0.0,0.0,0.0,0.0,0.0,0.0,0.0,0.0,1.3251,1.7394,1.9246,2.0425,2.269,2.3319,2.3254,2.3069,2.2209,2.0734,1.8181,1.5597,1.3214,1.1472,0.9814,0.9045,1.0176,1.0232,1.0286,1.0819,1.1358,1.1458,1.081,1.1582,0.0,0.0,0.0,0.0,0.0,0.0,0.0,0.0,0.0,0.0,0.0,0.0,1.8715,1.8715,1.7302,1.6549,1.6492,1.5748,1.541,1.541,1.541,1.541,1.541,1.541,0.0,0.0,0.0,0.0,0.0,1.541,1.5864,1.6492,1.6492,1.6492,1.6482,1.6482,1.6036,1.541,0.0,0.0,0.0,0.0,0.0,0.0,0.0,1.0527,1.0703,1.0703,1.0703,1.0703,1.0703,1.0469,1.0293,1.0293,1.0293,0.0,0.0,0.0,0.0,0.0,0.0,0.0,0.0,0.0,1.0586,1.1191,1.1191,1.1172,1.1152,0.0,0.0,0.0,0.0,0.0,0.0,0.0,0.0,0.0,0.0,0.0,0.0,0.0,0.0,0.0,0.0,0.0,0.0,0.0,0.0,0.0,0.0,0.0,0.0,1.3616,1.5425,0.0,1.921,2.0071,2.0448,2.0464,1.9693,1.8566,1.7126,1.4803,1.2589,1.1355,0.9814,0.8936,0.9713,0.9986,1.0406,1.1356,1.1921,1.2147,0.0,0.0,0.0,0.0,0.0,0.0,0.0,0.0,0.0,0.0,0.0,0.0,0.0,0.0,1.7961,1.7961,1.7034,1.6265,1.5748,1.5526,1.541,1.541,1.541,1.541,1.541,1.541,0.0,0.0,0.0,0.0,0.0,1.541,1.5526,1.5748,1.5748,1.5748,1.5748,1.5748,1.5584,1.541,0.0,0.0,0.0,0.0,0.0,0.0,0.0,1.0286,1.026,1.0254,1.0254,1.0254,1.0254,1.0254,1.0254,1.0254,1.0254,0.0,0.0,0.0,0.0,0.0,0.0,0.0,1.0254,1.0293,1.0723,1.1602,1.1602,1.1777,1.209,1.2051,1.1558,0.0,0.0,0.0,0.0,0.0,0.0,0.0,0.0,0.0,0.0,0.0,0.0,0.0,0.0,0.0,0.0,0.0,0.0,0.0,0.0,0.0,0.0,0.0,1.2568,1.4185,1.6904,1.7906,1.825,1.8632,1.793,1.6842,1.5646,1.3649,1.1782,1.0883,0.963,0.8952,0.9749,1.0017,1.0444,1.1466,1.1945,0.0,0.0,0.0,0.0,0.0,0.0,0.0,0.0,0.0,0.0,0.0,0.0,0.0,0.0,0.0,1.7005,1.7191,1.6482,1.5864,1.541,1.541,1.541,1.541,1.541,1.541,1.541,0.0,0.0,0.0,0.0,0.0,0.0,1.4932,1.4932,1.4932,1.4932,1.5108,1.541,1.541,1.541,1.541,0.0,0.0,0.0,0.0,0.0,0.0,0.0,1.025,1.0191,1.0192,1.0194,1.0194,1.0194,1.0194,1.0194,1.0194,0.0,0.0,0.0,0.0,0.0,0.0,0.0,0.0,1.0195,1.0254,1.0723,1.1602,1.166,1.2109,1.2891,1.2968,1.2492,1.1581,1.1527,0.0,0.0,0.0,0.0,0.0,0.0,0.0,0.0,0.0,0.0,0.0,0.0,0.0,0.0,0.0,0.0,0.0,0.0,0.0,0.0,0.0,0.0,0.0,0.0,1.6365,1.645,1.7188,1.6578,1.5398,1.3881,1.2218,0.0,1.0136,0.9288,0.9033,1.0192,1.0232,1.0406,1.1312,0.0,0.0,0.0,0.0,0.0,0.0,0.0,0.0,0.0,0.0,0.0,0.0,0.0,0.0,0.0,0.0,0.0,1.6415,1.5718,1.5381,1.541,1.541,1.541,1.541,1.541,1.541,1.541,0.0,0.0,0.0,0.0,0.0,0.0,1.4085,1.4085,1.4085,1.4085,1.4569,1.5235,1.5235,1.5294,1.5294,0.0,0.0,0.0,0.0,0.0,0.0,0.0,0.0,0.0,0.0,1.0199,1.0199,1.0199,1.0199,1.0199,0.0,0.0,0.0,0.0,0.0,0.0,0.0,0.0,0.0,1.0195,1.0215,1.0684,1.1602,1.2266,1.2695,1.291,1.3522,1.3005,1.1515,1.1509,1.0986,0.0,0.0,0.0,0.0,0.0,0.0,0.0,0.0,0.0,0.0,0.0,0.0,0.0,0.0,0.0,0.0,0.0,0.0,0.0,0.0,0.9866,1.0105,1.1719,0.0,1.2998,1.3226,1.2973,1.2538,0.0,1.0991,1.0089,1.0009,0.9184,0.8885,1.0302,1.0299,1.0747,0.0,0.0,0.0,0.0,0.0,0.0,0.0,0.0,0.0,0.0,0.0,0.0,0.0,0.0,0.0,0.0,0.0,0.0,1.5671,1.5212,1.5088,1.541,1.541,1.541,1.541,1.541,1.541,1.5352,0.0,0.0,0.0,0.0,0.0,1.3312,1.3312,1.3312,1.3312,1.3312,1.3425,1.3545,1.3545,1.3965,1.451,0.0,0.0,0.0,0.0,0.0,0.0,0.0,0.0,0.0,0.0,0.0,1.0113,1.0113,1.0075,0.0,0.0,0.0,0.0,0.0,0.0,0.0,0.0,0.0,1.0203,1.0199,1.0191,1.084,1.2148,1.2617,1.3255,1.4065,1.4484,1.3773,1.2058,1.1254,1.0591,0.0,0.0,0.0,0.0,0.0,0.0,0.0,0.0,0.0,0.0,0.0,0.9669,0.0,0.9658,0.9669,0.9669,0.0,0.0,0.0,0.0,0.9517,0.9493,0.995,1.1044,1.2164,1.2581,1.2218,1.1754,1.1687,1.0369,0.9264,0.9642,0.0,0.0,0.0,0.0,0.0,0.0,0.0,0.0,0.0,0.0,0.0,0.0,0.0,0.0,0.0,0.0,0.0,0.0,0.0,0.0,0.0,0.0,0.0,0.0,1.4795,1.498,1.541,1.541,1.5225,1.4874,1.4874,1.4688,1.4273,0.0,0.0,0.0,0.0,0.0,1.2451,1.2451,1.2451,1.2451,1.2451,1.2696,1.3009,1.3009,1.3312,1.3674,0.0,0.0,0.0,0.0,0.0,0.0,0.0,0.0,0.0,0.0,0.0,0.0,0.0,0.0,0.0,0.0,0.0,0.0,0.0,0.0,0.0,0.0,1.0136,1.0175,1.0175,1.0183,1.0914,1.2399,1.2671,1.3566,1.5012,1.5268,1.4454,1.2719,1.0957,1.0095,0.0,0.0,0.0,0.0,0.0,0.0,0.0,0.0,0.0,0.0,0.0,0.0,0.0,0.9421,0.9447,0.9491,0.9609,0.0,0.0,0.0,0.0,0.0,0.9479,1.0963,1.2556,1.2936,1.2514,1.1974,1.1794,1.015,0.8813,0.0,0.0,0.0,0.0,1.1249,0.0,0.0,0.0,0.0,0.0,0.0,0.0,0.0,0.0,0.0,0.0,0.0,0.0,0.0,0.0,0.0,0.0,0.0,0.0,0.0,1.4357,1.4686,1.504,1.5167,1.4805,1.4025,1.4025,1.3666,1.3009,1.2757,0.0,0.0,0.0,0.0,1.1197,1.1197,1.1197,1.1197,1.1197,1.1626,1.2251,1.2251,1.2312,1.2427,0.0,0.0,0.0,0.0,0.0,0.0,0.0,0.0,0.0,0.0,0.0,0.0,0.0,0.0,0.0,0.0,0.0,0.0,0.0,0.0,0.0,0.9931,0.9991,1.0056,1.0113,1.0166,1.0338,1.0596,1.2078,1.2949,1.3235,1.4649,1.4392,1.2646,1.0832,0.9986,0.991,0.991,0.0,0.0,0.0,0.0,0.0,0.0,0.0,0.0,0.0,0.0,0.0,0.9126,0.9183,0.934,0.9358,0.0,0.0,0.0,0.0,0.0,1.0303,1.1628,1.2354,1.0779,1.1244,1.1824,1.0881,1.0237,0.9837,0.0,0.0,0.0,0.0,0.0,0.0,0.0,0.0,0.0,0.0,0.0,0.0,0.0,0.0,0.0,0.0,0.0,0.0,0.0,0.0,0.0,0.0,0.0,0.0,0.0,0.0,1.3247,1.3364,1.4025,1.3965,1.3191,1.3191,1.313,1.2948,1.1556,1.0864,0.0,0.0,0.872,0.8597,0.8597,0.8597,0.8597,0.8597,0.8661,0.8784,0.8784,0.9209,0.9813,0.0,0.0,0.0,0.0,0.0,0.0,0.0,0.0,0.0,0.0,0.0,0.0,0.0,0.0,0.0,0.0,0.0,0.0,0.0,0.0,0.952,0.9562,0.9649,0.9782,0.9991,1.0448,1.0916,1.1401,1.2636,1.35,1.399,1.3808,1.3062,1.182,1.0532,0.991,0.985,0.985,0.9805,0.0,0.0,0.0,0.0,0.0,0.0,0.0,0.0,0.0,0.0,0.0,0.8835,0.8928,0.9002,0.0,0.0,0.0,0.0,0.0,0.9359,1.08,1.1829,1.0516,1.1581,1.2759,1.1975,1.1067,1.0449,0.0,0.0,0.0,0.0,0.0,0.0,0.0,0.0,0.0,0.0,0.0,0.0,0.0,0.0,0.0,0.0,0.0,0.0,0.0,0.0,0.0,0.0,0.0,0.0,0.0,0.0,0.0,1.1291,1.1424,1.1574,1.1618,1.1618,1.1176,1.0292,0.9476,0.9163,0.9099,0.0,0.8027,0.8027,0.8027,0.8027,0.8027,0.8027,0.8027,0.8027,0.8027,0.8205,0.8575,0.0,0.0,0.0,0.0,0.0,0.0,0.0,0.0,0.0,0.0,0.0,0.0,0.0,0.0,0.0,0.0,0.0,0.0,0.0,0.9279,0.9264,0.9299,0.9312,0.9547,1.0024,1.066,1.1387,1.2251,1.3057,1.3839,1.4541,1.2869,1.1737,1.1131,1.0257,0.9863,0.9818,0.9784,0.9761,0.0,0.0,0.0,0.0,0.0,0.0,0.0,0.0,0.0,0.0,0.0,0.0,0.0,0.0,0.0,0.0,0.8555,0.8472,0.8453,0.8677,0.9892,1.102,1.0763,1.2106,1.3376,1.2953,1.1817,1.0978,0.0,0.0,0.0,0.0,0.0,0.0,0.0,0.0,0.0,0.0,0.0,0.0,0.0,0.0,0.0,0.0,0.0,0.0,0.0,0.0,0.0,0.0,0.0,0.0,0.0,0.0,0.0,0.9352,0.9103,0.9261,0.992,0.992,0.9227,0.8027,0.7767,0.7697,0.7697,0.7507,0.7377,0.7377,0.7377,0.7377,0.7377,0.7377,0.7377,0.7377,0.7381,0.7381,0.7381,0.0,0.0,0.0,0.0,0.0,0.0,0.0,0.0,0.0,0.0,0.0,0.0,0.0,0.0,0.0,0.0,0.0,0.0,0.0,0.9192,0.9168,0.9292,0.9189,0.9547,1.0436,1.0569,1.0994,1.1747,1.2631,1.3142,1.3306,1.1799,1.106,1.0993,1.0173,0.9844,0.9875,0.9761,0.9739,0.9777,0.9717,0.0,0.0,0.0,0.0,0.0,0.0,0.0,0.0,0.0,0.0,0.0,0.0,0.0,0.8412,0.8412,0.8399,0.8594,0.9456,0.9621,0.985,1.103,1.2099,1.279,1.2502,1.1963,1.1595,1.1838,0.0,0.0,0.0,0.0,0.0,0.0,0.0,0.0,0.0,0.0,0.0,0.0,0.0,0.0,0.0,0.0,0.0,0.0,0.0,0.0,0.0,0.0,0.0,0.0,0.0,0.0,0.8125,0.8076,0.8086,0.8151,0.8151,0.8086,0.7962,0.7177,0.6785,0.6719,0.5947,0.5557,0.5557,0.5557,0.5557,0.5557,0.5557,0.5557,0.5561,0.5572,0.5575,0.5575,0.0,0.0,0.0,0.0,0.0,0.0,0.0,0.0,0.0,0.0,0.0,0.0,0.0,0.0,0.0,0.0,0.0,0.0,0.0,0.8998,0.8992,0.9054,0.8918,0.9234,1.0051,1.0377,1.0672,1.0946,1.1801,1.1953,1.1515,1.0947,1.0422,0.994,0.9624,0.9547,0.9658,0.9643,0.9677,0.9732,0.9754,0.0,0.0,0.0,0.0,0.0,0.0,0.0,0.0,0.0,0.804,0.8082,0.8082,0.8082,0.8082,0.8082,0.8082,0.8133,0.836,0.8944,0.9524,0.9773,1.0637,1.1609,0.0,1.2454,1.2544,1.258,1.2597,0.0,0.0,0.0,0.0,0.0,0.0,0.0,0.0,0.0,0.0,0.0,0.0,0.0,0.0,0.0,0.0,0.0,0.0,0.0,0.0,0.0,0.0,0.0,0.0,0.0,0.0,0.6706,0.6371,0.6416,0.7082,0.7077,0.6338,0.6028,0.5899,0.5892,0.5575,0.5382,0.5382,0.5382,0.5379,0.5372,0.5432,0.5432,0.5372,0.5376,0.4697,0.3754,0.0,0.0,0.0,0.0,0.0,0.0,0.0,0.0,0.0,0.0,0.0,0.0,0.0,0.0,0.0,0.0,0.0,0.0,0.8891,0.8891,0.888,0.884,0.8736,0.8899,0.934,0.9672,1.0112,1.0621,1.0995,1.0884,1.0353,1.0161,0.9728,0.9152,0.9257,0.9331,0.9376,0.9504,0.9628,0.9706,0.9743,0.9677,0.0,0.0,0.0,0.0,0.0,0.0,0.0,0.0,0.7899,0.7899,0.7899,0.7899,0.7899,0.7899,0.7975,0.7987,0.7659,0.8238,0.8915,0.8839,0.9551,1.064,1.1791,1.2321,1.2596,1.2635,1.2792,0.0,0.0,0.0,0.0,0.0,0.0,0.0,0.0,0.0,0.0,0.0,0.0,0.0,0.0,0.0,0.0,0.0,0.0,0.0,0.0,0.0,0.0,0.0,0.0,0.0,0.0,0.5512,0.5406,0.538,0.616,0.5841,0.4553,0.5116,0.5116,0.4561,0.457,0.4573,0.4573,0.4573,0.4909,0.5382,0.5376,0.5376,0.5382,0.5389,0.464,0.3355,0.0,0.0,0.0,0.0,0.0,0.0,0.0,0.0,0.0,0.0,0.0,0.0,0.0,0.0,0.0,0.0,0.0,0.0,0.8891,0.8891,0.8852,0.8705,0.8693,0.8592,0.8403,0.8403,0.9211,1.0882,1.0289,0.9984,0.9967,0.9377,0.8988,0.8812,0.9142,0.9222,0.9115,0.9394,0.9578,0.9703,0.9699,0.9661,0.0,0.0,0.0,0.0,0.0,0.0,0.0,0.0,0.7899,0.7899,0.7899,0.7899,0.7914,0.7899,0.8132,0.8258,0.7664,0.7596,0.7854,0.0,0.0,0.0,1.124,1.149,1.1554,1.1773,1.2337,1.2764,1.2822,0.0,0.0,0.0,0.0,0.0,0.0,0.0,0.0,0.0,0.0,0.0,0.0,0.0,0.0,0.0,0.0,0.0,0.0,0.0,0.0,0.0,0.0,0.0,0.0,0.4511,0.5428,0.5431,0.5401,0.4445,0.2744,0.4573,0.4436,0.2744,0.2678,0.2678,0.2678,0.2678,0.3756,0.5326,0.5396,0.5396,0.5396,0.541,0.5346,0.4864,0.0,0.0,0.0,0.0,0.0,0.0,0.0,0.0,0.0,0.0,0.0,0.0,0.0,0.0,0.0,0.0,0.0,0.0,0.8891,0.8891,0.8852,0.8705,0.8567,0.8399,0.8185,0.8335,0.8715,0.9362,0.9277,0.923,0.923,0.9038,0.888,0.8731,0.8835,0.888,0.8908,0.9122,0.9374,0.9644,0.9743,0.9757,0.971,0.0,0.0,0.0,0.0,0.0,0.0,0.0,0.0,0.0,0.7501,0.7801,0.8136,0.7568,0.7637,0.7819,0.7414,0.7513,0.0,0.8167,0.0,0.0,0.0,1.1847,0.0,0.0,1.1963,1.2248,0.0,0.0,0.0,0.0,0.0,0.0,0.0,0.0,0.0,0.0,0.0,0.0,0.0,0.0,0.0,0.0,0.0,0.0,0.0,0.0,0.0,0.0,0.0,0.0,0.0,0.0,0.5409,0.5392,0.5411,0.4445,0.2744,0.4596,0.5078,0.4448,0.1882,0.0807,0.0806,0.0804,0.1138,0.1742,0.3015,0.4303,0.5406,0.541,0.3777,0.1414,0.0,0.0,0.0,0.0,0.0,0.0,0.0,0.0,0.0,0.0,0.9375,0.9248,0.0,0.0,0.0,0.0,0.0,0.0,0.0,0.8863,0.8748,0.8579,0.8322,0.8079,0.7896,0.816,0.8332,0.8463,0.8766,0.8891,0.8891,0.8852,0.8736,0.8579,0.8579,0.8612,0.8658,0.8943,0.9233,0.9526,0.9706,0.9782,0.9764,0.0,0.0,0.0,0.0,0.0,0.0,0.0,0.0,0.0,0.7287,0.7523,0.7849,0.7432,0.7559,0.7804,0.7687,0.7957,0.0,0.8845,0.9748,1.0651,1.1135,0.0,0.0,0.0,0.0,0.0,0.0,0.0,0.0,0.0,0.0,0.0,0.0,0.0,0.0,0.0,0.0,0.0,0.0,0.0,0.0,0.0,0.0,0.0,0.0,0.0,0.0,0.0,0.0,0.0,0.0,0.0,0.0,0.5382,0.5397,0.4051,0.1677,0.2765,0.3244,0.31,0.0943,-0.0,-0.0,-0.0,-0.0,0.0134,0.1208,0.2284,0.3236,0.3236,0.1885,-0.0,0.0,0.0,0.0,0.0,0.0,0.0,0.0,0.0,0.0,0.0,0.9393,0.9265,0.0,0.0,0.0,0.0,0.0,0.0,0.0,0.8748,0.8579,0.8374,0.7996,0.7724,0.7605,0.791,0.8075,0.8075,0.8615,0.8869,0.8846,0.8748,0.8579,0.8374,0.8374,0.8374,0.8425,0.8812,0.9138,0.941,0.9607,0.9732,0.9764,0.9421,0.0,0.0,0.0,0.0,0.0,0.0,0.0,0.0,0.7162,0.7173,0.7245,0.7351,0.7636,0.7966,0.8246,0.0,0.0,1.0064,1.0614,0.0,0.0,0.0,0.0,0.0,0.0,0.0,0.0,0.0,0.0,0.0,0.0,0.0,0.0,0.0,0.0,0.0,0.0,0.0,0.0,0.0,0.0,0.0,0.0,0.0,0.0,0.0,0.0,0.0,0.0,0.0,0.0,0.0,0.0,0.0,0.4885,0.3171,-0.0,-0.0,-0.0,-0.0,-0.0,-0.0,-0.0,-0.0,-0.0,-0.0,-0.0,-0.0,-0.0,-0.0,-0.0,-0.0,0.0,0.0,0.0,0.0,0.0,0.0,0.0,0.0,0.0,0.0,0.0,0.0,0.0,0.0,0.0,0.0,0.0,0.0,0.0,0.8567,0.8374,0.8171,0.7826,0.762,0.7605,0.7782,0.7868,0.7868,0.8447,0.8665,0.8513,0.8628,0.8501,0.8171,0.8171,0.8253,0.8412,0.8615,0.8967,0.9401,0.9507,0.9646,0.9764,0.9421,0.9163,0.0,0.0,0.0,0.0,0.0,0.0,0.0,0.6832,0.7022,0.7236,0.6656,0.6828,0.7272,0.754,0.7792,0.0,0.0,1.0714,0.0,0.0,0.0,0.0,0.0,0.0,0.0,0.0,0.0,0.0,0.0,0.0,0.0,0.0,0.0,0.0,0.0,0.0,0.0,0.0,0.0,0.0,0.0,0.0,0.0,0.0,0.0,0.0,0.0,0.0,0.0,-0.0,-0.0,0.0361,0.0,0.1154,0.0726,-0.0,-0.0,-0.0,-0.0,-0.0,-0.0,-0.0,-0.0,-0.0,-0.0,-0.0,-0.0,-0.0,-0.0,-0.0,-0.0,0.0,0.0,0.0,0.0,0.0,0.0,0.0,0.0,0.0,0.0,0.0,0.0,0.0,0.0,0.0,0.0,0.0,0.0,0.0,0.8377,0.8147,0.7868,0.7783,0.7694,0.7605,0.768,0.7695,0.7695,0.7994,0.8171,0.8267,0.8358,0.8251,0.7966,0.7996,0.8092,0.828,0.8506,0.8801,0.9138,0.9394,0.9567,0.9628,0.9465,0.9294,0.9094,0.8651,0.0,0.0,0.0,0.0,0.0,0.0,0.0,0.676,0.6448,0.6474,0.6756,0.739,0.0,0.0,1.0459,0.0,0.0,0.0,0.0,0.0,0.0,0.0,0.0,0.0,0.0,0.0,0.0,0.0,0.0,0.0,0.0,0.0,0.0,0.0,0.0,0.0,0.0,0.0,0.0,0.0,0.0,0.0,0.0,0.0,0.0,0.0,0.0,-0.0,-0.0,-0.0,-0.0,-0.0,-0.0,-0.0,-0.0,-0.0,-0.0,-0.0,-0.0,-0.0,-0.0,-0.0,-0.0,-0.0,-0.0,-0.0,-0.0,-0.0,-0.0,0.0,0.0,0.0,0.0,0.0,0.0,0.0,0.0,0.0,0.0,0.0,0.0,0.0,0.0,0.0,0.0,0.0,0.0,0.0,0.8118,0.7925,0.762,0.7753,0.7753,0.7545,0.753,0.753,0.753,0.744,0.759,0.7945,0.7983,0.7909,0.7768,0.7827,0.7941,0.8115,0.839,0.8618,0.8835,0.9248,0.9447,0.95,0.95,0.9412,0.9237,0.8796,0.8415,0.802,0.7442,0.0,0.0,0.0,0.0,0.6175,0.6292,0.6223,0.6339,0.7242,0.0,0.9033,1.0797,1.1121,0.0,0.0,0.0,0.0,0.0,0.0,0.0,0.0,0.0,0.0,0.0,0.0,0.0,0.0,0.0,0.0,0.0,0.0,0.0,0.0,0.0,0.0,0.0,0.0,0.0,0.0,0.0,0.0,0.0,0.0,-0.0,-0.0,-0.0,-0.0,-0.0,-0.0,-0.0,-0.0,-0.0,-0.0,-0.0,-0.0,-0.0,-0.0,-0.0,-0.0,-0.0,-0.0,-0.0,-0.0,-0.0,-0.0,-0.0,0.0,0.0,0.0,0.0,0.0,0.0,0.0,0.0,0.0,0.0,0.9223,0.9133,0.9129,0.8376,0.0,0.0,0.0,0.0,0.7359,0.0,0.0,0.7603,0.7634,0.7515,0.7256,0.7256,0.7256,0.7256,0.7082,0.7091,0.7331,0.7511,0.7591,0.762,0.765,0.7811,0.8102,0.8142,0.8411,0.8824,0.8988,0.924,0.95,0.95,0.9412,0.9257,0.8889,0.8485,0.8034,0.7592,0.7207,0.0,0.0,0.0,0.0,0.0,0.5735,0.5965,0.0,0.0,0.951,0.0,1.0048,0.0,0.0,0.0,0.0,0.0,0.0,0.0,0.0,0.0,0.0,0.0,0.0,0.0,0.0,0.0,0.0,0.0,0.0,0.0,0.0,0.0,0.0,0.0,0.0,0.0,0.0,0.0,-0.0,-0.0,-0.0,0.0,-0.0,-0.0,-0.0,-0.0,-0.0,-0.0,-0.0,-0.0,-0.0,-0.0,-0.0,-0.0,-0.0,-0.0,-0.0,-0.0,-0.0,-0.0,-0.0,-0.0,-0.0,-0.0,0.0,0.0,0.0,0.0,0.0,0.0,0.0,0.0,0.0,0.0,0.0,0.8935,0.8925,0.8094,0.0,0.0,0.0,0.0,0.649,0.6659,0.0,0.7198,0.71,0.7214,0.7591,0.7223,0.7096,0.7195,0.6743,0.6681,0.7023,0.6969,0.7267,0.7838,0.7869,0.7964,0.8085,0.7989,0.8113,0.8432,0.8762,0.9366,1.003,0.9645,0.9699,0.9877,0.9171,0.8641,0.8185,0.768,0.7303,0.0,0.0,0.0,0.0,0.0,0.0,0.0,0.672,0.7733,0.8704,0.0,0.9367,0.0,0.0,0.0,0.0,0.0,0.0,0.0,0.0,0.0,0.0,0.0,0.0,0.0,0.0,0.0,0.0,0.0,0.0,0.0,0.0,0.0,0.0,0.0,0.0,0.0,0.0,-0.0,-0.0,-0.0,-0.0,0.0,-0.0,-0.0,-0.0,-0.0,-0.0,-0.0,-0.0,-0.0,-0.0,-0.0,-0.0,-0.0,-0.0,-0.0,-0.0,-0.0,-0.0,-0.0,-0.0,-0.0,-0.0,-0.0,0.0,0.0,0.0,0.0,0.0,0.0,0.0,0.0,0.0,0.0,0.0,0.0,0.8774,0.0,0.0,0.0,0.0,0.0,0.5871,0.0,0.0,0.0,0.664,0.6951,0.7562,0.7054,0.6913,0.7195,0.6386,0.6282,0.6796,0.663,0.7031,0.7908,0.7881,0.7874,0.7855,0.7779,0.7854,0.8077,0.8677,0.9509,1.0344,1.0021,1.0242,1.0573,0.9598,0.8995,0.0,0.0,0.0,0.0,0.0,0.0,0.0,0.0,0.0,0.0,0.0,0.0,0.7725,0.871,0.8716,0.0,0.0,0.0,0.0,0.0,0.0,0.0,0.0,0.0,0.0,0.0,0.0,0.0,0.0,0.0,0.0,0.0,0.0,0.0,0.0,0.0,0.0,0.0,0.0,0.0,-0.0,-0.0,-0.0,-0.0,-0.0,-0.0,-0.0,-0.0,-0.0,-0.0,-0.0,-0.0,-0.0,-0.0,-0.0,-0.0,-0.0,-0.0,-0.0,-0.0,-0.0,-0.0,-0.0,-0.0,-0.0,-0.0,-0.0,-0.0,0.0,0.0,0.0,0.0,0.0,0.0,0.0,0.0,0.0,0.0,0.0,0.0,0.8712,0.7358,0.6392,0.6262,0.0,0.0,0.0,0.0,0.0,0.0,0.0,0.0,0.6675,0.6512,0.6671,0.7195,0.602,0.582,0.6527,0.663,0.7024,0.7606,0.7368,0.725,0.7266,0.7499,0.768,0.7899,0.8888,0.9582,1.0093,1.0762,1.1118,1.114,1.0254,0.0,0.0,0.0,0.0,0.0,0.0,0.0,0.0,0.0,0.0,0.0,0.0,0.6702,0.0,0.7328,0.0,0.0,0.0,0.0,0.0,0.0,0.0,0.0,0.0,0.0,0.0,0.0,0.0,0.0,0.0,0.0,0.0,0.0,0.0,0.0,0.0,0.0,0.0,0.0,0.0,0.0,-0.0,-0.0,-0.0,-0.0,-0.0,-0.0,-0.0,-0.0,-0.0,-0.0,-0.0,-0.0,-0.0,-0.0,-0.0,-0.0,-0.0,-0.0,-0.0,-0.0,-0.0,-0.0,-0.0,-0.0,-0.0,-0.0,-0.0,-0.0,0.0,0.0,0.0,0.0,0.0,0.0,0.0,0.0,0.0,0.0,0.0,0.0,0.0,0.7334,0.637,0.5973,0.4773,0.0,0.0,0.0,0.0,0.0,0.0,0.0,0.6078,0.5701,0.5648,0.5983,0.5583,0.5687,0.6238,0.6344,0.6554,0.6901,0.7067,0.7274,0.7499,0.7265,0.7331,0.7694,0.8606,0.9603,1.0533,1.0715,1.1128,1.1505,0.0,0.0,0.0,0.0,0.0,0.0,0.6613,0.6336,0.6189,0.6112,0.6094,0.0,0.0,0.0,0.0,0.7021,0.0,0.0,0.0,0.0,0.0,0.0,0.0,0.0,0.0,0.0,0.0,0.0,0.0,0.0,0.0,0.0,0.0,0.0,0.0,0.0,0.0,0.0,0.0,0.0,0.0,0.0,-0.2865,-0.1064,-0.0,-0.0,-0.0,-0.0,-0.0,-0.0,-0.0,-0.0,-0.0,-0.0,-0.0,-0.0,-0.0,-0.0,-0.0,-0.0,-0.0,-0.0,-0.0,-0.0,-0.0,-0.0,-0.0,-0.0,-0.0,-0.0,0.0,0.0,0.0,0.0,0.0,0.0,0.0,0.0,0.8625,0.8715,0.0,0.0,0.0,0.0,0.6369,0.5635,0.4505,0.3864,0.397,0.3823,0.0,0.0,0.0,0.0,0.5453,0.5053,0.4981,0.5305,0.5074,0.5269,0.5861,0.5843,0.604,0.6391,0.6429,0.6719,0.7185,0.6982,0.7045,0.7403,0.8467,0.947,1.0367,1.0706,1.1197,1.1623,0.0,0.0,0.0,0.0,0.0,0.0,0.6987,0.6618,0.6336,0.6336,0.6376,0.6497,0.6821,0.0,0.0,0.0,0.0,0.0,0.0,0.0,0.0,0.0,0.0,0.0,0.0,0.0,0.0,0.0,0.0,0.0,0.0,0.0,0.0,0.0,0.0,0.0,0.0,0.0,0.0,0.0,0.0,0.0,-0.4507,-0.2575,-0.1284,-0.0781,-0.028,-0.0,-0.0,-0.0,-0.0,-0.0,-0.0,-0.0,-0.0,-0.0,-0.0,-0.0,-0.0,-0.0,-0.0,-0.0,-0.0,-0.0,-0.0,-0.0,-0.0,-0.0,-0.0,-0.0,0.0,0.0,0.0,0.0,0.0,0.0,0.0,0.0,0.8374,0.839,0.0,0.0,0.0,0.0,0.0,0.5215,0.4614,0.4294,0.4294,0.3859,0.0,0.0,0.0,0.0,0.4788,0.4603,0.4755,0.5262,0.4485,0.4533,0.5356,0.5179,0.5451,0.6108,0.5421,0.55,0.62,0.6672,0.6894,0.7059,0.0,0.9208,0.9542,0.0,0.0,0.0,1.0647,1.0341,0.0,0.9054,0.0,0.0,0.0,0.7019,0.6599,0.6599,0.674,0.6908,0.0,0.0,0.0,0.0,0.0,0.0,0.0,0.0,0.0,0.0,0.0,0.0,0.0,0.0,0.0,0.0,0.0,0.0,0.0,0.0,0.0,0.0,0.0,0.0,0.0,0.0,0.0,0.0,0.0,-0.4507,-0.4497,-0.4497,-0.3811,-0.2287,-0.0893,-0.0112,-0.0,-0.0,-0.0,-0.0,-0.0,-0.0,-0.0,-0.0,-0.0,-0.0,-0.0,-0.0,-0.0,-0.0,-0.0,-0.0,-0.0,-0.0,-0.0,-0.0,-0.0,-0.0,0.0,0.0,0.0,0.0,0.0,0.7841,0.8131,0.7937,0.7854,0.0,0.0,0.0,0.7677,0.6838,0.6105,0.564,0.4709,0.4203,0.4291,0.382,0.3575,0.3643,0.4165,0.444,0.4435,0.4536,0.4496,0.4351,0.4438,0.4412,0.4327,0.461,0.4802,0.4904,0.5199,0.5366,0.5497,0.5923,0.6665,0.7587,0.8035,0.8843,0.0,0.0,0.0,0.0,0.0,1.1256,1.1091,0.0,0.9799,0.8766,0.0,0.7019,0.6599,0.6599,0.674,0.6908,0.6908,0.0,0.0,0.0,0.0,0.0,0.0,0.0,0.0,0.0,0.0,0.0,0.0,0.0,0.0,0.0,0.0,0.0,0.0,0.0,0.0,0.0,0.0,0.0,0.0,0.0,0.0,0.0,0.0,-0.4487,-0.4484,-0.4484,-0.4317,-0.3869,-0.3479,-0.2184,-0.0,-0.0,-0.0,-0.0,-0.0,-0.0,-0.0,-0.0,-0.0,-0.0,-0.0,-0.0,-0.0,-0.0,-0.0,-0.0,-0.0,-0.0,-0.0,-0.0,-0.0,-0.0,0.0,0.0,0.0,0.7777,0.7597,0.7497,0.7695,0.7531,0.7471,0.0,0.0,0.0,0.726,0.6757,0.6365,0.6157,0.533,0.4753,0.4608,0.4109,0.3851,0.3888,0.4158,0.4374,0.4511,0.4572,0.4352,0.3834,0.4061,0.4071,0.3868,0.4026,0.4173,0.432,0.4559,0.485,0.521,0.5391,0.6171,0.0,0.7675,0.0,0.0,0.9873,1.0612,0.0,0.0,0.0,1.1514,1.1402,1.048,0.0,0.0,0.7105,0.6774,0.6421,0.6648,0.7007,0.6887,0.6994,0.7165,0.0,0.0,0.0,0.0,0.0,0.0,0.0,0.0,0.0,0.0,0.0,0.0,0.0,0.0,0.0,0.0,0.0,0.0,0.0,0.0,0.0,0.0,0.0,0.0,0.0,-0.3968,-0.4477,-0.4473,-0.4473,-0.4477,-0.4484,-0.4497,-0.3365,-0.0949,-0.028,-0.0,-0.0,-0.0,-0.0,-0.0,-0.0,-0.0,-0.0,-0.0,-0.0,-0.0,-0.0,-0.0,-0.0,-0.0,-0.0943,-0.2223,-0.2223,-0.1278,-0.0,0.0,0.0,0.7603,0.7598,0.735,0.7172,0.7188,0.7169,0.7146,0.0,0.7146,0.7064,0.6878,0.6868,0.6792,0.6621,0.611,0.5595,0.5125,0.464,0.4371,0.4371,0.4429,0.4607,0.4906,0.4798,0.4397,0.371,0.3662,0.3683,0.3754,0.3534,0.3707,0.4215,0.3924,0.4338,0.5246,0.5197,0.5735,0.6685,0.7357,0.7981,0.0,0.0,1.0463,0.0,1.1511,1.1726,1.1763,1.164,1.0701,0.0,0.0,0.7352,0.7166,0.6301,0.6638,0.7223,0.6901,0.7175,0.7568,0.7543,0.0,0.0,0.0,0.692,0.0,0.0,0.0,0.0,0.0,0.0,0.0,0.0,0.0,0.0,0.0,0.0,0.0,0.0,0.0,0.0,0.0,0.0,0.0,-0.448,-0.4477,-0.4473,-0.4519,-0.4519,-0.4519,-0.4519,-0.4484,-0.3755,-0.2232,-0.0727,-0.0,-0.0,-0.0,-0.0,-0.0,-0.0,-0.0,-0.0,-0.0,-0.0,-0.0,-0.0,-0.0,-0.0067,-0.0472,-0.2559,-0.5413,-0.541,-0.3362,-0.0603,0.0,0.7738,0.76,0.7611,0.7239,0.7006,0.7173,0.6914,0.6778,0.6944,0.6811,0.6706,0.6668,0.6659,0.6642,0.6599,0.611,0.5755,0.5647,0.5146,0.4859,0.4859,0.528,0.5548,0.5597,0.5632,0.5238,0.441,0.4079,0.377,0.3483,0.3533,0.3851,0.4372,0.4845,0.5234,0.5559,0.6059,0.6504,0.6849,0.6988,0.0,0.9379,0.9506,1.0614,1.21,1.2221,1.2529,1.2776,0.0,1.1184,1.0279,0.0,0.0,0.8079,0.7199,0.7406,0.777,0.7067,0.7416,0.7749,0.6738,0.0,0.0,0.0,0.6009,0.0,0.0,0.0,0.0,0.0,0.0,0.0,0.0,0.0,0.0,0.0,0.0,0.0,0.0,0.0,0.0,0.0,0.0,-0.448,-0.4522,-0.4522,-0.4519,-0.4519,-0.4519,-0.4519,-0.4519,-0.4484,-0.3755,-0.2232,-0.0727,-0.0,-0.0,-0.0,-0.0,-0.0,-0.0,-0.0,-0.0,-0.0,-0.0,-0.0,-0.0,-0.0,-0.027,-0.3234,-0.4797,-0.541,-0.5403,-0.4986,-0.437,0.7855,0.7635,0.7406,0.7399,0.705,0.6791,0.6881,0.6727,0.6734,0.7106,0.7054,0.6899,0.6624,0.6599,0.6599,0.6599,0.6345,0.6093,0.5815,0.5547,0.5397,0.5397,0.5659,0.5815,0.5836,0.5878,0.5465,0.4546,0.4144,0.3726,0.3293,0.3359,0.3543,0.3836,0.4576,0.504,0.5281,0.5787,0.6083,0.627,0.7036,0.0,0.9242,0.9976,1.1029,1.215,1.2651,1.296,1.3007,1.18,1.1203,0.0,0.0,0.8602,0.8511,0.0,0.7291,0.7605,0.6658,0.6903,0.7224,0.6449,0.0,0.0,0.0,0.0,0.0,0.0,0.0,0.0,0.0,0.0,0.0,0.0,0.0,0.0,0.0,0.0,0.0,0.0,0.0,0.0,0.0,0.0,-0.4511,-0.4512,-0.4522,-0.4525,-0.4525,-0.4525,-0.4473,-0.448,-0.449,-0.4157,-0.3363,-0.112,-0.0,-0.0,-0.0,-0.0,-0.0,-0.0,-0.0,-0.0,-0.0,-0.0,-0.0124,-0.1979,-0.2673,-0.2845,-0.4706,-0.541,-0.5403,-0.5389,-0.5382,-0.5379,0.787,0.7516,0.7191,0.7193,0.6867,0.6599,0.6599,0.6599,0.6799,0.7331,0.7406,0.7269,0.6962,0.6925,0.6962,0.7062,0.6878,0.6629,0.6303,0.6081,0.5948,0.5948,0.5948,0.5966,0.6027,0.5995,0.5539,0.4714,0.4306,0.3893,0.3527,0.3469,0.3515,0.3674,0.4317,0.4838,0.5224,0.0,0.0,0.6107,0.0,0.8093,0.8569,1.0135,1.1126,1.1837,1.2834,1.3198,1.302,1.1791,0.0,1.0943,0.9311,0.894,0.0,0.0,0.0,0.0,0.0,0.0,0.0,0.0,0.0,0.6443,0.0,0.0,0.0,0.5643,0.0,0.0,0.0,0.0,0.0,0.0,0.0,0.0,0.0,0.0,0.0,0.0,0.0,0.0,0.0,0.0,-0.4481,-0.4512,-0.4481,-0.4365,-0.4079,-0.4082,-0.42,-0.4497,-0.4497,-0.4504,-0.4514,-0.1514,-0.0,-0.0,-0.0,-0.0,-0.0,-0.0617,-0.0841,-0.0842,-0.0576,-0.041,-0.065,-0.3554,-0.5014,-0.5413,-0.5418,-0.5399,-0.5389,-0.5379,-0.5369,-0.5428,0.7899,0.7516,0.7209,0.7193,0.6878,0.6599,0.6599,0.6599,0.6799,0.7331,0.7406,0.7568,0.806,0.811,0.8298,0.8773,0.7901,0.7502,0.7976,0.0,0.651,0.651,0.651,0.6522,0.653,0.6296,0.5943,0.548,0.5006,0.4761,0.4696,0.4471,0.4668,0.5241,0.533,0.5729,0.6288,0.0,0.6608,0.0,0.7993,0.7792,0.0,0.8821,1.012,1.1446,1.2734,1.3198,1.3116,0.0,1.2057,1.1522,0.0,0.9839,0.9258,0.0,0.0,0.0,0.0,0.0,0.0,0.0,0.6743,0.0,0.0,0.0,0.5643,0.5316,0.0,0.0,0.0,0.0,0.0,0.0,0.0,0.0,0.0,0.0,0.0,0.0,0.0,0.0,0.0,0.0,0.0,-0.4519,-0.4523,-0.3896,-0.2558,-0.2454,-0.3074,-0.4438,-0.4507,-0.4511,-0.4514,-0.1514,-0.0,-0.0,-0.0,-0.0,-0.0112,-0.2751,-0.3999,-0.3884,-0.2527,-0.1941,-0.1995,-0.2364,-0.3689,-0.5399,-0.5397,-0.5382,-0.5379,-0.5369,-0.5428,-0.5428,0.7899,0.7516,0.7195,0.7195,0.6865,0.6599,0.6599,0.6599,0.6687,0.6912,0.8051,0.8703,0.8349,0.8863,0.0,0.0,0.0,0.8205,0.0,0.0,0.6937,0.6611,0.6599,0.6517,0.6371,0.6254,0.607,0.5774,0.5179,0.4905,0.4886,0.4618,0.4648,0.4943,0.5622,0.0,0.6117,0.0,0.6566,0.0,0.0,0.0,0.0,0.9319,1.0922,1.2037,1.2598,1.2791,1.2672,0.0,1.1528,0.0,0.0,0.0,0.0,0.0,0.0,0.0,0.0,0.0,0.0,0.0,0.0,0.0,0.0,0.0,0.547,0.0,0.0,0.0,0.0,0.0,0.0,0.0,0.0,0.0,0.0,0.0,0.0,0.0,0.0,0.0,0.0,0.0,0.0,0.0,0.0,-0.4217,-0.3582,-0.1897,-0.1203,-0.1846,-0.3599,-0.3658,-0.1906,-0.0617,-0.0,-0.0,-0.0,-0.0,-0.0112,-0.3147,-0.4514,-0.4455,-0.3816,-0.3556,-0.355,-0.3671,-0.4291,-0.5248,-0.525,-0.5294,-0.5376,-0.5432,-0.5428,-0.5428,0.7841,0.7546,0.7303,0.7287,0.6957,0.6688,0.6599,0.6599,0.6812,0.7413,0.865,0.9278,0.8788,0.9705,0.0,0.0,0.9592,0.9265,0.0,0.0,0.7436,0.692,0.6643,0.0,0.0,0.62,0.6082,0.5994,0.537,0.5065,0.5069,0.479,0.4655,0.4702,0.5658,0.612,0.6185,0.0,0.0,0.6885,0.7412,0.7559,0.7704,0.9832,1.1238,1.209,1.2246,1.233,1.2188,1.1536,1.1173,0.0,0.9667,0.0,0.0,0.0,0.0,0.0,0.6582,0.0,0.0,0.0,0.0,0.0,0.0,0.0,0.0,0.0,0.0,0.0,0.0,0.0,0.0,0.3348,0.0,0.0,0.0,0.0,0.0,0.0,0.0,0.0,0.0,0.0,0.0,0.0,0.0,0.0,-0.3242,-0.1169,-0.0,-0.0,-0.2132,-0.2188,-0.0,-0.0,-0.0,-0.0,-0.0,-0.0,-0.0112,-0.2691,-0.4107,-0.4507,-0.4494,-0.4487,-0.4494,-0.4656,-0.4876,-0.5067,-0.5036,-0.5196,-0.5372,-0.5432,-0.5428,-0.5432,0.765,0.7605,0.756,0.7499,0.7215,0.6898,0.6629,0.6599,0.7363,0.0,0.0,0.0,0.0,0.0,0.0,0.0,0.0,1.0922,1.0885,0.0,0.8085,0.7696,0.6734,0.6431,0.0,0.0,0.5998,0.6189,0.5725,0.5472,0.5488,0.5214,0.5088,0.5108,0.5595,0.6271,0.7061,0.707,0.8018,0.9437,0.9092,0.9434,1.0154,0.0,1.0277,1.1132,1.1627,0.0,0.0,1.1799,1.142,0.0,0.0,0.0,0.0,0.0,0.0,0.0,0.0,0.0,0.0,0.5773,0.0,0.0,0.0,0.0,0.4374,0.0,0.0,0.0,0.0,0.4185,0.3807,0.3203,0.2988,0.0,0.0,0.0,0.0,0.0,0.0,0.0,0.0,0.0,0.0,0.0,0.0,0.0,-0.0159,-0.0053,-0.0,-0.0,-0.0112,-0.0112,-0.0,-0.0,-0.0,-0.0,-0.0,-0.0,-0.0056,-0.1563,-0.3074,-0.4497,-0.4473,-0.4519,-0.4519,-0.4522,-0.465,-0.4921,-0.4925,-0.5104,-0.5428,-0.5428,-0.5369,-0.5379,0.7783,0.7665,0.7453,0.0,0.0,0.6718,0.6611,0.7839,0.0,0.0,0.0,0.0,0.0,0.0,1.268,0.0,0.0,1.2266,1.1751,1.0244,0.0,0.0,0.0,0.7287,0.0,0.0,0.6332,0.64,0.5786,0.5505,0.5488,0.5214,0.5108,0.5127,0.5873,0.6537,0.0,0.0,0.0,0.0,0.0,0.9512,1.0293,0.0,0.0,1.1019,1.1207,1.1282,0.0,1.1282,1.1103,1.0784,0.9918,0.9494,0.9141,0.8069,0.7413,0.0,0.0,0.0,0.5814,0.5919,0.0,0.0,0.0,0.0,0.0,0.0,0.0,0.0,0.0,0.4031,0.3634,0.3276,0.2862,0.2445,0.0,0.0,0.0,0.0,0.0,0.0,0.0,0.0,0.0,0.0,0.0,0.0,0.0,-0.0,-0.0,-0.0,-0.0,-0.0,-0.0,-0.0,-0.0,-0.0,-0.0,-0.1065,-0.2977,-0.246,-0.3016,-0.4484,-0.4525,-0.4519,-0.4519,-0.4519,-0.4643,-0.4918,-0.4918,-0.5104,-0.5372,-0.5432,-0.5428,-0.5233,0.7633,0.7484,0.0,0.0,0.0,0.0,0.0,0.0,0.0,0.0,1.0596,0.0,1.1086,0.0,1.3198,0.0,1.3198,1.2822,1.1977,1.1166,0.0,0.935,0.8367,0.0,0.0,0.7206,0.6679,0.6619,0.593,0.5521,0.5356,0.5185,0.5108,0.5146,0.6003,0.6752,0.7367,0.0,0.8802,0.0,0.0,0.9785,0.0,0.0,1.0505,1.0764,0.0,1.0764,1.0784,1.0899,1.0955,1.0749,0.9775,0.9567,0.9442,0.8175,0.7631,0.7358,0.7273,0.6406,0.0,0.0,0.4852,0.0,0.3915,0.0,0.0,0.0,0.0,0.0,0.0,0.3826,0.3454,0.3318,0.2838,0.2395,0.0,0.0,0.0,0.0,0.0,0.0,0.0,0.0,0.2537,0.2942,0.0,0.0,0.0,0.0,-0.0513,-0.1542,-0.1597,-0.1344,-0.0783,-0.0783,-0.0783,-0.0783,-0.0783,-0.179,-0.3649,-0.3244,-0.3574,-0.448,-0.4522,-0.4519,-0.4519,-0.4519,-0.4643,-0.4918,-0.4918,-0.5108,-0.5376,-0.5432,-0.5432,-0.5033,0.0,0.0,0.0,0.0,0.7316,0.0,0.0,0.0,0.9981,0.0,1.2046,1.3361,1.3361,1.3361,1.3361,1.3361,1.3361,0.0,1.1902,1.2053,0.0,0.0,0.8725,0.8377,0.8765,0.7663,0.0,0.6848,0.6122,0.5547,0.5137,0.5117,0.5108,0.5146,0.6016,0.0,0.7745,0.8616,0.9504,1.0283,1.0283,1.0283,1.0283,1.0322,0.0,1.0312,1.0312,1.0332,1.041,1.0811,1.0957,1.086,1.0352,1.0015,0.9586,0.8679,0.8383,0.8167,0.717,0.6646,0.6116,0.5026,0.0,0.0,0.0,0.0,0.3765,0.0,0.0,0.0,0.0,0.0,0.332,0.3285,0.2958,0.2443,0.1683,0.0,0.0,0.0,0.0,0.0,0.0,0.0,0.195,0.2555,0.2667,0.0,0.0,0.0,0.0,-0.4432,-0.4488,-0.3819,-0.2343,-0.2287,-0.2287,-0.2287,-0.2287,-0.2287,-0.2343,-0.3858,-0.448,-0.4477,-0.4522,-0.4519,-0.4519,-0.4519,-0.4643,-0.4918,-0.4918,-0.5044,-0.5309,-0.5365,-0.5376,-0.4919,0.7267,0.6947,0.7307,0.0,0.9215,0.9253,0.0,0.0,0.0,0.0,1.5316,1.5627,1.5627,1.5627,1.5627,1.5627,1.5627,0.0,0.0,0.0,0.0,1.1459,1.0284,0.9746,0.9886,0.8048,0.0,0.7476,0.6009,0.54,0.5605,0.5263,0.5108,0.5137,0.0,0.0,0.7329,0.8513,0.9504,1.0283,1.0283,1.0283,0.0,0.0,1.0852,1.0752,1.0752,1.0957,1.1292,1.14,1.1621,1.1688,1.0561,1.0352,1.0261,0.8798,0.8159,0.7884,0.7973,0.6897,0.5788,0.595,0.4931,0.391,0.0,0.0,0.0,0.0,0.0,0.0,0.0,0.0,0.0,0.3208,0.2912,0.1709,-0.1154,0.0,0.0,0.0,0.0,0.0,0.0,0.0,0.0719,0.1317,0.0,0.0,0.0,0.0,0.0,-0.4488,-0.4483,-0.4327,-0.3925,-0.3925,-0.3925,-0.3925,-0.3925,-0.3919,-0.3913,-0.4311,-0.4473,-0.4522,-0.4519,-0.4519,-0.4519,-0.4519,-0.4643,-0.4918,-0.4864,-0.4212,-0.3551,-0.4909,-0.5396,-0.5272,0.7176,0.0,0.0,1.0973,0.0,0.0,1.0056,0.0,0.0,1.607,1.6522,0.0,1.6522,1.6522,1.6064,1.5017,1.4937,0.0,0.0,0.0,0.0,1.2024,1.1364,1.0864,1.0554,0.9006,0.0,0.7695,0.0,0.5614,0.5488,0.5224,0.5108,0.5137,0.0,0.6666,0.0,0.8646,0.9653,1.0322,1.0488,0.0,0.0,1.1145,1.1377,1.1459,1.1465,1.1523,1.1636,1.1787,1.2021,1.2014,1.0816,1.0606,1.0527,0.9008,0.841,0.8178,0.8132,0.7072,0.6009,0.6,0.5104,0.4175,0.4026,0.4009,0.4043,0.0,0.0,0.0,0.0,0.0,0.0,0.1864,0.074,-0.0521,0.0,0.0,0.0,0.0,0.0,0.0,0.0,0.0,0.0,0.0,0.0,0.0,0.0,0.0,0.0,-0.4251,-0.4299,-0.4423,-0.448,-0.448,-0.448,-0.448,-0.448,-0.4477,-0.4473,-0.4473,-0.4525,-0.4519,-0.4519,-0.4519,-0.4519,-0.4519,-0.4643,-0.488,-0.5024,-0.4584,-0.383,-0.3228,-0.4043,-0.5413,0.0,0.0,0.0,0.0,0.0,0.0,0.0,1.2144,0.0,1.5786,0.0,1.6069,1.6039,1.602,1.5197,1.3065,0.0,1.2881,1.2881,1.2881,1.2656,1.2036,1.2088,1.1836,1.1199,1.0177,0.0,0.0,0.0,0.5988,0.5194,0.5137,0.5108,0.5137,0.0,0.0,0.0,0.8879,0.9842,0.0,1.0745,1.0944,1.1045,1.1494,1.192,1.2217,1.2256,1.2061,1.1841,1.2187,1.2314,1.2129,1.1122,1.0813,1.0517,0.9211,0.8804,0.8646,0.799,0.7289,0.6588,0.5814,0.5113,0.4535,0.4304,0.4224,0.4224,0.4224,0.4123,0.0,0.0,0.0,0.0,0.0573,0.0,0.0,0.0,0.0,0.0,0.0,0.0,0.0,0.0,0.0,0.0,0.0,0.0,0.0,0.0,0.0,0.0,0.0,-0.4117,0.0,-0.4515,0.0,-0.4519,-0.4519,-0.4519,-0.4519,-0.4519,-0.4519,-0.4519,-0.4519,-0.4519,-0.4519,-0.4519,-0.4519,-0.4474,-0.4528,-0.495,-0.5276,-0.5004,-0.1616,-0.2491,-0.5416,0.0,0.0,0.0,0.0,0.0,1.3674,1.5101,1.397,1.314,1.3729,1.3774,0.0,1.3538,1.3515,1.3344,1.2929,1.2881,0.0,0.0,0.0,0.0,1.272,1.2732,1.2684,1.2568,1.1003,0.9725,0.0,0.7178,0.6141,0.5662,0.5276,0.5108,0.5127,0.0,0.0,0.8205,0.8858,0.0,1.0791,1.0847,1.1137,1.1532,1.1921,1.2146,1.2256,1.2645,1.2715,1.2666,1.2744,1.2773,1.2522,1.1208,1.0813,1.0517,0.9211,0.8804,0.8752,0.8646,0.8049,0.7343,0.6583,0.5873,0.5156,0.459,0.4426,0.4426,0.4426,0.4406,0.4146,0.3428,0.0,0.0,0.0,0.0,0.0,0.0,0.0,0.0,0.0,0.0,0.0,0.0,0.0,0.0,0.0,0.0,0.0,0.0,0.0,0.0,0.0,0.0,0.0,0.0,0.0,0.0,-0.4519,-0.4519,-0.4519,-0.4519,-0.4519,-0.4519,-0.4519,-0.4519,-0.4519,-0.4519,-0.4519,-0.3768,-0.272,-0.3603,-0.4515,-0.5161,-0.3025,-0.3569,-0.5373,0.0,0.0,0.0,0.0,0.0,0.0,0.0,1.4433,0.0,1.3053,1.3048,1.3021,1.2928,1.2881,1.2881,1.2881,1.2881,1.2881,1.2881,1.2881,1.2881,1.2881,1.2881,0.0,1.2881,1.2061,1.1016,0.9664,0.7345,0.5931,0.5427,0.5202,0.5108,0.5146,0.0,0.7305,0.0,0.0,0.0,1.0952,1.1402,1.1701,1.195,1.2397,1.257,1.2557,1.2397,1.2346,1.2344,1.2344,1.2344,1.2089,1.072,1.0261,1.0064,0.9106,0.8804,0.8804,0.8804,0.8268,0.7616,0.7235,0.6303,0.5433,0.5109,0.4732,0.4519,0.4519,0.4522,0.4371,0.3856,0.1728,0.0,0.0,0.0,0.0,0.0,0.0,0.0,0.0,0.0,0.0,0.0,0.0,0.0,0.0,0.0,0.0,0.0,0.0,0.0,0.0,0.0,0.0,0.0,0.0,0.0,-0.4519,-0.4519,-0.4519,-0.4519,-0.4519,-0.4519,-0.4519,-0.4519,-0.4519,-0.4529,-0.464,-0.4252,-0.365,-0.3275,-0.4033,-0.5212,-0.336,-0.3837,-0.542,0.0,1.273,0.0,0.0,1.3586,0.0,0.0,1.4892,1.3658,1.3658,1.32,1.2881,1.2881,1.2881,1.2881,1.2881,1.2881,1.2881,1.2881,1.2881,1.2881,1.2881,1.2881,1.2881,1.2881,1.2881,1.2141,0.0,0.0,0.6118,0.5098,0.5242,0.5378,0.0,0.0,0.0,0.0,0.0,1.0713,1.124,1.1935,1.224,1.2378,1.2763,1.2881,1.2813,1.2076,1.1822,1.1787,1.1458,1.1466,1.1366,1.0167,0.9814,0.9666,0.9008,0.8804,0.8804,0.8804,0.8374,0.7889,0.7723,0.6848,0.5869,0.5592,0.5109,0.468,0.4515,0.4525,0.4491,0.452,0.2301,0.0,0.0,0.0,0.0,0.0,0.0,0.0,0.0,0.0,0.0,0.0,0.0,0.0,0.0,0.0,0.0,-0.2097,-0.2661,0.0,0.0,0.0,0.0,-0.4412,0.0,-0.4519,0.0,-0.4519,-0.4519,-0.4519,-0.4519,-0.4519,-0.4519,-0.4519,-0.4519,-0.4543,-0.4743,-0.4877,-0.4969,-0.3738,-0.4167,-0.5199,-0.3832,-0.4172,-0.5406,0.0,0.0,0.0,0.0,0.0,0.0,0.0,1.6293,1.6151,1.6151,1.4247,1.2881,1.2881,1.2881,1.2881,1.2881,1.2881,1.2881,1.2881,1.2881,1.2881,1.2881,1.2881,1.2881,1.2881,1.2881,1.2416,0.0,0.0,0.7475,0.5108,0.5659,0.6284,0.0,0.0,0.0,0.0,1.0488,1.1338,1.2073,1.2187,1.2451,1.2861,1.2861,1.2881,1.2822,1.207,1.1791,1.163,1.0383,1.0415,1.0771,1.0012,0.9814,0.9666,0.9008,0.8804,0.8804,0.8804,0.8752,0.8533,0.7883,0.761,0.7122,0.5814,0.5433,0.5218,0.4625,0.4519,0.4477,0.4499,0.3148,0.157,0.0,0.0,0.0,0.0,0.0,0.0,0.0,0.0,0.0,0.0,0.0,0.0,0.0,0.0,0.0,0.0,-0.2507,0.0,-0.3563,0.0,-0.405,-0.4214,-0.4399,0.0,-0.4519,-0.4519,-0.4519,-0.4519,-0.4519,-0.4519,-0.4519,-0.4519,-0.4519,-0.4543,-0.4743,-0.4819,-0.4917,-0.5068,-0.5269,-0.5369,-0.5192,-0.5269,-0.5373,0.0,0.0,0.0,0.0,0.0,0.0,0.0,1.434,1.434,1.434,1.3478,1.2881,1.2881,1.2881,1.2881,1.2881,1.2881,1.2881,1.2881,1.2881,1.2881,1.2881,1.2881,1.2881,1.2881,1.2881,1.2745,0.0,0.0,0.8727,0.6664,0.6385,0.0,0.0,0.0,0.9862,1.0459,1.1285,1.1859,1.2209,1.252,1.2725,1.2881,1.2881,1.2881,1.2764,1.1621,1.1213,1.0997,0.9636,0.9644,1.0077,0.9406,0.9211,0.9159,0.8857,0.8804,0.8804,0.8804,0.8804,0.8752,0.8427,0.8049,0.7563,0.6956,0.614,0.5433,0.5164,0.4787,0.4501,0.4508,0.3983,0.2812,0.0,0.0,0.0,0.0,0.0,0.0,0.0,0.0,0.0,0.0,0.0,0.0,0.0,0.0,0.0,0.0,0.0,0.0,-0.3576,0.0,-0.4043,-0.4194,-0.4392,-0.4519,-0.4519,-0.4519,-0.4519,-0.4519,-0.4519,-0.4519,-0.4519,-0.4519,-0.4518,-0.4508,-0.4723,-0.4173,-0.3303,-0.3631,-0.4442,-0.5413,-0.5403,-0.541,-0.5426,1.6522,0.0,1.6293,0.0,1.4025,1.2881,1.2881,1.2881,1.2881,1.2881,1.2881,1.2881,1.2881,1.2881,1.2881,1.2881,1.2881,1.2881,1.2881,1.2881,1.2881,1.2881,1.2881,0.0,1.2881,1.2881,1.2881,1.2881,1.165,0.0,0.8444,0.0,0.0,0.0,1.0175,1.0819,1.1341,1.209,1.2422,1.2451,1.2754,1.2881,1.2881,1.2881,1.2774,1.2403,1.1215,1.0664,1.0346,0.9183,0.9086,0.9422,0.8949,0.8804,0.8804,0.8804,0.8804,0.8804,0.8804,0.8804,0.8804,0.8804,0.8427,0.7943,0.7723,0.674,0.5706,0.5273,0.4842,0.4519,0.4473,0.4511,0.3638,0.1042,0.0,0.0,0.0,0.0,0.0,0.0,-0.3402,-0.3216,0.0,0.0,0.0,0.0,0.0,0.0,0.0,0.0,0.0,0.0,0.0,0.0,0.0,-0.4392,-0.4519,-0.4519,-0.4519,-0.4519,-0.4519,-0.4519,-0.4519,-0.4522,-0.4522,-0.4502,-0.4484,-0.4636,-0.3955,-0.2842,-0.2186,-0.2681,-0.3971,-0.5001,-0.5416,-0.5218,1.6522,1.6522,1.5744,1.3344,1.2929,1.2881,1.2881,1.2881,1.2881,1.2881,1.2881,1.2881,1.2881,1.2881,1.2881,1.2881,1.2881,1.2881,1.2881,1.2881,1.2881,0.0,0.0,1.2881,1.2881,1.2881,1.2881,1.2881,0.0,0.0,1.0254,0.0,1.0555,1.1056,1.1067,1.1521,1.2217,1.2684,1.2871,1.2871,1.2881,1.2881,1.2881,1.2881,1.2452,1.1715,1.1065,1.0386,0.9708,0.902,0.8811,0.8804,0.8804,0.8804,0.8804,0.8804,0.8804,0.8804,0.8804,0.8804,0.8804,0.8804,0.8804,0.8593,0.7883,0.7128,0.6209,0.4791,0.4519,0.4519,0.4519,0.448,0.3993,0.2452,0.0,0.0,0.0,0.0,0.0,0.0,-0.331,-0.3181,-0.3375,0.0,0.0,0.0,0.0,0.0,0.0,0.0,0.0,-0.3954,-0.4151,0.0,-0.4197,-0.4392,-0.4519,-0.4519,-0.4519,-0.4519,-0.4519,-0.4519,-0.4525,-0.448,-0.448,-0.4512,-0.4497,-0.4527,-0.4484,-0.4159,-0.1194,-0.0067,-0.0472,-0.4048,-0.5426,-0.4895,1.6522,1.6522,1.5744,1.3344,1.2881,1.2881,1.2881,1.2881,1.2881,1.2881,1.2881,1.2881,1.2881,1.2881,1.2881,0.0,1.2881,1.2881,0.0,1.2881,1.2881,1.2881,1.2881,1.2881,1.2881,1.2881,1.2881,1.2881,0.0,0.0,0.0,1.1095,1.1223,1.2347,1.2347,1.2444,1.2675,1.2851,1.2881,1.2881,1.2881,1.2881,1.2881,1.2881,1.2452,1.1706,1.1056,1.0388,0.9708,0.902,0.8804,0.8804,0.8804,0.8804,0.8804,0.8804,0.8804,0.8804,0.8804,0.8804,0.8804,0.8804,0.8804,0.8752,0.848,0.7509,0.6209,0.4791,0.4519,0.4519,0.4473,0.4487,0.4311,0.3822,0.0,0.0,0.0,0.0,0.0,0.0,0.0,-0.3453,0.0,-0.3408,0.0,0.0,0.0,0.0,0.0,0.0,0.0,0.0,-0.4253,0.0,-0.4197,-0.4392,-0.4519,-0.4519,-0.4519,-0.4519,-0.4519,-0.4519,-0.4525,-0.4484,-0.4475,-0.4607,-0.477,-0.4793,-0.343,-0.1325,-0.0401,-0.0,-0.0135,-0.128,-0.1752,-0.1552,1.6522,1.5788,1.4652,1.3152,1.2881,1.2881,1.2881,1.2881,1.2881,1.2881,1.2881,1.2881,1.2881,1.2881,0.0,1.2881,1.2881,0.0,1.2881,1.2881,1.2881,1.2881,1.2881,1.2881,1.2881,0.0,0.0,1.236,1.2224,1.185,1.1342,1.1532,1.2048,1.2881,1.2881,1.2881,1.2881,1.2881,1.2881,1.2881,1.2881,1.2881,1.2881,1.2881,1.2288,1.1384,1.0931,1.0234,0.9372,0.8935,0.8804,0.8804,0.8804,0.8804,0.8804,0.8804,0.8804,0.8804,0.8804,0.8804,0.8804,0.8804,0.8593,0.8262,0.7711,0.6848,0.5878,0.4736,0.4519,0.4522,0.4477,0.403,0.3814,0.4396,0.0,-0.027,0.0,0.0,0.0,0.0,0.0,0.0,0.0,-0.3715,0.0,0.0,0.0,0.0,0.0,0.0,0.0,-0.4431,-0.4374,0.0,-0.4328,-0.4419,-0.4519,-0.4519,-0.4519,-0.4519,-0.4519,-0.4519,-0.4556,-0.4572,-0.4192,-0.4034,-0.4145,-0.481,-0.3868,-0.1878,-0.0536,-0.0,-0.0,-0.0,-0.0,-0.0,1.625,1.4433,0.0,0.0,1.2881,0.0,1.2881,1.2881,1.2881,1.2881,1.2881,1.2881,1.2881,1.2881,1.2881,1.2881,0.0,0.0,0.0,1.2881,1.2881,1.2881,1.2881,0.0,1.2881,1.2049,1.1628,1.1598,1.0956,1.0115,0.9113,1.151,1.2725,1.2881,1.2832,1.2832,1.2881,1.2881,1.2881,1.2881,1.2881,1.2881,1.2881,1.2822,1.199,1.081,1.0722,0.9909,0.8804,0.8804,0.8804,0.8804,0.8804,0.8804,0.8804,0.8804,0.8804,0.8804,0.8804,0.8804,0.8804,0.8752,0.8156,0.723,0.5814,0.5487,0.5328,0.4625,0.4519,0.4522,0.4477,0.3239,0.2627,0.3996,0.1853,-0.0,-0.0,0.0,0.0,0.0,0.0,0.0,0.0,-0.3944,-0.3933,0.0,0.0,0.0,0.0,0.0,-0.3008,-0.447,-0.4508,-0.4519,-0.4519,-0.4519,-0.4519,-0.4519,-0.4519,-0.4519,-0.4519,-0.4519,-0.4611,-0.4766,-0.382,-0.3222,-0.3015,-0.4714,-0.5408,-0.5068,-0.1675,-0.0403,-0.0337,-0.0067,-0.0135,-0.0404,0.0,0.0,1.2881,1.2881,1.2881,1.2881,1.2881,1.2881,1.2881,1.2881,1.2881,1.2881,1.2881,1.2881,1.2881,1.2881,1.2881,1.2881,1.2881,1.2881,1.2881,1.2881,1.2881,1.2881,1.2881,1.2666,1.2578,1.2548,1.0336,1.0182,1.1909,1.0438,1.0897,1.2881,1.2157,1.2206,1.2881,1.2881,1.2881,1.2881,1.2881,1.2881,1.2822,1.2295,1.1545,1.0748,1.0221,0.9489,0.8804,0.8804,0.8804,0.8804,0.8804,0.8804,0.8804,0.8804,0.8804,0.8804,0.8804,0.8804,0.8646,0.8103,0.7396,0.6637,0.5706,0.5487,0.5328,0.4625,0.4519,0.4525,0.4487,0.3244,0.1953,0.1176,0.049,-0.0,-0.0,-0.1449,0.0,0.0,-0.3952,-0.3965,-0.3965,-0.4053,-0.4104,0.0,0.0,0.0,0.0,0.0,-0.4148,-0.4481,-0.4515,-0.4477,-0.4477,-0.4484,-0.4487,-0.4487,-0.4487,-0.4484,-0.4477,-0.4477,-0.4618,-0.4776,-0.4707,-0.4729,-0.4769,-0.5212,-0.5425,-0.5329,-0.4425,-0.4102,-0.3794,-0.1012,-0.1745,-0.4154,1.2881,1.2881,1.2881,1.2881,1.2881,1.2881,1.2881,1.2881,1.2881,1.2881,1.2881,1.2881,1.2881,1.2881,1.2881,1.2881,1.2881,1.2881,1.2881,1.2881,1.2881,1.2881,1.2881,1.2881,1.2881,1.2881,1.2264,1.1049,0.9517,1.0233,1.2832,1.0079,0.9569,1.1049,1.1334,1.1792,1.2304,1.2725,1.2988,1.3164,1.3164,1.3072,1.2855,1.2479,1.1661,1.0716,1.0332,0.9777,0.9228,0.9228,0.9109,0.899,0.899,0.8923,0.8804,0.8804,0.8804,0.8705,0.8387,0.8281,0.8055,0.6956,0.6416,0.5928,0.5218,0.5058,0.4948,0.457,0.4519,0.4525,0.4494,0.3244,0.1721,0.022,-0.0,-0.0,-0.0,-0.1257,0.0,-0.4022,-0.4134,-0.4151,-0.4216,-0.4297,-0.4337,-0.4335,0.0,0.0,-0.3242,-0.405,-0.4476,-0.4483,-0.4498,-0.4138,-0.3463,-0.3466,-0.3469,-0.3469,-0.3469,-0.3577,-0.3852,-0.4307,-0.4599,-0.4869,-0.4955,-0.5178,-0.5387,-0.5404,-0.5376,-0.5379,-0.5432,-0.5379,-0.5132,-0.3224,-0.3685,-0.5428,1.2881,1.2881,1.2881,1.2881,1.2881,1.2881,1.2881,1.2881,1.2881,1.2881,1.3105,1.3262,1.3262,1.3262,1.3262,1.3262,1.3027,1.2881,1.2881,1.2881,1.2881,1.2881,1.2881,1.2881,1.2881,1.2881,1.176,0.942,0.9015,0.9984,1.2215,0.9873,0.8858,0.8985,1.0629,1.1395,1.1599,1.2501,1.3121,1.3388,1.3388,1.319,1.2878,1.2654,1.1772,1.0693,1.0616,1.0178,0.9691,0.9691,0.9507,0.9255,0.9255,0.9072,0.8864,0.8864,0.8765,0.8493,0.7895,0.7515,0.7079,0.5814,0.5433,0.5218,0.4625,0.4519,0.4519,0.4519,0.4519,0.4525,0.4494,0.3416,0.1989,0.0268,-0.0,-0.0158,-0.0608,0.0,-0.2773,-0.4306,-0.433,-0.4328,-0.4505,-0.4519,-0.4522,-0.4477,-0.448,0.0,0.0,-0.4271,-0.4268,-0.4497,-0.449,-0.3635,-0.1898,-0.1842,-0.1842,-0.1842,-0.1842,-0.2119,-0.2617,-0.3934,-0.4663,-0.486,-0.4942,-0.5108,-0.5428,-0.5428,-0.5428,-0.5428,-0.5428,-0.5428,-0.5428,-0.5428,-0.5428,-0.5428,1.2881,1.2881,1.2881,1.2881,1.2881,1.2881,1.2881,1.2881,1.2881,1.2881,1.4131,1.5019,1.5019,1.5019,1.5019,1.5019,1.3711,1.2881,1.2881,1.2881,1.2881,1.2881,1.2881,1.2881,1.2881,1.2881,1.2676,1.2264,0.9925,0.9008,0.942,0.9015,0.9072,0.959,1.0195,1.0918,1.1729,1.2572,1.2941,1.2996,1.2996,1.296,1.2768,1.1543,1.0872,1.0653,1.0079,0.9794,0.9729,0.9729,0.9661,0.9593,0.9593,0.9407,0.9109,0.9109,0.8532,0.783,0.7735,0.6796,0.5779,0.5575,0.505,0.4625,0.4515,0.4519,0.4519,0.4519,0.4525,0.448,0.4494,0.4278,0.3222,0.0428,-0.0,-0.0894,-0.3419,0.0,-0.2792,-0.4306,-0.4469,-0.4491,-0.4515,-0.4519,-0.4522,-0.4477,-0.448,-0.4484,-0.4497,-0.3246,-0.3135,-0.4452,-0.4507,-0.3144,-0.0392,-0.0336,-0.0336,-0.0336,-0.0336,-0.0391,-0.0559,-0.3517,-0.4838,-0.4816,-0.4988,-0.5199,-0.5428,-0.5428,-0.5428,-0.5428,-0.5428,-0.5428,-0.5428,-0.5428,-0.5428,-0.5428,1.4248,1.4248,1.4248,1.4248,1.4248,1.4248,1.4248,1.4248,1.4248,1.4248,1.4932,1.541,1.541,1.541,1.541,1.541,1.4697,1.4248,1.4248,1.3389,1.2881,1.2881,1.2881,1.2881,1.2881,1.2881,1.2166,1.0685,0.942,0.8804,0.8804,0.8804,0.8951,0.9225,0.984,1.0387,1.0849,1.1848,1.2419,1.2623,1.2623,1.2505,1.2254,1.1554,1.1015,1.0601,1.0296,1.0184,1.0199,1.0199,1.0059,0.9914,0.9914,0.97,0.9382,0.8934,0.7996,0.7009,0.6642,0.5756,0.4988,0.4937,0.4728,0.4519,0.4519,0.4519,0.4519,0.4519,0.4525,0.4255,0.3413,0.3934,0.3506,0.0482,-0.0,0.0,0.0,-0.3868,-0.3718,-0.4429,-0.4484,-0.4519,-0.4525,-0.4525,-0.4477,-0.4487,-0.3747,-0.3638,-0.4448,-0.3819,-0.3766,-0.4465,-0.2923,-0.1401,-0.0,-0.0,-0.0,-0.0,-0.0,-0.0,-0.0057,-0.1573,-0.3255,-0.4991,-0.5051,-0.5223,-0.5428,-0.5428,-0.5428,-0.5428,-0.5428,-0.5428,-0.5428,-0.5428,-0.5428,-0.5428,1.541,1.541,1.541,1.541,1.541,1.541,1.541,1.541,1.541,1.541,1.541,1.541,1.541,1.541,1.541,1.541,1.541,1.541,1.541,1.4189,1.3467,1.3467,1.3467,1.3467,1.3467,1.3467,1.2452,1.0331,0.959,0.9218,0.9218,0.9218,0.9218,0.9239,0.9746,1.0027,1.0221,1.1259,1.1802,1.2012,1.219,1.2101,1.1772,1.1586,1.117,1.0624,1.0624,1.0624,1.0624,1.0624,1.0415,1.0199,1.0199,0.9998,0.9643,0.8722,0.7507,0.6277,0.5686,0.5022,0.4519,0.4519,0.4519,0.4519,0.4519,0.4519,0.4519,0.4519,0.4473,0.403,0.251,0.2914,0.272,0.0375,0.0,0.0,0.0,-0.4069,-0.4494,-0.448,-0.4525,-0.4525,-0.448,-0.4193,-0.4089,-0.4501,-0.3416,-0.3251,-0.4458,-0.3828,-0.3434,-0.3442,-0.1234,-0.0,-0.0,-0.0,-0.0,-0.0,-0.0,-0.0,-0.0,-0.0,-0.1404,-0.3985,-0.4794,-0.5264,-0.5432,-0.5428,-0.5428,-0.5428,-0.5428,-0.5428,-0.5428,-0.5428,-0.5428,-0.5428,1.541,1.541,1.541,1.541,1.541,1.541,1.541,1.541,1.541,1.541,1.541,1.541,1.541,1.541,1.541,1.541,1.541,1.541,1.541,1.5293,1.5225,1.5225,1.5225,1.5225,1.5225,1.5225,1.5109,1.4926,1.1936,1.0497,1.0497,1.0497,1.0497,1.0477,1.0114,1.0241,1.064,1.1465,1.1348,1.0773,1.1556,1.1811,1.171,1.0982,1.0618,1.0624,1.0624,1.0624,1.0624,1.0624,1.0561,1.0555,1.0555,1.0325,0.9882,0.9046,0.7367,0.5806,0.5567,0.4984,0.4519,0.4519,0.4519,0.4519,0.4519,0.4519,0.4519,0.4519,0.448,0.4036,0.2512,0.1174,0.0277,0.0054,0.0,0.0,-0.032,-0.2737,-0.4494,-0.448,-0.448,-0.4477,-0.448,-0.3183,-0.2963,-0.4396,-0.4396,-0.4402,-0.4472,-0.1853,-0.0336,-0.0336,-0.0112,-0.0,-0.0,-0.0,-0.0,-0.0,-0.0,-0.0,-0.0,-0.0,-0.0125,-0.0579,-0.3901,-0.5369,-0.5376,-0.5432,-0.5428,-0.5428,-0.5428,-0.5428,-0.5428,-0.5428,-0.5428,-0.5428,1.541,1.541,1.541,1.541,1.541,1.541,1.541,1.541,1.541,1.541,1.541,1.541,1.541,1.541,1.4628,1.2626,1.4255,1.541,1.541,1.541,1.541,1.541,1.541,1.541,1.541,1.541,1.541,1.541,1.4204,1.2565,1.0624,1.0624,1.0624,1.0618,1.0463,1.0483,1.0624,1.0926,1.0863,1.0624,1.0926,1.1045,1.1045,1.0744,1.0624,1.0624,1.0624,1.0624,1.0624,1.0624,1.0624,1.0485,0.9983,0.9705,0.9301,0.7792,0.6404,0.5286,0.5054,0.4783,0.4519,0.4519,0.4519,0.4519,0.4519,0.4519,0.4519,0.4525,0.4487,0.4327,0.3761,0.1624,-0.0,-0.0,0.0,-0.0,-0.0,-0.0997,-0.2402,-0.4262,-0.449,-0.4494,-0.4501,-0.399,-0.3086,-0.1794,-0.1682,-0.1682,-0.1685,-0.0617,-0.0,-0.0,-0.0,-0.0,-0.0,-0.0,-0.0,-0.0,-0.0,-0.0,-0.0,-0.0,-0.0,-0.0066,-0.1466,-0.3349,-0.5379,-0.5382,-0.5376,-0.5428,-0.5428,-0.5428,-0.5428,-0.5428,-0.5428,-0.5428,1.541,1.541,1.541,1.541,1.541,1.541,1.541,1.541,1.541,1.541,1.541,1.541,1.541,1.541,1.4076,1.087,1.2626,1.4323,1.5352,1.541,1.541,1.541,1.541,1.541,1.541,1.541,1.541,1.541,1.541,1.3777,1.0624,1.0624,1.0624,1.0624,1.0624,1.0624,1.0624,1.0624,1.0624,1.0624,1.0624,1.0624,1.0624,1.0624,1.0624,1.0624,1.0624,1.0624,1.0624,1.0624,1.0434,1.011,0.9488,0.8896,0.8249,0.6885,0.5858,0.5068,0.4857,0.4735,0.4582,0.4543,0.4519,0.4519,0.4519,0.4522,0.4525,0.4477,0.449,0.4504,0.4511,0.2018,-0.0,-0.0,-0.0,-0.0,-0.0,-0.0,-0.0781,-0.2854,-0.3928,-0.4504,-0.4514,-0.3658,-0.2244,-0.0168,-0.0,-0.0,-0.0,-0.0,-0.0,-0.0,-0.0,-0.0,-0.0,-0.0,-0.0,-0.0,-0.0,-0.0,-0.0,-0.0,-0.0,-0.0,-0.0,-0.1405,-0.382,-0.4913,-0.5382,-0.5428,-0.5428,-0.5428,-0.5428,-0.5428,-0.5428,-0.5428,1.541,1.541,1.541,1.541,1.541,1.541,1.541,1.541,1.541,1.541,1.5352,1.5352,1.5352,1.5352,1.4076,1.087,1.0624,1.1965,1.5167,1.541,1.541,1.541,1.541,1.541,1.541,1.541,1.541,1.541,1.541,1.3777,1.0624,1.0624,1.0624,1.0624,1.0624,1.0624,1.0624,1.0624,1.0624,1.0624,1.0624,1.0624,1.0624,1.0624,1.0624,1.0624,1.0624,1.0624,1.0624,1.0561,0.9996,0.9309,0.9279,0.8113,0.6672,0.6672,0.5911,0.5087,0.5087,0.5014,0.485,0.4541,0.4519,0.4519,0.4519,0.4525,0.448,0.448,0.4497,0.4514,0.4458,0.202,-0.0,-0.0,-0.0,-0.0,-0.0,-0.0,-0.0,-0.0,-0.2635,-0.4458,-0.4458,-0.1738,-0.0,-0.0,-0.0,-0.0,-0.0,-0.0,-0.0,-0.0,-0.0,-0.0,-0.0,-0.0,-0.0,-0.0,-0.0,-0.0,-0.0,-0.0,-0.0,-0.0,-0.0,-0.0,-0.0268,-0.3897,-0.5382,-0.5428,-0.5428,-0.5428,-0.5428,-0.5428,-0.5428,-0.5428,1.541,1.541,1.541,1.541,1.541,1.541,1.541,1.541,1.541,1.541,1.3408,1.202,1.202,1.202,1.1655,1.0681,1.0624,1.1965,1.5167,1.541,1.541,1.541,1.541,1.541,1.541,1.541,1.541,1.541,1.541,1.3777,1.0624,1.0624,1.0624,1.0624,1.0624,1.0624,1.0624,1.0624,1.0624,1.0624,1.0624,1.0624,1.0624,1.0624,1.0624,1.0624,1.0624,1.0624,1.0498,0.9919,0.9536,0.9075,0.7872,0.6724,0.5771,0.5771,0.5564,0.5292,0.5156,0.5091,0.5001,0.4724,0.4623,0.4596,0.4543,0.4525,0.4196,0.3125,0.3761,0.3828,0.1738,0.0617,-0.0,-0.0,-0.0,-0.0,-0.0,-0.0,-0.0,-0.0,-0.0784,-0.1345,-0.1345,-0.0505,-0.0,-0.0,-0.0,-0.0,-0.0,-0.0,-0.0,-0.0,-0.0,-0.0,-0.0,-0.0,-0.0,-0.0,-0.0,-0.0,-0.0,-0.0,-0.0,-0.0,-0.0,-0.0,-0.0067,-0.1142,-0.3086,-0.5428,-0.5428,-0.5428,-0.5428,-0.5428,-0.5428,-0.5428,1.541,1.541,1.541,1.541,1.541,1.541,1.541,1.541,1.541,1.541,1.2626,1.0624,1.0624,1.0624,1.0624,1.0624,1.0624,1.1965,1.5167,1.541,1.541,1.541,1.4195,1.3476,1.3476,1.3476,1.3476,1.3476,1.3476,1.2504,1.0624,1.0624,1.0624,1.0624,1.0624,1.0624,1.0624,1.0624,1.0624,1.0624,1.0624,1.0624,1.0624,1.0624,1.0624,1.0555,1.0238,1.011,0.9983,0.9069,0.8549,0.8021,0.6633,0.5796,0.5428,0.5428,0.5428,0.5362,0.5226,0.5223,0.516,0.4895,0.4803,0.4758,0.4667,0.4552,0.4229,0.3313,0.2886,0.2188,0.0336,-0.0,-0.0,-0.0,-0.0,-0.0,-0.0,-0.0,-0.0,-0.0,-0.0,-0.0,-0.0,-0.0,-0.0,-0.0,-0.0,-0.0,-0.0,-0.0,-0.0,-0.0,-0.0,-0.0,-0.0,-0.0,-0.0,-0.0,-0.0,-0.0,-0.0,-0.0,-0.0,-0.0,-0.0,-0.0,-0.0,-0.0,-0.1276,-0.3284,-0.3284,-0.4154,-0.5428,-0.5428,-0.5428,-0.5428,1.541,1.541,1.541,1.541,1.541,1.541,1.541,1.541,1.541,1.541,1.2626,1.0624,1.0624,1.0624,1.0624,1.0624,1.0624,1.1965,1.5167,1.5108,1.4991,1.4991,1.2143,1.0624,1.0624,1.0624,1.0624,1.0624,1.0624,1.0624,1.0624,1.0624,1.0624,1.0624,1.0624,1.0624,1.0631,1.0739,1.0719,1.0624,1.0624,1.0624,1.0631,1.0678,1.0698,1.0571,0.9637,0.9309,0.9168,0.8231,0.7307,0.6461,0.562,0.5428,0.5428,0.5428,0.5428,0.5428,0.5428,0.5428,0.5359,0.5156,0.5028,0.4897,0.4816,0.4531,0.4324,0.45,0.2072,-0.0,-0.0,-0.0,-0.0,-0.0,-0.0,-0.0,-0.0,-0.0,-0.0,-0.0,-0.0,-0.0,-0.0,-0.0,-0.0,-0.0,-0.0,-0.0,-0.0,-0.0,-0.0,-0.0,-0.0,-0.0,-0.0,-0.0,-0.0,-0.0,-0.0,-0.0,-0.0,-0.0,-0.0,-0.0,-0.0,-0.0,-0.0,-0.0,-0.0,-0.0,-0.0,-0.2214,-0.5369,-0.5432,-0.5428,-0.5428,1.541,1.541,1.541,1.541,1.541,1.541,1.541,1.541,1.541,1.541,1.2626,1.0624,1.0624,1.0624,1.0624,1.0624,1.0624,1.1965,1.5167,1.3053,1.1655,1.1655,1.0989,1.0624,1.0624,1.0624,1.0624,1.0624,1.0624,1.0624,1.0624,1.0624,1.0624,1.0624,1.0624,1.0624,1.0685,1.1536,1.1396,1.0624,1.0624,1.0624,1.0672,1.1062,1.1236,1.1068,0.9977,0.9639,0.9334,0.7559,0.64,0.562,0.5491,0.5428,0.5428,0.5428,0.5428,0.5428,0.5428,0.5428,0.5362,0.5359,0.5325,0.523,0.4865,0.3737,0.3028,0.4281,0.2109,-0.0,-0.0,-0.0,-0.0,-0.0,-0.0,-0.0,-0.0,-0.0,-0.0,-0.0,-0.0,-0.0,-0.0,-0.0,-0.0,-0.0,-0.0,-0.0,-0.0,-0.0,-0.0,-0.0,-0.0,-0.0,-0.0,-0.0,-0.0,-0.0,-0.0,-0.0,-0.0,-0.0,-0.0,-0.0,-0.0,-0.0,-0.0,-0.0,-0.0,-0.0,-0.0,-0.2225,-0.5426,-0.5396,-0.5376,-0.5428,1.541,1.541,1.541,1.541,1.541,1.541,1.541,1.4076,1.3114,1.3114,1.1655,1.0624,1.0624,1.0624,1.0624,1.0624,1.0624,1.1296,1.2992,1.1531,1.0624,1.0624,1.0624,1.0624,1.0624,1.0624,1.0624,1.0624,1.0624,1.0624,1.0624,1.0624,1.0624,1.0651,1.1142,1.1082,1.0698,1.1804,1.1951,1.139,1.139,1.139,1.1403,1.1523,1.1563,1.1322,0.9765,0.8548,0.7632,0.6473,0.5749,0.5428,0.5428,0.5428,0.5428,0.5428,0.5428,0.5428,0.5428,0.5428,0.5428,0.5428,0.5369,0.5338,0.5125,0.4399,0.3456,0.2535,0.1096,-0.0,-0.0,-0.0,-0.0,-0.0,-0.0,-0.0,-0.0,-0.0,-0.0,-0.0,-0.0,-0.0,-0.0,-0.0,-0.0,-0.0,-0.0,-0.0,-0.0,-0.0,-0.0,-0.0,-0.0,-0.0,-0.0,-0.0,-0.0728,-0.2132,-0.2132,-0.2324,-0.2532,-0.0784,-0.0,-0.0,-0.0,-0.0,-0.0,-0.0,-0.0,-0.0,-0.0,-0.1146,-0.3042,-0.4739,-0.5396,-0.5428,1.541,1.541,1.541,1.541,1.541,1.541,1.541,1.3114,1.1413,1.1413,1.1413,1.1413,1.1413,1.0926,1.0807,1.1351,1.112,1.0855,1.0855,1.0739,1.0665,1.0701,1.0675,1.0675,1.0708,1.0708,1.0661,1.0624,1.0624,1.0725,1.0855,1.0855,1.0855,1.0902,1.187,1.1764,1.0922,1.1891,1.2305,1.2305,1.2305,1.2305,1.2265,1.1937,1.1817,1.1571,0.9574,0.7522,0.5661,0.5494,0.547,0.5428,0.5428,0.5428,0.5428,0.5428,0.5428,0.5428,0.5428,0.5428,0.5428,0.5428,0.5428,0.5369,0.5389,0.5176,0.3973,0.0711,-0.0,-0.0,-0.0,-0.0,-0.0,-0.0,-0.0,-0.0,-0.0,-0.0,-0.0,-0.0,-0.0,-0.0,-0.0,-0.0,-0.0,-0.0,-0.0,-0.0,-0.0,-0.0,-0.0,-0.0,-0.0,-0.0,-0.0,-0.0505,-0.202,-0.4514,-0.4538,-0.4817,-0.5221,-0.2246,-0.0565,-0.0,-0.0,-0.0,-0.0,-0.0,-0.0,-0.0,-0.0,-0.0,-0.0337,-0.3383,-0.4864,-0.5376,1.541,1.541,1.541,1.541,1.541,1.541,1.541,1.505,1.4746,1.4746,1.4746,1.4746,1.4746,1.2266,1.1717,1.4501,1.3132,1.2064,1.2064,1.1122,1.0782,1.1283,1.1149,1.1136,1.1309,1.1309,1.1062,1.0624,1.0624,1.1076,1.2064,1.2064,1.2064,1.2071,1.2231,1.2211,1.2078,1.2238,1.2305,1.2305,1.2305,1.2305,1.2291,1.2245,1.2225,1.2025,1.0366,0.8079,0.5779,0.5749,0.5572,0.5428,0.5428,0.5428,0.5428,0.5428,0.5428,0.5428,0.5428,0.5428,0.5428,0.5428,0.5428,0.5369,0.5389,0.422,0.2451,0.0454,-0.0,-0.0,-0.0,-0.0,-0.0,-0.0,-0.0,-0.0,-0.0,-0.0,-0.0,-0.0,-0.0,-0.0,-0.0,-0.0,-0.0,-0.0,-0.0,-0.0,-0.0,-0.0,-0.0,-0.0,-0.0,-0.0,-0.0,-0.2581,-0.4113,-0.4514,-0.4687,-0.4838,-0.4958,-0.4761,-0.2965,-0.0,-0.0,-0.0,-0.0,-0.0,-0.0,-0.0,-0.0,-0.0,-0.0067,-0.0539,-0.2701,-0.543,1.541,1.541,1.541,1.541,1.541,1.541,1.541,1.541,1.541,1.541,1.541,1.541,1.541,1.4998,1.5334,1.6728,1.4088,1.2305,1.2305,1.1817,1.1503,1.143,1.145,1.1496,1.159,1.1804,1.179,1.153,1.153,1.1797,1.2305,1.2305,1.2305,1.2305,1.2305,1.2305,1.2305,1.2305,1.2305,1.2305,1.2305,1.2305,1.2305,1.2305,1.1922,1.1298,1.0035,0.8096,0.6057,0.6057,0.5973,0.5878,0.5535,0.542,0.5471,0.5452,0.5428,0.5428,0.5428,0.5428,0.5432,0.5376,0.5372,0.5369,0.5399,0.4033,0.2203,0.0398,-0.0,-0.0,-0.0,-0.0,-0.0,-0.0,-0.0,-0.0,-0.0,-0.0,-0.0,-0.0,-0.0,-0.0,-0.0,-0.0,-0.0,-0.0,-0.0,-0.0,-0.0,-0.0,-0.0,-0.0,-0.0,-0.0784,-0.2469,-0.3828,-0.4507,-0.4497,-0.4848,-0.4998,-0.5009,-0.5158,-0.44,-0.3015,-0.3015,-0.1879,-0.0,-0.0,-0.1214,-0.3042,-0.3023,-0.3015,-0.3015,-0.3015,-0.403,-0.5396]},{"header":{"parameterUnit":"m.s-1","parameterCategory":1,"la1":30.6,"la2":28.766,"lo1":-90.7593,"lo2":-88.6598,"dy":0.0162,"dx":0.0183,"nx":116,"ny":114,"refTime":"2024-06-06T06:00:00:Z","depth":0,"parameterNumber":3,"parameterNumberName":"V-component_of_WINDS"},"data":[0.0,0.0,0.0,0.0,0.0,0.0,0.0,0.0,0.0,0.0,0.0,0.0,0.0,0.0,0.0,0.0,0.0,0.0,0.0,0.0,0.0,0.0,0.0,0.0,0.0,0.0,0.0,0.0,0.0,0.0,0.0,0.0,0.0,0.0,0.0,0.0,0.0,0.0,0.0,0.0,0.0,0.0,0.0,0.0,0.0,0.0,0.0,0.0,0.0,0.0,0.0,0.0,0.0,0.0,0.0,0.0,0.0,0.0,0.0,0.0,0.0,0.0,0.0,0.0,0.0,0.0,0.0,0.0,0.0,0.0,0.0,0.0,0.0,0.0,0.0,0.0,0.0,0.0,0.0,0.0,0.0,0.0,0.0,0.0,0.0,0.0,0.0,0.0,0.0,0.0,0.0,0.0,0.0,0.0,0.0,0.0,0.0,0.0,0.0,0.0,0.0,0.0,0.0,0.0,0.0,0.0,0.0,0.0,0.0,0.0,0.0,0.0,0.0,0.0,0.0,0.0,0.0,0.0,0.0,0.0,0.0,0.0,0.0,0.0,0.0,0.0,0.0,0.0,0.0,0.0,0.0,0.0,0.0,0.0,0.0,0.0,0.0,0.0,0.0,0.0,0.0,0.0,0.0,0.0,0.0,0.0,0.0,0.0,0.0,0.0,0.0,0.0,0.0,0.0,0.0,0.0,0.0,0.0,0.0,0.0,0.0,0.0,0.0,0.0,0.0,0.0,0.0,0.0,0.0,0.0,0.0,0.0,0.0,0.0,0.0,0.0,0.0,0.0,0.0,0.0,0.0,0.0,0.0,0.0,0.0,0.0,0.0,0.0,0.0,0.0,0.0,0.0,0.0,0.0,0.0,0.0,0.0,0.0,0.0,0.0,0.0,0.0,0.0,0.0,0.0,0.0,0.0,0.0,0.0,0.0,0.0,0.0,0.0,0.0,0.0,0.0,0.0,0.0,0.0,0.0,0.0,0.0,0.0,0.0,0.0,0.0,0.0,0.0,0.0,0.0,0.0,0.0,0.0,0.0,0.0,0.0,0.0,0.0,0.0,0.0,0.0,0.0,0.0,0.0,0.0,0.0,0.0,0.0,0.0,0.0,0.0,0.0,0.0,0.0,0.0,0.0,0.0,0.0,0.0,0.0,0.0,0.0,0.0,0.0,0.0,0.0,0.0,0.0,0.0,0.0,0.0,0.0,0.0,0.0,0.0,0.0,0.0,0.0,0.0,0.0,0.0,0.0,0.0,0.0,0.0,0.0,0.0,0.0,0.0,0.0,0.0,0.0,0.0,0.0,0.0,0.0,0.0,0.0,0.0,0.0,0.0,0.0,0.0,0.0,0.0,0.0,0.0,0.0,0.0,0.0,0.0,0.0,0.0,0.0,0.0,0.0,0.0,0.0,0.0,0.0,0.0,0.0,0.0,0.0,0.0,0.0,0.0,0.0,0.0,0.0,0.0,0.0,0.0,0.0,0.0,0.0,0.0,0.0,0.0,0.0,0.0,0.0,0.0,0.0,0.0,0.0,0.0,0.0,0.0,0.0,0.0,0.0,0.0,0.0,0.0,0.0,0.0,0.0,0.0,0.0,0.0,0.0,0.0,0.0,0.0,0.0,0.0,0.0,0.0,0.0,0.0,0.0,0.0,0.0,0.0,0.0,0.0,0.0,0.0,0.0,0.0,0.0,0.0,0.0,0.0,0.0,0.0,0.0,0.0,0.0,0.0,0.0,0.0,0.0,0.0,0.0,0.0,0.0,0.0,0.0,0.0,0.0,0.0,0.0,0.0,0.0,0.0,0.0,0.0,0.0,0.0,0.0,0.0,0.0,0.0,0.0,0.0,0.0,0.0,0.0,0.0,0.0,0.0,0.0,0.0,0.0,0.0,0.0,0.0,0.0,0.0,0.0,0.0,0.0,0.0,0.0,0.0,0.0,0.0,0.0,0.0,0.0,0.0,0.0,0.0,0.0,0.0,0.0,0.0,0.0,0.0,0.0,0.0,0.0,0.0,0.0,0.0,0.0,0.0,0.0,0.0,0.0,0.0,0.0,0.0,0.0,0.0,0.0,0.0,0.0,0.0,0.0,0.0,0.0,0.0,0.0,0.0,0.0,0.0,0.0,0.0,0.0,0.0,0.0,0.0,0.0,0.0,0.0,0.0,0.0,0.0,0.0,0.0,0.0,0.0,0.0,0.0,0.0,0.0,0.0,0.0,0.0,0.0,0.0,0.0,0.0,0.0,0.0,0.0,0.0,0.0,0.0,0.0,0.0,0.0,0.0,0.0,0.0,0.0,0.0,0.0,0.0,0.0,0.0,0.0,0.0,0.0,0.0,0.0,0.0,0.0,0.0,0.0,0.0,0.0,0.0,0.0,0.0,0.0,0.0,0.0,0.0,0.0,0.0,0.0,0.0,0.0,0.0,0.0,0.0,0.0,0.0,0.0,0.0,0.0,0.0,0.0,0.0,0.0,0.0,0.0,0.0,0.0,0.0,0.0,0.0,0.0,0.0,0.0,0.0,0.0,0.0,0.0,0.0,0.0,0.0,0.0,0.0,0.0,0.0,0.0,0.0,0.0,0.0,0.0,0.0,0.0,0.0,0.0,0.0,0.0,0.0,0.0,0.0,0.0,0.0,0.0,0.0,0.0,0.0,0.0,0.0,0.0,0.0,0.0,0.0,0.0,0.0,0.0,0.0,0.0,0.0,0.0,0.0,0.0,0.0,0.0,0.0,0.0,0.0,0.0,0.0,0.0,0.0,0.0,0.0,0.0,0.0,0.0,0.0,0.0,0.0,0.0,0.0,0.0,0.0,0.0,0.0,0.0,0.0,0.0,0.0,0.0,0.0,0.0,0.0,0.0,0.0,0.0,0.0,0.0,0.0,0.0,0.0,0.0,0.0,0.0,0.0,0.0,0.0,0.0,0.0,0.0,0.0,0.0,0.0,0.0,0.0,0.0,0.0,0.0,0.0,0.0,0.0,0.0,0.0,0.0,0.0,0.0,0.0,0.0,0.0,0.0,0.0,0.0,0.0,0.0,0.0,0.0,0.0,0.0,0.0,0.0,0.0,0.0,0.0,0.0,0.0,0.0,0.0,0.0,0.0,0.0,0.0,0.0,0.0,0.0,0.0,0.0,0.0,0.0,0.0,0.0,0.0,0.0,0.0,0.0,0.0,0.0,0.0,0.0,0.0,0.0,0.0,0.0,0.0,0.0,0.0,0.0,0.0,0.0,0.0,0.0,0.0,0.0,0.0,0.0,0.0,0.0,0.0,0.0,0.0,0.0,0.0,0.0,0.0,0.0,0.0,0.0,0.0,0.0,0.0,0.0,0.0,0.0,0.0,0.0,0.0,0.0,0.0,0.0,0.0,0.0,0.0,0.0,0.0,0.0,0.0,0.0,0.0,0.0,0.0,0.0,0.0,0.0,0.0,0.0,0.0,0.0,0.0,0.0,0.0,0.0,0.0,0.0,0.0,0.0,0.0,0.0,0.0,0.0,0.0,0.0,0.0,0.0,0.0,0.0,0.0,0.0,0.0,0.0,0.0,0.0,0.0,0.0,0.0,0.0,0.0,0.0,0.0,0.0,0.0,0.0,0.0,0.0,0.0,0.0,0.0,0.0,0.0,0.0,0.0,0.0,0.0,0.0,0.0,0.0,0.0,0.0,0.0,0.0,0.0,0.0,0.0,0.0,0.0,0.0,0.0,0.0,0.0,0.0,0.0,0.0,0.0,0.0,0.0,0.0,0.0,0.0,0.0,0.0,0.0,0.0,0.0,0.0,0.0,0.0,0.0,0.0,0.0,0.0,0.0,0.0,0.0,0.0,0.0,0.0,0.0,0.0,0.0,0.0,0.0,0.0,0.0,0.0,0.0,0.0,0.0,0.0,0.0,0.0,0.0,0.0,0.0,0.0,0.0,0.0,0.0,0.0,0.0,0.0,0.0,0.0,0.0,0.0,0.0,0.0,0.0,0.0,0.0,0.0,0.0,0.0,0.0,0.0,0.0,0.0,0.0,0.0,0.0,0.0,0.0,0.0,0.0,0.0,0.0,0.0,0.0,0.0,0.0,0.0,0.0,0.0,0.0,0.0,0.0,0.0,0.0,0.0,0.0,0.0,0.0,0.0,0.0,0.0,0.0,0.0,0.0,0.0,0.0,0.0,0.0,0.0,0.0,0.0,0.0,0.0,0.0,0.0,0.0,0.0,0.0,0.0,0.0,0.0,0.0,0.0,0.0,0.0,0.0,0.0,0.0,0.0,0.0,0.0,0.0,0.0,0.0,0.0,0.0,0.0,0.0,0.0,0.0,0.0,0.0,0.0,0.0,0.0,0.0,0.0,0.0,0.0,0.0,0.0,0.0,0.0,0.0,0.0,0.0,0.0,0.0,0.0,0.0,0.0,0.0,0.0,0.0,0.0,0.0,0.0,0.0,0.0,0.0,0.0,0.0,0.0,0.0,0.0,0.0,0.0,0.0,0.0,0.0,0.0,0.0,0.0,0.0,0.0,0.0,0.0,0.0,0.0,0.0,0.0,0.0,0.0,0.0,0.0,0.0,0.0,0.0,0.0,0.0,0.0,0.0,0.0,0.0,0.0,0.0,0.0,0.0,0.0,0.0,0.0,0.0,0.0,0.0,0.0,0.0,0.0,0.0,0.0,0.0,0.0,0.0,0.0,0.0,0.0,0.0,0.0,0.0,0.0,0.0,0.0,0.0,0.0,0.0,0.0,0.0,0.0,0.0,0.0,0.0,0.0,0.0,0.0,0.0,0.0,0.0,0.0,0.0,0.0,0.0,0.0,0.0,0.0,0.0,0.0,0.0,0.0,0.0,0.0,0.0,0.0,0.0,0.0,0.0,0.0,0.0,0.0,0.0,0.0,0.0,0.0,0.0,0.0,0.0,0.0,0.0,0.0,0.0,0.0,0.0,0.0,0.0,0.0,0.0,0.0,0.0,0.0,0.0,0.0,0.0,0.0,0.0,0.0,0.0,0.0,0.0,0.0,0.0,0.0,0.0,0.0,0.0,0.0,0.0,0.0,0.0,0.0,0.0,0.0,0.0,0.0,0.0,0.0,0.0,0.0,0.0,0.0,0.0,0.0,0.0,0.0,0.0,0.0,0.0,0.0,0.0,0.0,0.0,0.0,0.0,0.0,0.0,0.0,0.0,0.0,0.0,0.0,0.0,0.0,0.0,0.0,0.0,0.0,0.0,0.0,0.0,0.0,0.0,0.0,0.0,0.0,0.0,0.0,0.0,0.0,0.0,0.0,0.0,0.0,0.0,0.0,0.0,0.0,0.0,0.0,0.0,0.0,0.0,0.0,0.0,0.0,0.0,0.0,0.0,0.0,0.0,0.0,0.0,0.0,0.0,0.0,0.0,0.0,0.0,0.0,0.0,0.0,0.0,0.0,0.0,0.0,0.0,0.0,0.0,0.0,0.0,0.0,0.0,0.0,0.0,0.0,0.0,0.0,0.0,0.0,0.0,0.0,0.0,0.0,0.0,0.0,0.0,0.0,0.0,0.0,0.0,0.0,0.0,0.0,0.0,0.0,0.0,0.0,0.0,0.0,0.0,0.0,0.0,0.0,0.0,0.0,0.0,0.0,0.0,0.0,0.0,0.0,0.0,0.0,0.0,0.0,0.0,0.0,0.0,0.0,0.0,0.0,0.0,0.0,0.0,0.0,0.0,0.0,0.0,0.0,0.0,0.0,0.0,0.0,0.0,0.0,0.0,0.0,0.0,0.0,0.0,0.0,0.0,0.0,0.0,0.0,0.0,0.0,0.0,0.0,0.0,0.0,0.0,0.0,0.0,0.0,0.0,0.0,0.0,0.0,0.0,0.0,0.0,0.0,0.0,0.0,0.0,0.0,0.0,0.0,0.0,0.0,0.0,0.0,0.0,0.0,0.0,0.0,0.0,0.0,0.0,0.0,0.0,0.0,0.0,0.0,0.0,0.0,0.0,0.0,0.0,0.0,0.0,0.0,0.0,0.0,0.0,0.0,0.0,0.0,0.0,0.0,0.0,0.0,0.0,0.0,0.0,0.0,0.0,0.0,0.0,0.0,0.0,0.0,0.0,0.0,0.0,0.0,0.0,0.0,0.0,-0.9723,0.0,0.0,0.0,0.0,0.0,0.0,0.0,0.0,0.0,0.0,0.0,0.0,0.0,0.0,0.0,0.0,0.0,0.0,0.0,0.0,0.0,0.0,0.0,0.0,0.0193,0.0,0.0,-0.0536,-0.0626,-0.0044,0.0,0.0,0.0,0.0,0.0,0.1516,0.138,0.1307,0.1307,0.1498,0.1613,0.1641,0.1672,0.1394,0.0888,0.0,0.0,0.0,0.0,0.0,0.0,0.0,0.0,0.0,0.0,0.0,0.0,0.0,0.0,0.0,0.0,0.0,0.0,0.0,0.0,0.0,0.0,0.0,0.0,0.0,0.0,0.0,0.0,0.0,0.0,0.0,0.0,0.0,0.0,0.0,0.0,0.0,0.0,0.0,0.0,0.0,0.0,0.0,0.0,0.0,0.0,0.0,0.0,0.0,0.0,0.0,0.0,0.0,0.0,0.0,0.0,0.0,0.0,0.0,0.0,0.0,0.0,0.0,0.0,0.0,0.0,0.0,0.0,0.0,0.0,0.0,-1.1048,0.0,0.0,0.0,0.0,0.0,0.0,0.0,0.0,0.0,0.0,0.0,0.0,0.0,0.0,0.0,0.0,0.0,0.0,0.0,0.0,0.0,0.0662,0.0066,0.0,0.0,0.0,-0.11,-0.1284,-0.0089,0.0,0.0,0.0,0.0,0.1181,0.1794,0.1522,0.1392,0.1419,0.1611,0.1847,0.2089,0.2242,0.1968,0.1347,0.1191,0.0,0.0,0.0,0.0,0.0,0.0,0.0,0.0,0.0,0.0,0.0,0.0,0.0,0.0,0.0,0.0,0.0,0.0,0.0,0.0,0.0,0.0,0.0,0.0,0.0,0.0,0.0,0.0,0.0,0.0,0.0,0.0,0.0,0.0,0.0,0.0,0.0,0.0,0.0,0.0,0.0,0.0,0.0,0.0,0.0,0.0,0.0,0.0,0.0,0.0,0.0,0.0,0.0,0.0,0.0,0.0,0.0,0.0,0.0,0.0,0.0,0.0,0.0,0.0,0.0,-1.4158,-1.3633,-1.269,-1.1564,-1.315,-1.2958,-1.1502,0.0,0.0,0.0,0.0,0.0,0.0,0.0,0.0,0.0,0.0,0.0,0.0,0.0,0.0,0.0,0.0,0.0,0.0,0.0,0.0,0.0662,0.0066,0.0,0.0,0.0,-0.11,-0.1284,-0.0089,0.0,0.0,0.0,0.1128,0.1187,0.1792,0.1761,0.1787,0.1899,0.205,0.2235,0.2454,0.2917,0.3138,0.3129,0.237,0.2441,0.3118,0.0,0.0,0.0,0.0,0.0,0.0,0.0,0.0,0.0,0.0,0.0,0.0,0.0,0.0,0.0,0.0,0.0,0.0,0.0,0.0,0.0,0.0,0.0,0.0,0.0,0.0,0.0,0.0,0.0,0.0,0.0,0.0,0.0,0.0,0.0,0.0,0.0,0.0,0.0,0.0,0.0,-0.3061,-0.3403,0.0,0.0,0.0,0.0,0.0,0.0,0.0,0.0,0.0,0.0,0.0,0.0,0.0,0.0,-1.2309,-1.2334,-1.3498,-1.5799,-1.5563,-1.6089,-1.7134,-1.4582,-1.3954,-1.503,-1.6534,0.0,-1.3108,-1.3108,0.0,0.0,0.0,0.0,0.0,0.0,0.0,0.0,0.0,0.0,0.0,0.0,0.0,0.0,0.0,0.0,0.0,0.0,0.0,0.0,0.0,0.0,0.0,0.0,-0.0474,-0.0277,0.0936,0.1008,0.1106,0.1277,0.1366,0.1524,0.1798,0.1872,0.2025,0.2287,0.2411,0.2564,0.2743,0.3406,0.3739,0.3778,0.3748,0.3741,0.3765,0.334,0.0,0.0,0.0,0.0,0.0,0.0,0.0,0.0,0.0,0.0,0.0,0.0,0.0,0.0,0.0,0.0,0.0,0.0,0.0,0.0,0.0,0.0,0.0,0.0,0.0,0.0,0.0,0.0,0.0,0.0,0.0,0.0,0.0,0.0,0.0,0.0,0.0,0.0,0.0,-0.3387,-0.3905,-0.4609,-0.4481,-0.4473,0.0,0.0,0.0,0.0,0.0,0.0,0.0,0.0,0.0,-1.0381,-1.1245,-1.2209,-1.3185,-1.4425,-1.5441,-1.6204,-1.7423,-1.8295,-1.8866,-1.8534,-1.8758,-1.9401,-2.0061,-1.9604,-1.8268,-1.6576,-1.4107,-1.1375,0.0,0.0,0.0,0.0,0.0,-1.2544,0.0,0.0,0.0,0.0,0.0,0.0,0.0,0.0,0.0,0.0,0.0,0.0,0.0,0.0,0.0178,0.0645,0.068,0.096,0.1638,0.176,0.1623,0.1224,0.1587,0.1798,0.1794,0.2011,0.228,0.2541,0.2733,0.2873,0.3025,0.3744,0.4178,0.438,0.5107,0.5035,0.4354,0.395,0.3689,0.3474,0.0,0.0,0.0,0.0,0.0,0.0,0.0,0.0,0.0,0.0,0.0,0.0,0.0,0.0,0.0,0.0,0.0,0.0,0.0,0.0,0.0,0.0,0.0,0.0,0.0,0.0,0.0,0.0,0.0,0.0,0.0,0.0,0.0,0.0,0.0,0.0,0.0,-0.4418,-0.4905,-0.5745,-0.6025,-0.6031,0.0,0.0,0.0,0.0,0.0,0.0,-0.9871,-1.3507,-1.4771,-1.3248,-1.3473,-1.3749,-1.4037,-1.5665,-1.6522,-1.6522,-1.865,-1.969,-1.9747,-2.1023,-2.1886,-2.231,-2.231,-2.231,-2.2073,-1.9046,-1.6509,-1.4466,-1.3884,-1.2782,0.0,-1.1558,-1.3322,-1.6078,0.0,0.0,0.0,0.0,0.0,0.0,0.0,0.0,0.0,0.0,0.0,0.0,0.0,0.0,0.0698,0.2404,0.2558,0.2211,0.1384,0.1622,0.1865,0.2026,0.1895,0.1794,0.1806,0.2235,0.2541,0.2702,0.2957,0.3139,0.3286,0.4033,0.4666,0.5272,0.6398,0.6337,0.5383,0.4804,0.4613,0.4654,0.3787,0.0,0.0,0.0,0.0,0.0,0.0,0.0,0.0,0.0,0.0,0.0,0.0,0.0,0.0,0.0,0.0,0.0,0.0,0.0,0.0,0.0,0.0,0.0,0.0,0.0,0.0,0.0,0.0,0.0,0.0,0.0,0.0,0.0,0.0,0.0,0.0,0.0,0.0,-0.6421,-0.7353,0.0,0.0,0.0,0.0,-0.7326,-0.8999,-1.1308,-1.4399,-1.3386,-1.2865,-1.3198,-1.4249,-1.5291,-1.6346,-1.6459,-1.6522,-1.6522,-1.865,-1.969,-1.969,-1.9782,-2.0731,-2.231,-2.231,-2.231,-2.2073,-1.9046,-1.7726,-1.7667,-1.8587,-1.8852,-1.8779,-1.8779,-1.8889,-1.9069,0.0,0.0,0.0,0.0,0.0,0.0,0.0,0.0,0.0,0.0,0.0,0.0,0.0,0.0,0.0726,0.2553,0.2708,0.2558,0.221,0.2304,0.2244,0.191,0.1834,0.1806,0.1788,0.2354,0.2768,0.3072,0.3175,0.3306,0.3497,0.3777,0.3999,0.4297,0.6153,0.68,0.6473,0.6753,0.6323,0.5459,0.5074,0.4542,0.0,0.0,0.0,0.0,0.0,0.0,0.0,0.0,0.0,0.0,0.0,0.0,0.0,0.0,0.0,0.0,0.0,0.0,0.0,0.0,0.0,0.0,0.0,0.0,0.0,0.0,0.0,0.0,0.0,0.0,0.0,0.0,0.0,0.0,0.0,0.0,0.0,-0.8959,-0.9468,0.0,0.0,-1.0254,-0.9883,-0.9454,-1.2467,-1.4785,-1.5865,-1.5393,-1.4819,-1.4312,-1.5354,-1.612,-1.6522,-1.6522,-1.7188,-1.8574,-1.9332,-1.969,-1.9762,-2.0862,-2.1721,-2.231,-2.231,-2.231,-2.2226,-2.1143,-2.0703,-2.0729,-2.1088,-2.1231,-2.1231,-2.1231,-2.1231,-2.1231,0.0,0.0,0.0,0.0,0.0,0.0,0.0,0.0,0.0,0.0,0.0,0.0,0.0,0.0,0.0743,0.2554,0.2707,0.2693,0.2694,0.27,0.2466,0.1955,0.1938,0.1998,0.2098,0.2565,0.2998,0.3392,0.3402,0.348,0.3581,0.3605,0.3598,0.37,0.5996,0.7014,0.7043,0.7536,0.7447,0.6949,0.6112,0.5564,0.5136,0.0,0.0,0.0,0.0,0.0,0.0,0.0,0.0,0.0,0.0,0.0,0.0,0.0,0.0,0.0,0.0,0.0,0.0,0.0,0.0,0.0,0.0,0.0,0.0,0.0,0.0,0.0,0.0,0.0,0.0,0.0,0.0,0.0,0.0,0.0,-0.918,-1.066,-1.1231,-1.1693,-1.221,-1.3019,-1.3059,-1.2056,-1.4777,-1.6522,-1.6522,-1.6522,-1.6183,-1.5442,-1.6132,-1.6522,-1.6522,-1.7229,-1.8302,-1.969,-1.969,-2.0015,-2.0599,-2.1781,-2.231,-2.231,-2.231,-2.231,-2.231,-2.231,-2.231,-2.231,-2.231,-2.231,-2.231,-2.231,-2.231,-2.231,0.0,0.0,0.0,0.0,0.0,0.0,0.0,0.0,0.0,0.0,0.0,0.0,0.0,0.0,0.0722,0.255,0.2686,0.2683,0.269,0.2668,0.2535,0.2224,0.2237,0.2408,0.2733,0.2907,0.3205,0.3621,0.3604,0.3588,0.3598,0.3592,0.3622,0.3717,0.6028,0.7074,0.7062,0.707,0.7856,0.8973,0.6833,0.6163,0.6357,0.0,0.0,0.0,0.0,0.0,0.0,0.0,0.0,0.0,0.0,0.0,0.0,0.0,0.0,0.0,0.0,0.0,0.0,0.0,0.0,0.0,0.0,0.0,0.0,0.0,0.0,0.0,0.0,0.0,0.0,0.0,0.0,0.0,-0.8484,-1.0109,-1.1308,-1.1343,-1.2467,-1.3073,-1.2743,-1.4365,-1.5264,-1.4991,-1.5919,-1.6522,-1.6522,-1.6522,-1.6522,-1.6522,-1.6522,-1.6522,-1.6522,-1.8612,-1.969,-1.969,-1.9747,-2.0665,-2.231,-2.231,-2.231,-2.231,-2.231,-2.231,-2.231,-2.231,-2.231,-2.231,-2.231,-2.231,-2.231,-2.231,-2.231,-2.231,0.0,0.0,0.0,0.0,0.0,0.0,0.0,0.0,0.0,0.0,0.0,0.0,0.0,0.0,0.0722,0.2556,0.2686,0.2695,0.2687,0.2279,0.2217,0.2557,0.298,0.3277,0.336,0.3413,0.3546,0.3809,0.3806,0.3839,0.38,0.3687,0.3824,0.4367,0.7104,0.8318,0.8303,0.8306,0.8268,0.8202,0.7771,0.7072,0.6323,0.0,0.0,0.0,0.0,0.0,0.0,0.0,0.0,0.0,0.0,0.0,0.0,0.0,0.0,0.0,0.0,0.0,0.0,0.0,0.0,0.0,0.0,0.0,0.0,0.0,0.0,0.0,0.0,0.0,0.0,0.0,0.0,-1.0042,-0.9385,-1.0267,-1.1416,-1.2486,-1.2915,-1.3575,-1.4666,-1.5258,-1.5666,-1.6028,-1.6346,-1.6522,-1.6522,-1.6522,-1.6522,-1.6522,-1.6522,-1.6522,-1.6522,-1.8612,-1.969,-1.9726,-2.0959,-2.1857,-2.231,-2.231,-2.231,-2.231,-2.231,-2.231,-2.231,-2.231,-2.231,-2.231,-2.231,-2.231,-2.231,-2.231,-2.231,-2.231,0.0,0.0,0.0,0.0,0.0,0.0,0.0,0.0,0.0,0.0,0.0,0.0,0.0,0.0688,0.1544,0.2598,0.2691,0.2694,0.2713,0.2612,0.265,0.2859,0.334,0.3582,0.3603,0.3695,0.3757,0.3839,0.3907,0.3983,0.4022,0.3929,0.4394,0.548,0.7759,0.8825,0.8799,0.8791,0.8581,0.829,0.8382,0.791,0.71,0.6612,0.5996,0.5287,0.4624,0.4133,0.369,0.3265,0.0,0.0,0.0,0.0,0.0,0.0,0.0,0.0,0.0,0.0,0.0,0.0,0.0,0.0,0.0,0.0,0.0,0.0,0.0,0.0,0.0,0.0,0.0,0.0,-1.0267,-1.1155,-1.0734,-1.1541,-1.2477,-1.3323,-1.3424,-1.3876,-1.5118,-1.5096,-1.5186,-1.57,-1.6207,-1.6522,-1.6522,-1.6522,-1.6522,-1.6522,-1.6522,-1.6522,-1.6522,-1.8612,-1.969,-1.9711,-2.1462,-2.231,-2.231,-2.231,-2.231,0.0,-2.231,-2.231,-2.231,-2.231,-2.231,0.0,0.0,0.0,0.0,0.0,-2.231,-2.231,0.0,0.0,0.0,0.0,0.0,0.0,0.0,0.0,0.0,0.0,0.0,0.0052,0.0193,0.1627,0.261,0.2641,0.2645,0.2648,0.2694,0.3225,0.3445,0.318,0.3446,0.3625,0.3619,0.3799,0.3859,0.3843,0.3978,0.4106,0.4228,0.4209,0.5052,0.6566,0.8121,0.8824,0.8791,0.882,0.8825,0.879,0.8717,0.8502,0.8099,0.6967,0.6378,0.6022,0.5193,0.4817,0.4678,0.4489,0.0,0.0,0.0,0.0,0.0,0.0,0.0,0.0,0.0,0.0,0.0,0.0,0.0,0.0,0.0,0.0,0.0,0.0,0.0,0.0,0.0,0.0,0.0,0.0,-1.0891,-1.1876,-1.2246,-1.3135,-1.3795,-1.3795,-1.3793,-1.405,-1.4652,-1.4422,-1.4422,-1.488,-1.5876,-1.6522,-1.6522,0.0,0.0,0.0,0.0,-1.6637,-1.6522,-1.8612,-1.969,-1.9711,-2.126,-2.2106,-2.231,-2.231,-2.231,-2.231,-2.231,-2.231,-2.231,-2.231,-2.231,-2.231,-2.231,-2.231,-2.231,-2.231,-2.231,0.0,0.0,0.0,0.0,0.0,0.0,0.0,0.0,0.0,0.0,0.0,0.0,0.0381,0.134,0.1769,0.2075,0.2288,0.2297,0.2411,0.2694,0.3026,0.3301,0.349,0.3581,0.3684,0.3844,0.3811,0.3914,0.411,0.4137,0.4263,0.4433,0.4464,0.5004,0.6124,0.7973,0.8824,0.8804,0.8803,0.8783,0.8756,0.8554,0.8146,0.7664,0.7859,0.7025,0.5782,0.5603,0.4938,0.4199,0.4482,0.4303,0.3953,0.356,0.361,0.0,0.0,0.0,0.0,0.0,0.0,0.0,0.0,0.0,0.0,0.0,0.0,0.0,0.0,0.0,0.0,0.0,0.0,0.0,-1.1028,-1.2075,-1.2721,-1.2733,-1.2936,-1.308,-1.308,-1.3501,-1.405,-1.4652,-1.4937,-1.5389,-1.6107,-1.638,-1.6522,-1.6522,-1.6522,0.0,-1.6522,-1.7353,-1.7394,-1.6522,-1.8612,-1.969,-1.9711,0.0,0.0,-2.231,-2.231,-2.231,-2.231,-2.231,-2.231,-2.231,-2.231,-2.231,-2.231,-2.231,-2.231,-2.231,-2.231,-2.231,-2.231,0.0,0.0,0.0,0.0,0.0,0.0,0.0,0.0,0.0,0.0,0.0,0.0461,0.1668,0.1799,0.1847,0.2001,0.2263,0.2506,0.2685,0.3003,0.3272,0.3425,0.3623,0.3733,0.3835,0.3941,0.4043,0.4197,0.4321,0.4392,0.4519,0.4519,0.4948,0.5751,0.7356,0.8362,0.8798,0.8818,0.8804,0.8791,0.8651,0.8323,0.7936,0.7575,0.6931,0.6118,0.5876,0.5413,0.4954,0.4938,0.4951,0.487,0.4505,0.4043,0.3466,0.0,0.0,0.0,0.0,0.0,0.0,0.0,0.0,0.0,0.0,0.0,0.0,0.0,0.0,-0.6954,0.0,0.0,-1.1033,-1.1792,-1.2487,-1.2939,-1.289,-1.2881,-1.2881,-1.2881,-1.342,-1.405,-1.4652,-1.5073,-1.5623,-1.6436,-1.6522,-1.6522,-1.6522,-1.6993,-1.7312,-1.7312,-1.7827,-1.8106,-1.8106,-1.9169,-1.969,-1.9726,-2.0565,-2.0991,-2.0991,-2.1462,-2.1601,-2.1462,-2.1811,-2.184,-2.1661,-2.1661,-2.1661,-2.1691,-2.1869,-2.2106,-2.231,-2.231,-2.231,-2.231,0.0,0.0,0.0,0.0,0.0,0.0,0.0,0.0,0.0,0.0,0.0,0.0415,0.1506,0.1617,0.1694,0.1834,0.2332,0.2685,0.2733,0.305,0.3281,0.334,0.3649,0.3805,0.3836,0.4056,0.421,0.4237,0.4406,0.4519,0.4519,0.4519,0.4838,0.5542,0.6722,0.7728,0.8611,0.8725,0.8804,0.8804,0.8804,0.8664,0.834,0.7025,0.6464,0.6344,0.5853,0.5572,0.5418,0.5101,0.5141,0.5363,0.5198,0.4423,0.3471,0.2719,0.24,0.0,0.0,0.0,0.0,0.0,0.0,0.0,0.0,0.0,-0.5482,-0.5192,-0.646,-0.8054,-0.928,-1.0596,-1.1692,-1.2239,-1.2646,-1.2881,-1.2881,-1.2881,-1.2881,-1.2881,-1.342,-1.405,-1.4652,-1.5209,-1.58,-1.6436,-1.6522,-1.6522,-1.6522,-1.7312,-1.7787,-1.7787,-1.7987,-1.8535,-1.9479,-1.9639,-1.969,-1.9726,-2.1134,-2.1215,-2.01,-2.0673,-2.0907,-2.0881,-2.1439,-2.1567,-2.1374,-2.1374,-2.1374,-2.1407,-2.1598,-2.195,-2.2336,-2.2304,-2.2237,-2.218,0.0,0.0,0.0,0.0,0.0,0.0,0.0,0.0,0.0,0.0,0.0,0.0247,0.0928,0.1011,0.127,0.1923,0.2308,0.2635,0.2862,0.3018,0.3276,0.3541,0.3707,0.3856,0.3992,0.411,0.4311,0.444,0.4512,0.4519,0.4519,0.4519,0.4838,0.5538,0.6312,0.7139,0.7842,0.854,0.8804,0.8804,0.8804,0.8791,0.8586,0.6898,0.6044,0.5697,0.5086,0.4431,0.3837,0.3794,0.3715,0.3712,0.4299,0.4641,0.4501,0.2944,0.0,0.2941,0.2308,0.1111,0.0,0.0,-0.2009,-0.3676,0.0,0.0,-0.6477,-0.5981,-0.7313,-0.8921,-1.0078,-1.081,-1.1602,-1.2628,-1.2852,-1.2881,-1.2881,-1.2881,-1.2881,-1.2881,-1.342,-1.405,-1.4652,-1.57,-1.638,-1.6479,-1.6522,-1.6522,-1.6522,-1.6595,-1.668,-1.668,-1.7585,-1.8302,-1.8727,-1.9369,-1.969,-1.969,-1.9889,-2.0509,-2.1464,-2.0883,-2.107,-2.1753,-2.1879,-2.2269,-2.2789,-2.2789,-2.2789,-2.2725,-2.2175,-2.2216,-2.2533,-2.2387,-2.2032,-2.1718,0.0,0.0,0.0,0.0,0.0,0.0,0.0,0.0,0.0,0.0,0.0,0.009,0.0359,0.1007,0.1544,0.1859,0.2157,0.2455,0.2757,0.2991,0.3259,0.3565,0.3717,0.3863,0.4016,0.4117,0.4317,0.4519,0.4519,0.4519,0.4519,0.4519,0.4625,0.4948,0.6095,0.675,0.7128,0.8321,0.8804,0.8804,0.8804,0.8645,0.8344,0.7156,0.6236,0.5453,0.444,0.3871,0.0,0.3196,0.3037,0.3017,0.3302,0.3634,0.3757,0.3057,0.2893,0.0,0.2582,0.129,0.0,0.0,-0.2284,-0.4339,-0.3675,-0.5218,-0.6677,-0.6334,-0.7745,-0.932,-0.9945,-1.0887,-1.1731,0.0,-1.2608,-1.2881,-1.2881,-1.2881,-1.2881,-1.2881,-1.342,-1.405,-1.4652,-1.5466,-1.6139,-1.6466,-1.6522,-1.6522,-1.6522,-1.7076,-1.7312,-1.6993,-1.8302,-1.8968,-1.8779,-1.9406,-1.969,-1.969,-1.969,-1.9974,-2.055,-2.1095,-2.1635,-2.2133,-2.1908,-2.1993,-2.2232,-2.2232,-2.2232,-2.224,-2.2175,-2.2303,-2.2439,-2.22,-2.2332,-2.2688,0.0,0.0,0.0,0.0,0.0,0.0,0.0,0.0,0.0,0.0,0.0,0.0,0.0,0.0782,0.1433,0.1775,0.1978,0.2243,0.2598,0.2856,0.3154,0.3503,0.3656,0.3802,0.3955,0.4097,0.4247,0.4402,0.4498,0.4519,0.4519,0.4519,0.4519,0.4574,0.5991,0.6588,0.6696,0.8156,0.8804,0.8798,0.8783,0.8622,0.8273,0.7589,0.6497,0.5214,0.3944,0.3508,0.3371,0.2857,0.2695,0.2689,0.2692,0.2825,0.2948,0.2671,0.265,0.2691,0.2682,0.1388,0.0,0.0,-0.1949,-0.3958,-0.4405,-0.5654,-0.67,-0.6494,-0.7936,-0.9343,-0.9717,-1.061,-1.1366,-1.1765,-1.2236,-1.2666,-1.2881,-1.2881,-1.2881,-1.2881,-1.342,-1.405,-1.4652,-1.5231,-1.5864,-1.6466,-1.6522,-1.6584,-1.6748,-1.7479,-1.7729,-1.7353,-1.8711,-1.9217,-1.8688,-1.9546,-1.9974,-1.9974,-2.0154,-2.0333,-2.0565,-2.1636,-2.2224,-2.2378,-2.2109,-2.2054,-2.2218,-2.2218,-2.2218,-2.2244,-2.2352,-2.2517,-2.263,-2.2332,-2.2749,-2.3536,0.0,0.0,0.0,0.0,0.0,0.0,0.0,0.0,0.0,0.0,0.0,0.0,0.0,0.0022,0.0535,0.1705,0.181,0.1978,0.2378,0.2605,0.2893,0.3296,0.3503,0.3653,0.3795,0.4043,0.4197,0.4204,0.4395,0.4519,0.4519,0.4519,0.4519,0.4574,0.5991,0.6588,0.6696,0.8156,0.8804,0.8784,0.8792,0.8783,0.8735,0.811,0.6699,0.4852,0.3727,0.3207,0.3083,0.2781,0.2693,0.2702,0.2694,0.2719,0.0,0.1608,0.1996,0.2709,0.2718,0.0,0.0,0.0,-0.1155,-0.2643,-0.4144,-0.5584,-0.6617,-0.6573,-0.7765,-0.9001,-0.9666,-0.9814,-1.0269,-1.1566,-1.1814,-1.208,-1.2774,-1.2881,-1.2881,-1.2881,-1.342,-1.405,0.0,-1.5231,-1.5864,-1.6466,-1.6522,-1.676,-1.7325,-1.7395,-1.7395,-1.7395,-1.8414,-1.8659,-1.8145,-1.9812,-2.0677,-2.0692,-2.1335,-2.1964,-2.2619,-2.2649,-2.2679,-2.2694,-2.2679,-2.2981,-2.3535,-2.3535,-2.3535,-2.349,-2.2918,-2.2935,-2.3225,-2.2854,-2.3199,-2.3869,0.0,0.0,0.0,0.0,0.0,0.0,0.0,0.0,0.0,0.0,0.0,0.0,0.0,0.0,0.0,0.0,0.1342,0.1856,0.2006,0.2446,0.2795,0.3008,0.3297,0.354,0.3649,0.3843,0.3995,0.4046,0.4144,0.4168,0.4168,0.4168,0.4371,0.4782,0.5798,0.6399,0.6845,0.8207,0.8798,0.8721,0.7924,0.7176,0.6471,0.6275,0.5391,0.4235,0.0,0.3151,0.3049,0.2787,0.2443,0.2162,0.2572,0.1882,0.0851,0.0521,0.0657,0.0922,0.092,0.0,0.0,0.0,-0.1115,-0.2579,-0.4139,-0.5584,-0.6436,-0.5871,-0.7206,-0.845,-0.8082,-0.8849,-0.9833,-1.0711,-1.1398,-1.2209,-1.3362,-1.3152,-1.321,-1.3978,-1.4294,0.0,0.0,0.0,0.0,-1.6466,-1.6522,-1.6773,-1.735,-1.7766,-1.7933,-1.7915,-1.9353,-1.9838,-1.9293,-2.0688,-2.1365,-2.1365,-2.159,-2.2039,-2.2724,-2.2724,-2.2906,-2.3295,-2.3295,-2.34,-2.3595,-2.3595,-2.3595,-2.358,-2.337,-2.3603,-2.3983,-2.3492,-2.3925,-2.4754,0.0,0.0,0.0,0.0,0.0,0.0,0.0,0.0,0.0,0.0,0.0,0.0,0.0,0.0,0.0,0.0,0.0,0.1341,0.1766,0.2157,0.2522,0.2815,0.2994,0.3166,0.3337,0.348,0.3602,0.37,0.386,0.3938,0.3938,0.3992,0.4317,0.4956,0.5687,0.631,0.6882,0.7902,0.8428,0.835,0.7058,0.5978,0.5134,0.4794,0.42,0.0,0.3086,0.2971,0.2936,0.2765,0.2023,0.1238,0.1613,0.0488,-0.0851,-0.0197,0.0,0.0,0.0,0.0,-0.0255,-0.1339,-0.1925,-0.2623,-0.4147,-0.5354,-0.5951,-0.5405,-0.6634,-0.763,-0.7158,-0.8153,-0.9289,-1.0244,-1.1234,-1.2368,-1.3606,-1.3647,-1.3836,-1.4617,-1.488,0.0,0.0,0.0,0.0,-1.6466,-1.671,-1.7074,-1.7639,-1.8208,-1.849,-1.8493,-1.9723,-2.0224,-1.9901,-2.1122,-2.1939,-2.2383,-2.2383,-2.2592,-2.3011,-2.3011,-2.3221,-2.3595,-2.3595,-2.3595,-2.3595,-2.3595,-2.3595,-2.3595,-2.3595,-2.3794,-2.4074,-2.3724,-2.4158,-2.495,0.0,0.0,0.0,0.0,0.0,0.0,0.0,0.0,0.0,0.0,0.0,0.0,0.0,0.0,0.0,0.0,0.0,0.0,0.1637,0.1778,0.2062,0.2628,0.2555,0.2623,0.2883,0.3032,0.311,0.311,0.3544,0.3758,0.3758,0.3904,0.4266,0.4897,0.562,0.6235,0.6801,0.7333,0.7641,0.7662,0.6252,0.5334,0.4707,0.3959,0.3255,0.2658,0.2663,0.2669,0.2693,0.271,0.1559,0.0126,0.0033,-0.1171,-0.2207,-0.0509,0.0,0.0,0.0,0.0,-0.067,-0.3542,-0.3304,-0.2676,-0.4132,-0.4881,-0.5267,-0.5242,-0.5968,-0.6653,0.0,0.0,-0.882,-1.0206,-1.1426,-1.2583,-1.3752,-1.4376,-1.4698,0.0,0.0,0.0,0.0,0.0,0.0,-1.6609,0.0,-1.7639,-1.8216,-1.8744,-1.8983,-1.9021,-1.962,-1.9934,-1.9998,-2.1182,-2.2411,-2.3638,-2.3595,-2.3595,-2.3638,-2.3595,-2.3595,-2.3595,-2.3595,-2.3595,-2.3595,-2.3595,-2.3595,-2.3595,-2.3595,-2.3595,-2.3595,-2.3595,-2.3921,-2.443,0.0,0.0,0.0,0.0,0.0,0.0,0.0,0.0,0.0,0.0,0.0,0.0,0.0,0.0,0.0,0.0,0.0,0.0,0.0435,0.1311,0.1877,0.2009,0.2325,0.2585,0.2744,0.2941,0.3038,0.3038,0.3152,0.3218,0.3293,0.3331,0.3798,0.4695,0.4853,0.5464,0.6356,0.6653,0.6565,0.6115,0.5449,0.4541,0.3622,0.4317,0.3529,0.2031,0.204,0.2332,0.2704,0.0,0.0,0.0,0.0,-0.0334,-0.0578,0.0,0.0,0.0,0.0,0.0,-0.0164,-0.0944,-0.2565,-0.3944,-0.4069,-0.4748,-0.5162,-0.4603,-0.543,-0.6264,0.0,0.0,0.0,-1.0667,-1.2233,0.0,-1.4971,-1.4869,0.0,-1.5932,0.0,-1.6411,-1.6868,-1.7435,0.0,0.0,-1.7539,-1.7802,-1.8769,-1.8908,-1.9158,-1.9597,-2.0642,-2.1219,-2.1241,-2.2482,-2.3501,-2.4199,-2.3794,-2.3794,-2.4184,-2.3794,-2.3595,-2.3595,-2.3595,-2.3595,-2.3595,-2.3595,-2.3595,-2.3595,-2.3595,-2.3595,-2.3595,-2.3595,-2.3681,-2.3879,0.0,0.0,0.0,0.0,0.0,0.0,0.0,0.0,0.0,0.0,0.0,0.0,0.0,0.0,0.0,0.0,0.0,0.0,0.0,0.0627,0.1258,0.1784,0.2057,0.2283,0.2476,0.2218,0.2066,0.2074,0.2521,0.2759,0.28,0.3004,0.3532,0.4342,0.4448,0.4911,0.5585,0.602,0.5779,0.0,0.0,0.4058,0.3393,0.3334,0.2805,0.2066,0.2166,0.2572,0.0,0.0,0.0,0.2738,0.0661,0.0,0.0,0.0,0.0,-0.0313,-0.1616,-0.1986,-0.1958,-0.1949,-0.3236,-0.4423,-0.4046,-0.4448,-0.4799,-0.4448,-0.5197,0.0,0.0,0.0,0.0,0.0,0.0,0.0,-1.5799,-1.6077,-1.6336,0.0,-1.7049,0.0,-1.7375,-1.789,-1.8304,0.0,-1.8279,-1.838,-1.8945,-1.9246,-1.9497,-1.9798,-2.0769,-2.1582,-2.2146,-2.3318,-2.4116,-2.4389,-2.4074,-2.4116,-2.4389,-2.3837,-2.3595,-2.3595,0.0,-2.3595,-2.3595,-2.3595,-2.3595,-2.3595,-2.3595,-2.3595,-2.3595,-2.3595,-2.3595,-2.3638,0.0,0.0,0.0,0.0,0.0,0.0,0.0,0.0,0.0,0.0,0.0,0.0,0.0,0.0,0.0,0.0,0.0,0.0,0.0,0.0,0.046,0.1511,0.1631,0.1836,0.2146,0.1415,0.0939,0.0779,0.173,0.2243,0.2378,0.2782,0.3319,0.3914,0.4135,0.4386,0.4641,0.5342,0.5079,0.4186,0.3851,0.3664,0.3428,0.0,0.1801,0.2328,0.2342,0.2881,0.0,0.0,0.3658,0.3263,0.0808,0.0,0.0,0.0,-0.0268,-0.1079,-0.3287,-0.4222,-0.4504,-0.4484,-0.4463,-0.4368,-0.4056,-0.4201,-0.4467,-0.4593,0.0,-0.5712,-0.6214,-0.7897,-0.9623,-1.0846,0.0,-1.5362,-1.6355,-1.7423,-1.7907,-1.7353,-1.7948,-1.8197,-1.7702,-1.8181,-1.875,-1.9194,-1.9183,-1.9133,-1.9133,-1.956,-1.9901,-2.0042,-2.0633,-2.1513,-2.2785,-2.3891,-2.4389,-2.4389,-2.4471,-2.4511,-2.4511,-2.3948,-2.3724,-2.3724,0.0,0.0,-2.3595,-2.3595,-2.3595,-2.3595,-2.3595,-2.3595,-2.3595,-2.3595,-2.3595,-2.3595,0.0,0.0,0.0,0.0,0.0,0.0,0.0,0.0,0.0,0.0,-0.1492,-0.1116,0.0,0.0,0.0,0.0,0.0,0.0,0.0,0.0,0.0,0.0296,0.0787,0.1306,0.1861,0.1711,0.1147,0.0151,0.0,0.1526,0.2223,0.2331,0.2705,0.3344,0.346,0.3739,0.4132,0.4282,0.3889,0.318,0.3268,0.2976,0.2441,0.2162,0.0,0.0,0.08,0.0,0.0,0.3606,0.395,0.385,0.0929,0.0,0.0,0.0,-0.1779,-0.3289,-0.1336,-0.2621,-0.4484,-0.4525,-0.4267,-0.415,-0.4286,-0.4521,0.0,0.0,-0.5431,-0.6166,-0.6762,-0.845,-1.0311,-1.2072,0.0,0.0,0.0,0.0,-1.7907,0.0,0.0,0.0,0.0,0.0,0.0,0.0,0.0,0.0,-1.966,-1.9748,-2.0283,-2.1315,-2.1472,-2.2132,-2.3421,-2.4074,-2.4389,-2.4389,-2.4855,-2.5067,-2.5028,-2.4511,-2.4266,-2.4225,0.0,0.0,-2.3595,-2.3595,-2.3595,-2.3595,-2.3595,-2.3595,-2.3595,-2.3595,-2.3595,-2.3681,0.0,0.0,0.0,0.0,0.0,0.0,0.0,-0.1791,-0.179,-0.1796,-0.2079,-0.17,-0.0167,0.0,0.0,0.0,0.0,0.0,0.0,0.0,0.0,0.0,0.0268,0.056,0.0852,0.0,0.0,0.0,0.0,0.0,0.0,0.0,0.0,0.0,0.0,0.0,0.0,0.3147,0.2851,0.0,0.0,0.0,0.0,0.0,0.0,0.0,0.0,0.0,0.0,0.1011,0.1384,0.2156,0.2293,0.1275,0.0,0.0,-0.1048,-0.2181,-0.2286,-0.3956,-0.5534,-0.5289,-0.5198,-0.5145,-0.5056,0.0,0.0,0.0,-0.5605,-0.636,-0.7037,0.0,0.0,0.0,0.0,0.0,0.0,0.0,0.0,0.0,0.0,0.0,0.0,0.0,0.0,0.0,0.0,0.0,-2.0346,-2.062,-2.1232,-2.2193,-2.2193,-2.2786,-2.3991,-2.4552,-2.495,-2.5259,-2.5486,-2.5615,-2.5615,-2.5067,-2.4831,-2.4792,0.0,0.0,-2.443,-2.4116,-2.4032,-2.4032,-2.4032,-2.3837,-2.3595,-2.3595,-2.3752,-2.4032,0.0,0.0,0.0,0.0,0.0,0.0,0.0,-0.17,-0.1661,-0.1783,-0.2201,-0.1869,-0.0181,0.0,0.0,0.0,0.0,0.0,0.0,0.0,0.0,0.0,0.0,0.0,0.0,0.0,0.0,0.0,0.0,0.0,0.0,0.0,0.0,0.0,0.0,0.0,0.0,0.0,0.0,0.0,0.0,0.0,0.0,0.0,0.0,0.0,0.0,0.0,0.0,0.0,-0.1191,-0.0127,0.1773,0.1102,-0.0474,-0.0847,-0.0919,-0.1492,-0.4239,-0.5703,-0.642,-0.6287,-0.623,-0.617,-0.5897,-0.5715,0.0,0.0,-0.5874,-0.6541,-0.7223,0.0,-0.9841,0.0,0.0,0.0,0.0,0.0,0.0,0.0,0.0,0.0,0.0,0.0,0.0,0.0,0.0,0.0,0.0,-2.1424,-2.1993,-2.2694,-2.2815,-2.3362,-2.4389,-2.5067,-2.554,-2.5852,-2.6049,-2.6085,-2.5977,-2.5577,-2.5373,-2.5335,0.0,0.0,0.0,-2.4752,-2.4511,-2.4389,-2.4389,-2.4142,-2.3752,-2.3752,-2.4116,-2.4592,0.0,0.0,0.0,0.0,0.0,0.0,0.0,-0.1326,-0.119,-0.1728,-0.1837,-0.1407,-0.0137,0.0,0.0,0.0,0.0,0.0,0.0,0.0,0.0,0.0,0.0,0.0,0.0,0.0,0.0,0.0,0.0,0.0,0.0,0.0,0.0,0.0,0.0,0.0,0.0,0.0,0.0,0.0,0.0,0.0,0.0,0.0,0.0,0.0,0.0,0.0,0.0,0.0,0.0,-0.2276,-0.3902,-0.3105,-0.1934,-0.3597,0.0,0.0,-0.5941,-0.6192,-0.6168,-0.7063,-0.6875,-0.6479,-0.6489,0.0,0.0,-0.5777,-0.628,-0.6895,-0.7395,-0.8086,-0.9338,-1.1653,0.0,-1.4697,0.0,0.0,0.0,0.0,0.0,0.0,0.0,0.0,0.0,0.0,0.0,0.0,0.0,-2.1649,-2.1993,-2.2694,-2.3172,-2.3719,-2.4389,-2.5411,-2.5689,-2.5297,-2.621,-2.6401,-2.6013,-2.5961,-2.5924,-2.5888,0.0,0.0,0.0,-2.5144,-2.4831,-2.4389,-2.4389,-2.4389,-2.4307,-2.4307,-2.4672,-2.5182,0.0,0.0,0.0,0.0,0.0,0.0,-0.067,-0.052,-0.044,-0.0696,-0.1348,-0.1344,-0.0132,0.0,0.0,0.0,0.0,0.0,0.0,0.0,0.0,0.0,0.0,0.0,0.0,0.0,0.0,0.0,0.0,0.0,0.0,0.0,0.0,0.0,0.0,0.0,0.0,0.0,0.0,0.0,0.0,0.0,0.0,0.0,0.0,0.0,0.0,0.0,0.0,0.0,0.0,0.0,-0.3416,-0.3344,0.0,0.0,-0.5313,-0.5802,-0.653,-0.7175,-0.7609,-0.7591,-0.7461,-0.7301,-0.7233,0.0,-0.5991,-0.584,-0.6054,-0.6508,-0.7338,-0.799,-0.9174,-1.1562,-1.199,-1.3039,-1.5872,0.0,0.0,0.0,0.0,0.0,0.0,0.0,0.0,0.0,0.0,0.0,0.0,-2.2831,-2.3098,-2.3706,-2.3903,-2.448,-2.5335,-2.5779,-2.6033,-2.6123,-2.6505,-2.6624,-2.6401,-2.6401,-2.6401,-2.6401,0.0,0.0,0.0,-2.5799,-2.5577,-2.5373,-2.5373,-2.5182,-2.4855,-2.4855,-2.5221,-2.5689,0.0,0.0,0.0,0.0,0.0,0.0,0.0,0.0,0.0,0.0,-0.0738,-0.094,-0.0102,0.0,0.0,0.0,0.0,0.0,0.0,0.0,0.0,0.0,0.0,0.0,0.0,0.0,0.0,0.0,0.0,0.0,0.0,0.0,0.0,0.0,0.0,0.0,0.0,0.0,0.0,0.0,0.0,0.0,0.0,0.0,0.0,0.0,0.0,0.0,0.0,0.0,0.0,0.0,0.0,0.0,-0.3736,0.0,-0.5644,-0.6283,-0.6795,-0.7616,-0.8305,-0.7992,-0.8035,-0.8066,0.0,-0.697,-0.6281,-0.6019,-0.5863,-0.6137,-0.7281,-0.7868,-0.8944,-1.1245,-1.1374,-1.2197,-1.5142,-1.5871,0.0,0.0,0.0,0.0,0.0,0.0,0.0,0.0,0.0,0.0,0.0,0.0,-2.3991,-2.4389,-2.4712,-2.5259,-2.5997,-2.6156,-2.6367,-2.6691,-2.6691,-2.6691,-2.6691,-2.6691,-2.6691,0.0,0.0,0.0,0.0,-2.6332,-2.612,-2.6013,-2.6013,-2.5779,-2.5449,-2.5449,-2.5762,-2.6227,0.0,0.0,0.0,0.0,0.0,0.0,0.0,0.0,0.0,0.0,-0.0,-0.0025,-0.0,0.0,0.0,0.0,0.0,0.0,0.0,0.0,0.0,0.0,0.0,0.0,0.0,0.0,0.0,0.0,0.0,0.0,0.0,0.0,0.0,0.0,0.0,0.0,0.0,0.0,0.0,0.0,0.0,0.0,0.0,0.0,0.0,0.0,0.0,0.0,0.0,0.0,0.0,0.0,0.0,0.0,-0.352,-0.4661,-0.5067,-0.5425,-0.6883,-0.7296,-0.75,-0.8226,-0.8525,-0.8535,-0.7952,-0.7314,-0.6805,-0.6457,-0.5926,-0.5902,-0.7259,-0.7711,-0.8555,-1.0586,-1.1457,-1.2837,-1.5511,-1.709,0.0,0.0,0.0,0.0,0.0,0.0,0.0,0.0,0.0,0.0,0.0,0.0,-2.4389,-2.4389,-2.5411,-2.5977,-2.6013,-2.647,-2.6691,-2.6691,-2.6691,-2.6691,-2.6691,-2.6691,0.0,0.0,0.0,0.0,0.0,-2.6691,-2.6401,-2.6013,-2.6013,-2.6013,-2.5997,-2.5997,-2.6297,-2.6691,0.0,0.0,0.0,0.0,0.0,0.0,0.0,0.0,0.0,0.0,0.0,0.0,0.0,0.0,0.0,0.0,0.0,0.0,0.0,0.0,0.0,0.0,0.0,0.0,0.0,0.0,0.0,0.0,0.0,0.0,0.0,0.0,0.0,0.0,0.0,0.0,0.0,0.0,0.0,0.0,0.0,0.0,0.0,0.0,0.0,0.0,0.0,0.0,0.0,0.0,0.0,0.0,0.0,0.0,0.0,-0.4359,-0.5236,0.0,-0.6661,-0.7157,-0.7493,-0.7448,-0.7559,-0.7643,-0.7536,-0.6982,-0.6484,-0.6425,-0.5926,-0.5748,-0.6521,-0.7355,-0.8655,-1.1014,-1.2026,-1.3373,0.0,0.0,0.0,0.0,0.0,0.0,0.0,0.0,0.0,0.0,0.0,0.0,0.0,0.0,-2.495,-2.495,-2.5615,-2.6156,-2.647,-2.6624,-2.6691,-2.6691,-2.6691,-2.6691,-2.6691,-2.6691,0.0,0.0,0.0,0.0,0.0,-2.6691,-2.6624,-2.647,-2.647,-2.647,-2.647,-2.647,-2.659,-2.6691,0.0,0.0,0.0,0.0,0.0,0.0,0.0,-0.0382,-0.0515,-0.0067,0.0,0.0,0.0,0.0,0.0,0.0,0.0,0.0,0.0,0.0,0.0,0.0,0.0,0.0,0.0,0.0,0.0,0.0,0.0,0.0,0.0,0.0,-0.0328,0.0,0.0,0.0,0.0,0.0,0.0,0.0,0.0,0.0,0.0,0.0,0.0,0.0,0.0,0.0,0.0,0.0,0.0,0.0,0.0,0.0,0.0,0.0,-0.4919,-0.5767,-0.632,-0.6873,-0.7281,-0.7106,-0.729,-0.7455,-0.7254,-0.6768,-0.6298,-0.6189,-0.5815,-0.5758,-0.6607,-0.7379,-0.8609,-1.0786,-1.1893,0.0,0.0,0.0,0.0,0.0,0.0,0.0,0.0,0.0,0.0,0.0,0.0,0.0,0.0,0.0,-2.5211,-2.5486,-2.5997,-2.6401,-2.6691,-2.6691,-2.6691,-2.6691,-2.6691,-2.6691,-2.6691,0.0,0.0,0.0,0.0,0.0,0.0,-2.6939,-2.6939,-2.6939,-2.6939,-2.6841,-2.6691,-2.6691,-2.6691,-2.6691,0.0,0.0,0.0,0.0,0.0,0.0,0.0,-0.0942,-0.1296,-0.0267,-0.0133,-0.0133,-0.0133,-0.0133,-0.0133,-0.0133,0.0,0.0,0.0,0.0,0.0,0.0,0.0,0.0,-0.0,0.0,0.0,0.0,0.0,0.0,-0.0,-0.0085,-0.0436,-0.0962,-0.0907,0.0,0.0,0.0,0.0,0.0,0.0,0.0,0.0,0.0,0.0,0.0,0.0,0.0,0.0,0.0,0.0,0.0,0.0,0.0,0.0,0.0,0.0,0.0,0.0,-0.6364,-0.673,-0.6988,-0.7424,-0.7635,-0.6959,-0.66,0.0,-0.5881,-0.5664,-0.5922,-0.7237,-0.7711,-0.8502,-1.032,0.0,0.0,0.0,0.0,0.0,0.0,0.0,0.0,0.0,0.0,0.0,0.0,0.0,0.0,0.0,0.0,0.0,-2.6016,-2.642,-2.664,-2.6691,-2.6691,-2.6691,-2.6691,-2.6691,-2.6691,-2.6691,0.0,0.0,0.0,0.0,0.0,0.0,-2.7348,-2.7348,-2.7348,-2.7348,-2.7115,-2.6791,-2.6791,-2.6758,-2.6758,0.0,0.0,0.0,0.0,0.0,0.0,0.0,0.0,0.0,0.0,-0.1388,-0.1388,-0.1388,-0.1388,-0.1388,0.0,0.0,0.0,0.0,0.0,0.0,0.0,0.0,0.0,-0.0022,0.0,0.0,0.0,0.0,0.0,-0.0028,-0.0946,-0.1453,-0.1567,-0.1108,-0.1398,0.0,0.0,0.0,0.0,0.0,0.0,0.0,0.0,0.0,0.0,0.0,0.0,0.0,0.0,0.0,0.0,0.0,0.0,0.0,0.0,-0.3837,-0.4186,-0.4675,0.0,-0.5417,-0.5377,-0.5675,-0.6014,0.0,-0.6155,-0.6152,-0.5866,-0.5795,-0.6107,-0.708,-0.7621,-0.8978,0.0,0.0,0.0,0.0,0.0,0.0,0.0,0.0,0.0,0.0,0.0,0.0,0.0,0.0,0.0,0.0,0.0,0.0,-2.6471,-2.6084,-2.6133,-2.6691,-2.6691,-2.6691,-2.6691,-2.6691,-2.6691,-2.6725,0.0,0.0,0.0,0.0,0.0,-2.7754,-2.7754,-2.7754,-2.7754,-2.7754,-2.7678,-2.7619,-2.7619,-2.7409,-2.7147,0.0,0.0,0.0,0.0,0.0,0.0,0.0,0.0,0.0,0.0,0.0,-0.1806,-0.1806,-0.1799,0.0,0.0,0.0,0.0,0.0,0.0,0.0,0.0,0.0,-0.1502,-0.0847,-0.0289,0.0,0.0,0.0,-0.0434,-0.1261,-0.1907,-0.2058,-0.1775,-0.1457,-0.1677,0.0,0.0,0.0,0.0,0.0,0.0,0.0,0.0,0.0,0.0,0.0,-0.3353,0.0,-0.3444,-0.3472,-0.3472,0.0,0.0,0.0,0.0,-0.3869,-0.4128,-0.4301,-0.5062,-0.5802,-0.5833,-0.6092,-0.6349,-0.6512,-0.6292,-0.6103,-0.6202,0.0,0.0,0.0,0.0,0.0,0.0,0.0,0.0,0.0,0.0,0.0,0.0,0.0,0.0,0.0,0.0,0.0,0.0,0.0,0.0,0.0,0.0,0.0,0.0,-2.5625,-2.5947,-2.6691,-2.6691,-2.6774,-2.6971,-2.6971,-2.7051,-2.7272,0.0,0.0,0.0,0.0,0.0,-2.8129,-2.8129,-2.8129,-2.8129,-2.8129,-2.802,-2.7897,-2.7897,-2.7754,-2.7577,0.0,0.0,0.0,0.0,0.0,0.0,0.0,0.0,0.0,0.0,0.0,0.0,0.0,0.0,0.0,0.0,0.0,0.0,0.0,0.0,0.0,0.0,-0.1901,-0.1794,-0.1794,-0.0801,-0.0286,-0.0271,-0.0359,-0.1127,-0.2478,-0.2486,-0.2257,-0.1844,-0.1858,-0.2008,0.0,0.0,0.0,0.0,0.0,0.0,0.0,0.0,0.0,0.0,0.0,0.0,0.0,-0.3999,-0.3986,-0.3931,-0.3689,0.0,0.0,0.0,0.0,0.0,-0.4623,-0.5799,-0.696,-0.6914,-0.7152,-0.7374,-0.7405,-0.6782,-0.6345,0.0,0.0,0.0,0.0,-1.004,0.0,0.0,0.0,0.0,0.0,0.0,0.0,0.0,0.0,0.0,0.0,0.0,0.0,0.0,0.0,0.0,0.0,0.0,0.0,0.0,-2.5246,-2.5958,-2.6856,-2.6808,-2.6987,-2.7378,-2.7378,-2.756,-2.7897,-2.7992,0.0,0.0,0.0,0.0,-2.8609,-2.8609,-2.8609,-2.8609,-2.8609,-2.8417,-2.8174,-2.8174,-2.8148,-2.8076,0.0,0.0,0.0,0.0,0.0,0.0,0.0,0.0,0.0,0.0,0.0,0.0,0.0,0.0,0.0,0.0,0.0,0.0,0.0,0.0,0.0,-0.3251,-0.2307,-0.1796,-0.1806,-0.161,-0.1522,-0.1513,-0.2021,-0.2022,-0.1508,-0.1507,-0.1703,-0.206,-0.2106,-0.2328,-0.2632,-0.2632,0.0,0.0,0.0,0.0,0.0,0.0,0.0,0.0,0.0,0.0,0.0,-0.4501,-0.4429,-0.4232,-0.4191,0.0,0.0,0.0,0.0,0.0,-0.6099,-0.7301,-0.7871,-0.6445,-0.6656,-0.7282,-0.7444,-0.7541,-0.7617,0.0,0.0,0.0,0.0,0.0,0.0,0.0,0.0,0.0,0.0,0.0,0.0,0.0,0.0,0.0,0.0,0.0,0.0,0.0,0.0,0.0,0.0,0.0,0.0,0.0,0.0,-2.5999,-2.7707,-2.7378,-2.7409,-2.7811,-2.7811,-2.784,-2.7926,-2.8424,-2.8675,0.0,0.0,-2.9439,-2.9495,-2.9495,-2.9495,-2.9495,-2.9495,-2.9476,-2.942,-2.942,-2.9208,-2.8907,0.0,0.0,0.0,0.0,0.0,0.0,0.0,0.0,0.0,0.0,0.0,0.0,0.0,0.0,0.0,0.0,0.0,0.0,0.0,0.0,-0.4065,-0.4358,-0.3584,-0.2874,-0.2307,-0.2581,-0.2722,-0.2711,-0.3004,-0.2993,-0.2751,-0.2559,-0.2509,-0.2539,-0.248,-0.2632,-0.2918,-0.2918,-0.3068,0.0,0.0,0.0,0.0,0.0,0.0,0.0,0.0,0.0,0.0,0.0,-0.5049,-0.4923,-0.4786,0.0,0.0,0.0,0.0,0.0,-0.6136,-0.725,-0.8168,-0.7853,-0.8648,-0.9615,-0.9915,-0.9834,-0.9787,0.0,0.0,0.0,0.0,0.0,0.0,0.0,0.0,0.0,0.0,0.0,0.0,0.0,0.0,0.0,0.0,0.0,0.0,0.0,0.0,0.0,0.0,0.0,0.0,0.0,0.0,0.0,-2.7773,-2.8098,-2.829,-2.8399,-2.8399,-2.8555,-2.8864,-2.9163,-2.9283,-2.9303,0.0,-2.9696,-2.9696,-2.9696,-2.9696,-2.9696,-2.9696,-2.9696,-2.9696,-2.9696,-2.9586,-2.942,0.0,0.0,0.0,0.0,0.0,0.0,0.0,0.0,0.0,0.0,0.0,0.0,0.0,0.0,0.0,0.0,0.0,0.0,0.0,-0.4677,-0.4619,-0.4893,-0.4567,-0.4052,-0.3403,-0.3775,-0.4004,-0.401,-0.4054,-0.4099,-0.4135,-0.366,-0.3283,-0.2982,-0.2845,-0.2875,-0.3025,-0.3132,-0.3266,0.0,0.0,0.0,0.0,0.0,0.0,0.0,0.0,0.0,0.0,0.0,0.0,0.0,0.0,0.0,0.0,-0.5582,-0.5741,-0.5974,-0.6333,-0.7253,-0.8418,-0.9734,-1.0664,-1.1525,-1.2454,-1.2183,-1.1981,0.0,0.0,0.0,0.0,0.0,0.0,0.0,0.0,0.0,0.0,0.0,0.0,0.0,0.0,0.0,0.0,0.0,0.0,0.0,0.0,0.0,0.0,0.0,0.0,0.0,0.0,0.0,-2.8155,-2.8872,-2.915,-2.9015,-2.9015,-2.9263,-2.9696,-2.9765,-2.9763,-2.9763,-2.9832,-2.9864,-2.9864,-2.9864,-2.9864,-2.9864,-2.9864,-2.9864,-2.9864,-2.9883,-2.9883,-2.9883,0.0,0.0,0.0,0.0,0.0,0.0,0.0,0.0,0.0,0.0,0.0,0.0,0.0,0.0,0.0,0.0,0.0,0.0,0.0,-0.4887,-0.4849,-0.4382,-0.4507,-0.4838,-0.5375,-0.5414,-0.5482,-0.554,-0.5723,-0.5377,-0.4549,-0.3692,-0.3303,-0.3256,-0.3134,-0.2939,-0.2762,-0.3266,-0.333,-0.3153,-0.3393,0.0,0.0,0.0,0.0,0.0,0.0,0.0,0.0,0.0,0.0,0.0,0.0,0.0,-0.5863,-0.5863,-0.5881,-0.6215,-0.7658,-0.8253,-0.9025,-1.1422,-1.1282,-1.1217,-1.3763,-1.3823,-1.388,-1.5853,0.0,0.0,0.0,0.0,0.0,0.0,0.0,0.0,0.0,0.0,0.0,0.0,0.0,0.0,0.0,0.0,0.0,0.0,0.0,0.0,0.0,0.0,0.0,0.0,0.0,0.0,-2.9548,-2.9622,-2.966,-2.9642,-2.9642,-2.966,-2.9713,-2.9893,-2.9984,-2.9999,-3.0241,-3.0355,-3.0355,-3.0355,-3.0355,-3.0355,-3.0355,-3.0355,-3.0374,-3.0432,-3.0451,-3.0451,0.0,0.0,0.0,0.0,0.0,0.0,0.0,0.0,0.0,0.0,0.0,0.0,0.0,0.0,0.0,0.0,0.0,0.0,0.0,-0.5039,-0.501,-0.4814,-0.502,-0.5412,-0.595,-0.5402,-0.5119,-0.5133,-0.5378,-0.5229,-0.4711,-0.4395,-0.4132,-0.3916,-0.3864,-0.3688,-0.3444,-0.3486,-0.345,-0.3351,-0.3287,0.0,0.0,0.0,0.0,0.0,0.0,0.0,0.0,0.0,-0.6395,-0.6343,-0.6343,-0.6343,-0.6343,-0.6343,-0.6343,-0.6498,-0.7203,-0.845,-0.9863,-1.1095,-1.2129,-1.3355,0.0,-1.5798,-1.6347,-1.78,-1.8074,0.0,0.0,0.0,0.0,0.0,0.0,0.0,0.0,0.0,0.0,0.0,0.0,0.0,0.0,0.0,0.0,0.0,0.0,0.0,0.0,0.0,0.0,0.0,0.0,0.0,0.0,-2.9341,-2.9655,-3.0185,-3.0076,-3.0057,-3.0142,-3.0305,-3.035,-3.0312,-3.0451,-3.0525,-3.0525,-3.0525,-3.0506,-3.0467,-3.0417,-3.0417,-3.0467,-3.0487,-3.0519,-3.0571,0.0,0.0,0.0,0.0,0.0,0.0,0.0,0.0,0.0,0.0,0.0,0.0,0.0,0.0,0.0,0.0,0.0,0.0,-0.5108,-0.5108,-0.5127,-0.5233,-0.5406,-0.5697,-0.6094,-0.5472,-0.5236,-0.5441,-0.5392,-0.5308,-0.5105,-0.4874,-0.4692,-0.4538,-0.4366,-0.4203,-0.4004,-0.3744,-0.3528,-0.3366,-0.326,-0.345,0.0,0.0,0.0,0.0,0.0,0.0,0.0,0.0,-0.6599,-0.6599,-0.6599,-0.6599,-0.6599,-0.6599,-0.6782,-0.7066,-0.7364,-0.8795,-1.0392,-1.1262,-1.3026,-1.4986,-1.6684,-1.7433,-1.8242,-1.9833,-2.008,0.0,0.0,0.0,0.0,0.0,0.0,0.0,0.0,0.0,0.0,0.0,0.0,0.0,0.0,0.0,0.0,0.0,0.0,0.0,0.0,0.0,0.0,0.0,0.0,0.0,0.0,-2.9032,-2.9529,-3.0129,-3.0278,-3.0401,-3.0462,-3.0571,-3.0571,-3.052,-3.0578,-3.0598,-3.0598,-3.0598,-3.0565,-3.0525,-3.0487,-3.0487,-3.0525,-3.0564,-3.0588,-3.0637,0.0,0.0,0.0,0.0,0.0,0.0,0.0,0.0,0.0,0.0,0.0,0.0,0.0,0.0,0.0,0.0,0.0,0.0,-0.5108,-0.5108,-0.5214,-0.5492,-0.5511,-0.5633,-0.5911,-0.5911,-0.6183,-0.68,-0.6122,-0.5793,-0.5783,-0.5038,-0.4854,-0.5088,-0.4558,-0.43,-0.4299,-0.4012,-0.3605,-0.3129,-0.3387,-0.3493,0.0,0.0,0.0,0.0,0.0,0.0,0.0,0.0,-0.6599,-0.6599,-0.6599,-0.6599,-0.6611,-0.6599,-0.7226,-0.8009,-0.8474,-0.938,-1.0613,0.0,0.0,0.0,-1.7988,-1.8568,-1.9421,-2.2143,-2.2371,-2.2107,-2.2096,0.0,0.0,0.0,0.0,0.0,0.0,0.0,0.0,0.0,0.0,0.0,0.0,0.0,0.0,0.0,0.0,0.0,0.0,0.0,0.0,0.0,0.0,0.0,0.0,-2.8888,-2.9286,-2.9306,-3.0244,-3.0656,-3.06,-3.0598,-3.0598,-3.06,-3.0606,-3.0606,-3.0606,-3.0606,-3.0591,-3.0595,-3.0602,-3.0602,-3.0602,-3.0679,-3.071,-3.0711,0.0,0.0,0.0,0.0,0.0,0.0,0.0,0.0,0.0,0.0,0.0,0.0,0.0,0.0,0.0,0.0,0.0,0.0,-0.5108,-0.5108,-0.5214,-0.5492,-0.567,-0.5881,-0.6112,-0.5973,-0.5906,-0.5879,-0.5492,-0.5302,-0.5302,-0.5087,-0.5127,-0.5377,-0.5204,-0.5049,-0.4837,-0.4375,-0.3859,-0.3368,-0.326,-0.3217,-0.3296,0.0,0.0,0.0,0.0,0.0,0.0,0.0,0.0,0.0,-0.6934,-0.7243,-0.7455,-0.7119,-0.7637,-0.8385,-0.8719,-1.0015,0.0,-1.2698,0.0,0.0,0.0,-1.9427,0.0,0.0,-2.2617,-2.2441,0.0,0.0,0.0,0.0,0.0,0.0,0.0,0.0,0.0,0.0,0.0,0.0,0.0,0.0,0.0,0.0,0.0,0.0,0.0,0.0,0.0,0.0,0.0,0.0,0.0,0.0,-2.8833,-2.9452,-3.0302,-3.0656,-3.06,-3.0752,-3.0755,-3.0675,-3.0763,-3.081,-3.079,-3.0712,-3.0662,-3.0673,-3.0614,-3.0617,-3.066,-3.0679,-3.0765,-3.0846,0.0,0.0,0.0,0.0,0.0,0.0,0.0,0.0,0.0,0.0,-0.4248,-0.4737,0.0,0.0,0.0,0.0,0.0,0.0,0.0,-0.5195,-0.5387,-0.5652,-0.5991,-0.6283,-0.648,-0.6177,-0.5943,-0.5789,-0.5319,-0.5108,-0.5108,-0.5214,-0.5406,-0.5652,-0.5652,-0.5566,-0.5384,-0.473,-0.4135,-0.3633,-0.3366,-0.3202,-0.3196,0.0,0.0,0.0,0.0,0.0,0.0,0.0,0.0,0.0,-0.713,-0.7392,-0.7646,-0.7729,-0.8358,-0.9259,-1.0201,-1.1524,0.0,-1.4577,-1.6631,-1.8636,-2.0089,0.0,0.0,0.0,0.0,0.0,0.0,0.0,0.0,0.0,0.0,0.0,0.0,0.0,0.0,0.0,0.0,0.0,0.0,0.0,0.0,0.0,0.0,0.0,0.0,0.0,0.0,0.0,0.0,0.0,0.0,0.0,0.0,-2.9037,-3.0225,-3.077,-3.0716,-3.0833,-3.0865,-3.0782,-3.0864,-3.0898,-3.0898,-3.0801,-3.0781,-3.0781,-3.0738,-3.0735,-3.0787,-3.0787,-3.0821,-3.0898,0.0,0.0,0.0,0.0,0.0,0.0,0.0,0.0,0.0,0.0,-0.3963,-0.4394,0.0,0.0,0.0,0.0,0.0,0.0,0.0,-0.5387,-0.5652,-0.5918,-0.6388,-0.6714,-0.6908,-0.6463,-0.6224,-0.6224,-0.5488,-0.5146,-0.5185,-0.5387,-0.5652,-0.5918,-0.5918,-0.5918,-0.5845,-0.5088,-0.4432,-0.3874,-0.364,-0.3351,-0.3196,-0.3999,0.0,0.0,0.0,0.0,0.0,0.0,0.0,0.0,-0.7256,-0.73,-0.7502,-0.8309,-0.9222,-1.0382,-1.2225,0.0,0.0,-1.717,-1.8477,0.0,0.0,0.0,0.0,0.0,0.0,0.0,0.0,0.0,0.0,0.0,0.0,0.0,0.0,0.0,0.0,0.0,0.0,0.0,0.0,0.0,0.0,0.0,0.0,0.0,0.0,0.0,0.0,0.0,0.0,0.0,0.0,0.0,0.0,0.0,-2.9995,-3.0814,-3.0898,-3.0898,-3.0898,-3.0898,-3.0898,-3.0898,-3.0898,-3.0898,-3.0898,-3.0898,-3.0898,-3.0898,-3.0898,-3.0898,-3.0898,-3.0898,0.0,0.0,0.0,0.0,0.0,0.0,0.0,0.0,0.0,0.0,0.0,0.0,0.0,0.0,0.0,0.0,0.0,0.0,0.0,-0.567,-0.5918,-0.613,-0.6596,-0.6861,-0.6908,-0.6647,-0.6515,-0.6515,-0.5778,-0.552,-0.5715,-0.5576,-0.5734,-0.613,-0.613,-0.6052,-0.5863,-0.5488,-0.4768,-0.3894,-0.3841,-0.3535,-0.3196,-0.3999,-0.4469,0.0,0.0,0.0,0.0,0.0,0.0,0.0,-0.7621,-0.8078,-0.8435,-0.8257,-0.9355,-1.0832,-1.1893,-1.284,0.0,0.0,-1.9429,0.0,0.0,0.0,0.0,0.0,0.0,0.0,0.0,0.0,0.0,0.0,0.0,0.0,0.0,0.0,0.0,0.0,0.0,0.0,0.0,0.0,0.0,0.0,0.0,0.0,0.0,0.0,0.0,0.0,0.0,0.0,-2.5703,-2.6758,-2.7615,0.0,-2.9372,-3.0245,-3.0898,-3.0898,-3.0898,-3.0898,-3.0898,-3.0898,-3.0898,-3.0898,-3.0898,-3.0898,-3.0898,-3.0898,-3.0898,-3.0898,-3.0898,-3.0898,0.0,0.0,0.0,0.0,0.0,0.0,0.0,0.0,0.0,0.0,0.0,0.0,0.0,0.0,0.0,0.0,0.0,0.0,0.0,-0.5948,-0.6195,-0.6515,-0.6676,-0.6807,-0.6908,-0.6794,-0.6748,-0.6748,-0.6359,-0.613,-0.6034,-0.5907,-0.6022,-0.6394,-0.6388,-0.6266,-0.6016,-0.5657,-0.5107,-0.4432,-0.406,-0.3744,-0.3528,-0.3945,-0.4285,-0.4609,-0.5432,0.0,0.0,0.0,0.0,0.0,0.0,0.0,-0.8499,-0.8714,-0.9509,-1.0656,-1.2239,0.0,0.0,-1.8025,0.0,0.0,0.0,0.0,0.0,0.0,0.0,0.0,0.0,0.0,0.0,0.0,0.0,0.0,0.0,0.0,0.0,0.0,0.0,0.0,0.0,0.0,0.0,0.0,0.0,0.0,0.0,0.0,0.0,0.0,0.0,0.0,-2.5703,-2.6562,-2.7226,-2.7695,-2.8555,-2.9434,-3.0293,-3.0703,-3.0898,-3.0898,-3.0898,-3.0898,-3.0898,-3.0898,-3.0898,-3.0898,-3.0898,-3.0898,-3.0898,-3.0898,-3.0898,-3.0957,0.0,0.0,0.0,0.0,0.0,0.0,0.0,0.0,0.0,0.0,0.0,0.0,0.0,0.0,0.0,0.0,0.0,0.0,0.0,-0.6201,-0.6475,-0.6891,-0.674,-0.674,-0.6944,-0.696,-0.696,-0.696,-0.6999,-0.6894,-0.6666,-0.6436,-0.6433,-0.6664,-0.6655,-0.6488,-0.6171,-0.5793,-0.5411,-0.5049,-0.4337,-0.3986,-0.3911,-0.3911,-0.4068,-0.4406,-0.5155,-0.5756,-0.6294,-0.694,0.0,0.0,0.0,0.0,-0.8308,-0.9113,-0.9582,-1.0294,-1.2418,0.0,-1.5646,-1.889,-2.0697,0.0,0.0,0.0,0.0,0.0,0.0,0.0,0.0,0.0,0.0,0.0,0.0,0.0,0.0,0.0,0.0,0.0,0.0,0.0,0.0,0.0,0.0,0.0,0.0,0.0,0.0,0.0,0.0,0.0,0.0,-2.5703,-2.5703,-2.6426,-2.6855,-2.7012,-2.8047,-2.8906,-2.9629,-3.0508,-3.0898,-3.0898,-3.0898,-3.0898,-3.0898,-3.0898,-3.0898,-3.0898,-3.0898,-3.0898,-3.0898,-3.0898,-3.0898,-3.0996,0.0,0.0,0.0,0.0,0.0,0.0,0.0,0.0,0.0,0.0,-0.3494,-0.3877,-0.488,-0.5058,0.0,0.0,0.0,0.0,-0.5933,0.0,0.0,-0.6967,-0.6904,-0.6947,-0.7162,-0.7162,-0.7162,-0.7162,-0.7334,-0.7807,-0.8508,-0.7349,-0.6835,-0.6861,-0.6858,-0.6613,-0.6189,-0.6136,-0.5727,-0.5069,-0.4729,-0.4309,-0.3911,-0.3911,-0.4068,-0.4366,-0.4953,-0.5616,-0.6277,-0.6776,-0.7239,0.0,0.0,0.0,0.0,0.0,-0.9359,-1.0178,0.0,0.0,-1.6723,0.0,-2.0263,0.0,0.0,0.0,0.0,0.0,0.0,0.0,0.0,0.0,0.0,0.0,0.0,0.0,0.0,0.0,0.0,0.0,0.0,0.0,0.0,0.0,0.0,0.0,0.0,0.0,0.0,0.0,-2.5703,-2.5703,-2.5703,0.0,-2.5703,-2.582,-2.625,-2.7012,-2.8652,-2.9492,-2.9629,-3.0508,-3.0898,-3.0898,-3.0898,-3.0898,-3.0898,-3.0898,-3.0898,-3.0898,-3.0898,-3.0898,-3.0898,-3.0898,-3.0898,-3.0918,0.0,0.0,0.0,0.0,0.0,0.0,0.0,0.0,0.0,0.0,0.0,-0.4577,-0.5049,-0.5107,0.0,0.0,0.0,0.0,-0.6213,-0.6487,0.0,-0.6772,-0.7069,-0.7121,-0.6865,-0.7223,-0.7348,-0.7195,-0.7621,-0.8287,-0.9111,-0.8606,-0.8434,-0.8554,-0.7903,-0.7525,-0.7279,-0.6674,-0.6142,-0.5661,-0.5136,-0.4721,-0.4361,-0.402,-0.4192,-0.4606,-0.48,-0.5373,-0.6112,-0.6705,-0.7114,0.0,0.0,0.0,0.0,0.0,0.0,0.0,-1.1183,-1.3194,-1.5384,0.0,-1.9205,0.0,0.0,0.0,0.0,0.0,0.0,0.0,0.0,0.0,0.0,0.0,0.0,0.0,0.0,0.0,0.0,0.0,0.0,0.0,0.0,0.0,0.0,0.0,0.0,0.0,0.0,-2.5703,-2.5703,-2.5703,-2.5703,0.0,-2.5703,-2.5703,-2.5898,-2.6289,-2.7539,-2.8398,-2.8906,-2.9766,-3.0449,-3.0898,-3.0898,-3.0898,-3.0898,-3.0898,-3.0898,-3.0898,-3.0898,-3.0898,-3.0898,-3.0898,-3.0898,-3.0996,0.0,0.0,0.0,0.0,0.0,0.0,0.0,0.0,0.0,0.0,0.0,0.0,-0.5456,0.0,0.0,0.0,0.0,0.0,-0.5645,0.0,0.0,0.0,-0.6728,-0.7135,-0.6838,-0.7116,-0.7253,-0.7195,-0.7644,-0.8374,-0.9354,-0.9425,-0.9811,-1.0353,-0.8987,-0.8225,-0.7889,-0.7035,-0.6532,-0.6254,-0.5716,-0.5325,-0.4989,-0.462,-0.4749,-0.51,-0.4996,-0.5432,0.0,0.0,0.0,0.0,0.0,0.0,0.0,0.0,0.0,0.0,0.0,0.0,-1.3447,-1.6295,-1.7675,0.0,0.0,0.0,0.0,0.0,0.0,0.0,0.0,0.0,0.0,0.0,0.0,0.0,0.0,0.0,0.0,0.0,0.0,0.0,0.0,0.0,0.0,0.0,0.0,0.0,-2.5703,-2.5703,-2.5703,-2.5703,-2.5703,-2.5703,-2.5703,-2.5703,-2.5703,-2.5703,-2.6582,-2.7461,-2.832,-2.9199,-3.0078,-3.0898,-3.0898,-3.0898,-3.0898,-3.0898,-3.0898,-3.0898,-3.0898,-3.0898,-3.0898,-3.0898,-3.0898,-3.1016,0.0,0.0,0.0,0.0,0.0,0.0,0.0,0.0,0.0,0.0,0.0,0.0,-0.6417,-0.651,-0.5656,-0.3489,0.0,0.0,0.0,0.0,0.0,0.0,0.0,0.0,-0.7446,-0.6744,-0.6642,-0.7195,-0.7238,-0.8011,-0.9497,-0.9425,-1.0269,-1.1712,-0.9733,-0.8267,-0.7235,-0.6993,-0.6765,-0.6569,-0.6607,-0.6223,-0.5681,-0.5965,-0.6005,-0.5923,-0.5713,0.0,0.0,0.0,0.0,0.0,0.0,0.0,0.0,0.0,0.0,0.0,0.0,-1.032,0.0,-1.3289,0.0,0.0,0.0,0.0,0.0,0.0,0.0,0.0,0.0,0.0,0.0,0.0,0.0,0.0,0.0,0.0,0.0,0.0,0.0,0.0,0.0,0.0,0.0,0.0,0.0,0.0,-2.5703,-2.5703,-2.5703,-2.5703,-2.5703,-2.5703,-2.5703,-2.5703,-2.5703,-2.5703,-2.6582,-2.7461,-2.832,-2.9199,-3.0078,-3.0898,-3.0898,-3.0898,-3.0898,-3.0898,-3.0898,-3.0898,-3.0898,-3.0898,-3.0898,-3.0898,-3.0898,-3.0918,0.0,0.0,0.0,0.0,0.0,0.0,0.0,0.0,0.0,0.0,0.0,0.0,0.0,-0.6209,-0.571,-0.3483,-0.3532,0.0,0.0,0.0,0.0,0.0,0.0,0.0,-0.6322,-0.614,-0.6083,-0.6169,-0.6864,-0.7721,-0.8745,-0.9361,-0.9902,-1.0328,-0.9421,-0.9063,-0.9056,-0.786,-0.7141,-0.6807,-0.7063,-0.6818,-0.636,-0.6663,-0.6886,-0.6981,0.0,0.0,0.0,0.0,0.0,0.0,-0.7811,-0.8037,-0.8102,-0.8185,-0.8198,0.0,0.0,0.0,0.0,-1.2162,0.0,0.0,0.0,0.0,0.0,0.0,0.0,0.0,0.0,0.0,0.0,0.0,0.0,0.0,0.0,0.0,0.0,0.0,0.0,0.0,0.0,0.0,0.0,0.0,0.0,0.0,-2.5641,-2.5642,-2.5644,-2.5644,-2.5684,-2.5703,-2.5703,-2.5703,-2.5703,-2.5703,-2.6016,-2.6621,-2.75,-2.8379,-2.9238,-3.0098,-3.0664,-3.0898,-3.0898,-3.0898,-3.0898,-3.0898,-3.0898,-3.0898,-3.0898,-3.0898,-3.0898,-3.0898,0.0,0.0,0.0,0.0,0.0,0.0,0.0,0.0,-0.5363,-0.5366,0.0,0.0,0.0,0.0,-0.5914,-0.3695,-0.3747,-0.3898,-0.3902,-0.3518,0.0,0.0,0.0,0.0,-0.5063,-0.549,-0.5581,-0.5329,-0.5837,-0.6714,-0.7957,-0.8663,-0.9212,-0.9565,-0.8849,-0.8876,-0.9406,-0.8138,-0.7424,-0.718,-0.7759,-0.7703,-0.7361,-0.7958,-0.8247,-0.8291,0.0,0.0,0.0,0.0,0.0,0.0,-0.8108,-0.8136,-0.8037,-0.8037,-0.798,-0.8059,-0.8575,0.0,0.0,0.0,0.0,0.0,0.0,0.0,0.0,0.0,0.0,0.0,0.0,0.0,0.0,0.0,0.0,0.0,0.0,0.0,0.0,0.0,0.0,0.0,0.0,0.0,0.0,0.0,0.0,0.0,-2.5563,-2.5574,-2.5573,-2.5574,-2.5623,-2.5664,-2.5664,-2.5684,-2.5703,-2.5703,-2.5703,-2.6152,-2.7012,-2.7598,-2.8496,-2.9629,-3.0215,-3.0625,-3.0898,-3.0898,-3.0898,-3.0898,-3.0898,-3.0898,-3.0898,-3.0898,-3.0898,-3.0898,0.0,0.0,0.0,0.0,0.0,0.0,0.0,0.0,-0.5918,-0.5929,0.0,0.0,0.0,0.0,0.0,-0.4205,-0.4011,-0.3987,-0.39,-0.3536,0.0,0.0,0.0,0.0,-0.3895,-0.4787,-0.5099,-0.478,-0.4183,-0.5012,-0.714,-0.7294,-0.8197,-0.9633,-0.8076,-0.764,-0.8044,-0.7709,-0.759,-0.7704,0.0,-0.8853,-0.8667,0.0,0.0,0.0,-0.9629,-0.9559,0.0,-0.9583,0.0,0.0,0.0,-0.8439,-0.7899,-0.7899,-0.7753,-0.7605,0.0,0.0,0.0,0.0,0.0,0.0,0.0,0.0,0.0,0.0,0.0,0.0,0.0,0.0,0.0,0.0,0.0,0.0,0.0,0.0,0.0,0.0,0.0,0.0,0.0,0.0,0.0,0.0,0.0,-2.5563,-2.5505,-2.5505,-2.5498,-2.5503,-2.557,-2.5605,-2.5605,-2.5664,-2.5703,-2.5703,-2.5703,-2.6133,-2.6953,-2.6992,-2.7949,-2.9551,-2.959,-3.0098,-3.0898,-3.0898,-3.0898,-3.0898,-3.0898,-3.0898,-3.0898,-3.0898,-3.0898,-3.0898,0.0,0.0,0.0,0.0,0.0,-0.6668,-0.6183,-0.6399,-0.6561,0.0,0.0,0.0,-0.6973,-0.743,-0.7472,-0.6842,-0.6788,-0.5974,-0.4019,-0.3803,-0.3606,-0.3309,-0.3298,-0.3485,-0.3889,-0.4156,-0.4285,-0.4294,-0.4032,-0.4509,-0.569,-0.6259,-0.6795,-0.727,-0.7255,-0.7352,-0.7497,-0.7217,-0.7533,-0.828,-0.8504,-0.8999,0.0,0.0,0.0,0.0,0.0,-1.1256,-1.1336,0.0,-1.0836,-0.9821,0.0,-0.8439,-0.7899,-0.7899,-0.7753,-0.7605,-0.7605,0.0,0.0,0.0,0.0,0.0,0.0,0.0,0.0,0.0,0.0,0.0,0.0,0.0,0.0,0.0,0.0,0.0,0.0,0.0,0.0,0.0,0.0,0.0,0.0,0.0,0.0,0.0,0.0,-2.5447,-2.5428,-2.5428,-2.5457,-2.5509,-2.5565,-2.561,-2.5605,-2.5664,-2.5703,-2.5703,-2.5703,-2.582,-2.6074,-2.6719,-2.7617,-2.8691,-2.9336,-3.0098,-3.0898,-3.0898,-3.0898,-3.0898,-3.0898,-3.0898,-3.0898,-3.0898,-3.0898,-3.0898,0.0,0.0,0.0,-0.7095,-0.7146,-0.7053,-0.6778,-0.6901,-0.6966,0.0,0.0,0.0,-0.7324,-0.7504,-0.7687,-0.788,-0.7902,-0.6757,-0.4077,-0.3899,-0.38,-0.3563,-0.3552,-0.4187,-0.5546,-0.5571,-0.5447,-0.5181,-0.4491,-0.4482,-0.5156,-0.5645,-0.6043,-0.6345,-0.6392,-0.6737,-0.7271,-0.6717,-0.7161,0.0,-0.8907,0.0,0.0,-1.111,-1.1943,0.0,0.0,0.0,-1.2787,-1.2887,-1.2162,0.0,0.0,-0.9344,-0.8908,-0.8293,-0.8137,-0.8168,-0.8244,-0.8153,-0.8134,0.0,0.0,0.0,0.0,0.0,0.0,0.0,0.0,0.0,0.0,0.0,0.0,0.0,0.0,0.0,0.0,0.0,0.0,0.0,0.0,0.0,0.0,0.0,0.0,0.0,-2.5415,-2.539,-2.537,-2.537,-2.539,-2.5428,-2.5505,-2.5561,-2.5568,-2.5643,-2.5703,-2.5703,-2.5703,-2.5703,-2.5723,-2.623,-2.6934,-2.7812,-2.8672,-2.9551,-3.0391,-3.0742,-3.0898,-3.0898,-3.0898,-3.0864,-3.0818,-3.0818,-3.0813,-3.082,0.0,0.0,-0.731,-0.7732,-0.7645,-0.7492,-0.7476,-0.7359,-0.7272,0.0,-0.7272,-0.7379,-0.7605,-0.7429,-0.7445,-0.7855,-0.7891,-0.6879,-0.4494,-0.4069,-0.3902,-0.3902,-0.4185,-0.5466,-0.7851,-0.7986,-0.7655,-0.6942,-0.5304,-0.4756,-0.5287,-0.539,-0.579,-0.6368,-0.5764,-0.6166,-0.7221,-0.6447,-0.6865,-0.8183,-0.9544,-1.064,0.0,0.0,-1.3636,0.0,-1.4026,-1.3974,-1.4019,-1.3995,-1.3274,0.0,0.0,-1.0849,-1.0574,-0.9083,-0.8889,-0.9203,-0.9326,-0.9142,-0.91,-0.9919,0.0,0.0,0.0,-1.1404,0.0,0.0,0.0,0.0,0.0,0.0,0.0,0.0,0.0,0.0,0.0,0.0,0.0,0.0,0.0,0.0,0.0,0.0,0.0,-2.5409,-2.539,-2.537,-2.5303,-2.5303,-2.5303,-2.5303,-2.5428,-2.5506,-2.5508,-2.5634,-2.5703,-2.5703,-2.5703,-2.5703,-2.5703,-2.5703,-2.6172,-2.7031,-2.7812,-2.8711,-2.9668,-3.0449,-3.0801,-3.0898,-3.0875,-3.0792,-3.0698,-3.0679,-3.0695,-3.0697,0.0,-0.6846,-0.7056,-0.716,-0.7399,-0.7513,-0.73,-0.7546,-0.7695,-0.7545,-0.7665,-0.7783,-0.7841,-0.7797,-0.7812,-0.7899,-0.7891,-0.7671,-0.7163,-0.5101,-0.39,-0.39,-0.5968,-0.7362,-0.7883,-0.8428,-0.8633,-0.8472,-0.5799,-0.4936,-0.5768,-0.5738,-0.593,-0.6332,-0.6668,-0.6914,-0.7083,-0.7383,-0.8103,-0.9048,-0.9358,0.0,-1.2005,-1.2277,-1.3344,-1.4679,-1.4629,-1.4932,-1.5362,0.0,-1.451,-1.3702,0.0,0.0,-1.2149,-1.0623,-1.0527,-1.0843,-1.0429,-1.0591,-1.0666,-0.9849,0.0,0.0,0.0,-1.0356,0.0,0.0,0.0,0.0,0.0,0.0,0.0,0.0,0.0,0.0,0.0,0.0,0.0,0.0,0.0,0.0,0.0,0.0,-2.5409,-2.5322,-2.5322,-2.5303,-2.5303,-2.5303,-2.5303,-2.5303,-2.5428,-2.5506,-2.5508,-2.5634,-2.5703,-2.5703,-2.5703,-2.5703,-2.5703,-2.5703,-2.6172,-2.7012,-2.7187,-2.8144,-2.9609,-2.9785,-3.0273,-3.0897,-3.0768,-3.0721,-3.0679,-3.0641,-3.0612,-3.0608,-0.6621,-0.6874,-0.712,-0.7239,-0.7527,-0.7709,-0.7576,-0.7739,-0.799,-0.8211,-0.8333,-0.8259,-0.7929,-0.7899,-0.7899,-0.7899,-0.7905,-0.7905,-0.7894,-0.664,-0.589,-0.589,-0.7178,-0.7967,-0.8144,-0.8473,-0.8375,-0.7795,-0.6321,-0.5473,-0.522,-0.6155,-0.6699,-0.685,-0.6784,-0.6937,-0.7268,-0.7474,-0.8109,-0.9081,-1.0095,0.0,-1.3199,-1.3731,-1.4702,-1.5763,-1.5415,-1.5514,-1.5779,-1.5588,-1.5278,0.0,0.0,-1.3901,-1.3889,0.0,-1.1956,-1.229,-1.1829,-1.2139,-1.245,-1.1878,0.0,0.0,0.0,0.0,0.0,0.0,0.0,0.0,0.0,0.0,0.0,0.0,0.0,0.0,0.0,0.0,0.0,0.0,0.0,0.0,0.0,0.0,-2.4947,-2.5264,-2.5322,-2.5341,-2.5341,-2.5341,-2.537,-2.5409,-2.5466,-2.5523,-2.5541,-2.5659,-2.5703,-2.5703,-2.5703,-2.5703,-2.5703,-2.5703,-2.5937,-2.6387,-2.6816,-2.75,-2.8379,-2.921,-2.9802,-3.0237,-3.0577,-3.0679,-3.0641,-3.0564,-3.0525,-3.0506,-0.6633,-0.6917,-0.7254,-0.7417,-0.7694,-0.7899,-0.7899,-0.7899,-0.8139,-0.8815,-0.8905,-0.874,-0.8334,-0.8289,-0.8334,-0.8454,-0.8124,-0.79,-0.7889,-0.7889,-0.7893,-0.7893,-0.7893,-0.8026,-0.8296,-0.8367,-0.7948,-0.7021,-0.7096,-0.6479,-0.5278,-0.6628,-0.7412,-0.766,-0.7044,-0.7173,-0.7855,0.0,0.0,-0.968,0.0,-1.2583,-1.3646,-1.4885,-1.5743,-1.6218,-1.592,-1.5799,-1.5794,-1.579,0.0,-1.5775,-1.5047,-1.5407,0.0,0.0,0.0,0.0,0.0,0.0,0.0,0.0,0.0,-1.4556,0.0,0.0,0.0,-1.3708,0.0,0.0,0.0,0.0,0.0,0.0,0.0,0.0,0.0,0.0,0.0,0.0,0.0,0.0,0.0,0.0,-2.4178,-2.5264,-2.5091,-2.5072,-2.5397,-2.5416,-2.5437,-2.5505,-2.5505,-2.5543,-2.5601,-2.5678,-2.5703,-2.5703,-2.5703,-2.5703,-2.5703,-2.5696,-2.5689,-2.5728,-2.64,-2.6813,-2.7062,-2.8431,-2.9182,-2.9567,-3.034,-3.0621,-3.0564,-3.0506,-3.0448,-3.0398,-0.6599,-0.6917,-0.7209,-0.7225,-0.7605,-0.7899,-0.7899,-0.7899,-0.8139,-0.8815,-0.8905,-0.91,-0.9605,-0.9665,-0.989,-1.0409,-0.8891,-0.7905,-0.7906,0.0,-0.7897,-0.7897,-0.7897,-0.7912,-0.7957,-0.8242,-0.8332,-0.8201,-0.8498,-0.8415,-0.7933,-0.7155,-0.747,-0.8722,-0.853,-0.8739,-0.9235,0.0,-0.9937,0.0,-1.2854,-1.2173,0.0,-1.3391,-1.4253,-1.4454,-1.5448,-1.5799,-1.5841,0.0,-1.6444,-1.6609,0.0,-1.6872,-1.7596,0.0,0.0,0.0,0.0,0.0,0.0,0.0,-1.6381,0.0,0.0,0.0,-1.3708,-1.2299,0.0,0.0,0.0,0.0,0.0,0.0,0.0,0.0,0.0,0.0,0.0,0.0,0.0,0.0,0.0,0.0,0.0,-2.5303,-2.4111,-2.3923,-2.5399,-2.5488,-2.5499,-2.5495,-2.5563,-2.5582,-2.5601,-2.5678,-2.5703,-2.5703,-2.5703,-2.5703,-2.5703,-2.5634,-2.5608,-2.5605,-2.5657,-2.6119,-2.684,-2.7026,-2.802,-2.949,-3.0225,-3.0525,-3.0506,-3.0448,-3.0398,-3.0398,-0.6599,-0.6917,-0.7195,-0.7195,-0.7591,-0.7899,-0.7899,-0.7899,-0.8004,-0.8274,-0.9638,-1.0417,-0.995,-1.0563,0.0,0.0,0.0,-0.9274,0.0,0.0,-0.8304,-0.7914,-0.7899,-0.7941,-0.8009,-0.815,-0.824,-0.8284,-0.8577,-0.8714,-0.868,-0.8204,-0.8299,-0.8917,-0.945,0.0,-0.9789,0.0,-1.0406,0.0,0.0,0.0,0.0,-1.4628,-1.5671,-1.5406,-1.5909,-1.608,-1.6074,0.0,-1.6463,0.0,0.0,0.0,0.0,0.0,0.0,0.0,0.0,0.0,0.0,0.0,0.0,0.0,0.0,0.0,-1.4344,0.0,0.0,0.0,0.0,0.0,0.0,0.0,0.0,0.0,0.0,0.0,0.0,0.0,0.0,0.0,0.0,0.0,0.0,0.0,0.0,-2.3035,-2.4703,-2.4791,-2.5049,-2.5598,-2.5608,-2.5619,-2.5652,-2.5696,-2.5703,-2.5703,-2.5703,-2.5703,-2.5703,-2.5628,-2.5601,-2.5592,-2.5537,-2.5712,-2.6088,-2.6544,-2.7479,-2.8664,-2.9398,-3.0025,-3.0487,-3.0417,-3.0398,-3.0398,-0.6668,-0.6914,-0.7114,-0.713,-0.7559,-0.7901,-0.7899,-0.7899,-0.8154,-0.8874,-1.0309,-1.1057,-1.0473,-1.1565,0.0,0.0,-1.1431,-1.1042,0.0,0.0,-0.8981,-0.8546,-0.8167,0.0,0.0,-0.8265,-0.8182,-0.8175,-0.8389,-0.8599,-0.8824,-0.8867,-0.8895,-0.8936,-0.9949,-1.0494,-1.066,0.0,0.0,-1.1925,-1.2838,-1.3092,-1.3211,-1.5735,-1.6662,-1.6565,-1.6474,-1.6436,-1.6396,-1.6098,-1.6565,0.0,-1.7531,0.0,0.0,0.0,0.0,0.0,-1.7723,0.0,0.0,0.0,0.0,0.0,0.0,0.0,0.0,0.0,0.0,0.0,0.0,0.0,0.0,-1.2832,0.0,0.0,0.0,0.0,0.0,0.0,0.0,0.0,0.0,0.0,0.0,0.0,0.0,0.0,-2.4217,-2.4327,-2.4746,-2.5664,-2.5654,-2.5649,-2.5703,-2.5703,-2.5703,-2.5703,-2.5703,-2.5703,-2.5703,-2.5601,-2.5571,-2.5563,-2.5486,-2.5447,-2.5486,-2.6072,-2.6965,-2.8022,-2.8563,-2.9467,-3.0467,-3.0417,-3.0398,-3.0417,-0.6858,-0.6908,-0.6927,-0.6993,-0.7504,-0.7901,-0.79,-0.7899,-0.8814,0.0,0.0,0.0,0.0,0.0,0.0,0.0,0.0,-1.3017,-1.2972,0.0,-0.994,-1.0121,-0.8816,-0.8458,0.0,0.0,-0.8293,-0.8102,-0.8176,-0.8347,-0.8615,-0.8807,-0.8902,-0.8936,-0.994,-1.1083,-1.2229,-1.2246,-1.3887,-1.6428,-1.5747,-1.6339,-1.7412,0.0,-1.6055,-1.7224,-1.6917,0.0,0.0,-1.6773,-1.701,0.0,0.0,0.0,0.0,0.0,0.0,0.0,0.0,0.0,0.0,-1.7901,0.0,0.0,0.0,0.0,-1.7066,0.0,0.0,0.0,0.0,-1.663,-1.5557,-1.4014,-1.3761,0.0,0.0,0.0,0.0,0.0,0.0,0.0,0.0,0.0,0.0,0.0,0.0,0.0,-2.4218,-2.4394,-2.4805,-2.5664,-2.5703,-2.5703,-2.5703,-2.5703,-2.5703,-2.5703,-2.5703,-2.5703,-2.5703,-2.5558,-2.5499,-2.5505,-2.537,-2.5303,-2.5303,-2.5322,-2.637,-2.7909,-2.7928,-2.8948,-3.0398,-3.0398,-3.0448,-3.0506,-0.6706,-0.6841,-0.7042,0.0,0.0,-0.7901,-0.7914,-0.9383,0.0,0.0,0.0,0.0,0.0,0.0,-1.5111,0.0,0.0,-1.4618,-1.4004,-1.2209,0.0,0.0,0.0,-0.9939,0.0,0.0,-0.9085,-0.9014,-0.8701,-0.8558,-0.8615,-0.8807,-0.8891,-0.897,-1.0276,-1.1673,0.0,0.0,0.0,0.0,0.0,-1.6475,-1.7738,0.0,0.0,-1.7296,-1.7175,-1.7126,0.0,-1.7126,-1.7682,-1.8491,-1.9256,-1.9794,-2.0174,-2.0353,-2.0933,0.0,0.0,0.0,-2.2483,-1.9513,0.0,0.0,0.0,0.0,0.0,0.0,0.0,0.0,0.0,-1.6789,-1.5899,-1.4778,-1.4227,-1.3352,0.0,0.0,0.0,0.0,0.0,0.0,0.0,0.0,0.0,0.0,0.0,0.0,0.0,-2.3262,-2.3984,-2.4805,-2.5391,-2.5703,-2.5703,-2.5703,-2.5703,-2.5703,-2.5703,-2.5681,-2.5628,-2.5546,-2.5486,-2.5428,-2.5341,-2.5303,-2.5303,-2.5303,-2.6332,-2.789,-2.789,-2.8948,-3.0467,-3.0417,-3.0398,-3.0452,-0.6964,-0.7009,0.0,0.0,0.0,0.0,0.0,0.0,0.0,0.0,-1.2628,0.0,-1.3211,0.0,-1.5799,0.0,-1.5799,-1.5349,-1.4274,-1.3727,0.0,-1.281,-1.1785,0.0,0.0,-1.1203,-1.0334,-1.0,-0.9445,-0.9009,-0.8698,-0.8846,-0.8891,-0.8959,-1.0449,-1.1753,-1.3021,0.0,-1.6045,0.0,0.0,-1.6948,0.0,0.0,-1.7658,-1.7479,0.0,-1.7479,-1.7512,-1.7786,-1.8322,-1.9096,-2.0266,-2.0752,-2.096,-2.1297,-2.185,-2.215,-2.1272,-2.2342,0.0,0.0,-2.0408,0.0,-1.7657,0.0,0.0,0.0,0.0,0.0,0.0,-1.8196,-1.6976,-1.6127,-1.5127,-1.3758,0.0,0.0,0.0,0.0,0.0,0.0,0.0,0.0,-1.6248,-1.735,0.0,0.0,0.0,0.0,-2.353,-2.4346,-2.5203,-2.5648,-2.5633,-2.5633,-2.5633,-2.5633,-2.5633,-2.5601,-2.5561,-2.5498,-2.5434,-2.5409,-2.5322,-2.5303,-2.5303,-2.5303,-2.6332,-2.789,-2.789,-2.8967,-3.0487,-3.0417,-3.0417,-3.0486,0.0,0.0,0.0,0.0,-0.7543,0.0,0.0,0.0,-1.1895,0.0,-1.442,-1.5993,-1.5993,-1.5993,-1.5993,-1.5993,-1.5993,0.0,-1.4184,-1.5567,0.0,0.0,-1.35,-1.3604,-1.4374,-1.3009,0.0,-1.1013,-1.0289,-0.9607,-0.8942,-0.8908,-0.8891,-0.8959,-1.0419,0.0,-1.2157,-1.5075,-1.6884,-1.7811,-1.7811,-1.7811,-1.7811,-1.7879,0.0,-1.7862,-1.7862,-1.7896,-1.8031,-1.8724,-1.8978,-1.9393,-2.1462,-2.16,-2.128,-2.261,-2.3033,-2.2904,-2.2232,-2.2801,-2.3232,-2.1771,0.0,0.0,0.0,0.0,-2.135,0.0,0.0,0.0,0.0,0.0,-1.8831,-1.7944,-1.6356,-1.4404,-1.1972,0.0,0.0,0.0,0.0,0.0,0.0,0.0,-1.4814,-1.6364,-1.6604,0.0,0.0,0.0,0.0,-2.4207,-2.513,-2.5556,-2.5498,-2.5503,-2.5503,-2.5503,-2.5503,-2.5503,-2.5498,-2.5432,-2.5409,-2.539,-2.5322,-2.5303,-2.5303,-2.5303,-2.6332,-2.789,-2.789,-2.8978,-3.0498,-3.0429,-3.0487,-3.0623,-0.7427,-0.7515,-0.8295,0.0,-1.0648,-1.1027,0.0,0.0,0.0,0.0,-1.8253,-1.8706,-1.8706,-1.8706,-1.8706,-1.8706,-1.8706,0.0,0.0,0.0,0.0,-1.7313,-1.6143,-1.5904,-1.6867,-1.3869,0.0,-1.2756,-1.0356,-0.9354,-0.9709,-0.9162,-0.8891,-0.8942,0.0,0.0,-1.3155,-1.5357,-1.6884,-1.7811,-1.7811,-1.7811,0.0,0.0,-1.9083,-1.8623,-1.8623,-1.8978,-1.9461,-1.9647,-2.0128,-2.0764,-2.1773,-2.2326,-2.2647,-2.292,-2.3528,-2.3909,-2.2993,-2.3664,-2.4341,-2.3214,-2.2713,-2.2177,0.0,0.0,0.0,0.0,0.0,0.0,0.0,0.0,0.0,-1.8196,-1.5907,-1.4175,-1.3525,0.0,0.0,0.0,0.0,0.0,0.0,0.0,-1.4963,-1.4687,0.0,0.0,0.0,0.0,0.0,-2.3362,-2.4793,-2.5515,-2.55,-2.55,-2.55,-2.55,-2.55,-2.5462,-2.5423,-2.5418,-2.537,-2.5322,-2.5303,-2.5303,-2.5303,-2.5303,-2.6332,-2.789,-2.7939,-2.9052,-3.0576,-3.0565,-3.0602,-3.0683,-0.7729,0.0,0.0,-1.3077,0.0,0.0,-1.1984,0.0,0.0,-1.9151,-1.969,0.0,-1.969,-1.969,-2.0015,-2.0764,-2.0845,0.0,0.0,0.0,0.0,-1.8693,-1.8187,-1.8081,-1.8466,-1.5999,0.0,-1.3396,0.0,-0.9974,-0.9506,-0.9095,-0.8891,-0.8942,0.0,-1.1261,0.0,-1.5282,-1.6889,-1.7789,-1.7805,0.0,0.0,-1.9208,-1.9705,-1.9748,-1.9858,-1.9959,-2.0052,-2.0416,-2.0822,-2.1343,-2.23,-2.2876,-2.3234,-2.3467,-2.3916,-2.4264,-2.3785,-2.4264,-2.479,-2.4289,-2.4014,-2.3678,-2.2831,-2.3032,-2.3225,0.0,0.0,0.0,0.0,0.0,0.0,-1.7734,-1.6135,-1.4932,0.0,0.0,0.0,0.0,0.0,0.0,0.0,0.0,0.0,0.0,0.0,0.0,0.0,0.0,0.0,-2.2393,-2.4072,-2.5082,-2.5409,-2.5409,-2.5409,-2.5409,-2.5409,-2.539,-2.537,-2.537,-2.5341,-2.5303,-2.5303,-2.5303,-2.5303,-2.5303,-2.6332,-2.8035,-2.8863,-2.9786,-3.064,-3.071,-3.0711,-3.0698,0.0,0.0,0.0,0.0,0.0,0.0,0.0,-1.4996,0.0,-1.8981,0.0,-1.9406,-1.9984,-2.005,-2.0632,-2.218,0.0,-2.231,-2.231,-2.231,-2.1378,-1.9356,-1.992,-2.0093,-1.9695,-1.8454,0.0,0.0,0.0,-1.0972,-0.918,-0.8987,-0.8891,-0.8942,0.0,0.0,0.0,-1.5148,-1.6961,0.0,-1.8061,-1.8124,-1.8291,-1.932,-2.0135,-2.0844,-2.1228,-2.0889,-2.0407,-2.1109,-2.1329,-2.1547,-2.2803,-2.3189,-2.3346,-2.3996,-2.419,-2.4247,-2.4409,-2.4607,-2.4804,-2.4937,-2.513,-2.5081,-2.4409,-2.4264,-2.4264,-2.4264,-2.3687,0.0,0.0,0.0,0.0,-1.7491,0.0,0.0,0.0,0.0,0.0,0.0,0.0,0.0,0.0,0.0,0.0,0.0,0.0,0.0,0.0,0.0,0.0,0.0,-2.3351,0.0,-2.5284,0.0,-2.5303,-2.5303,-2.5303,-2.5303,-2.5303,-2.5303,-2.5303,-2.5303,-2.5303,-2.5303,-2.5303,-2.5303,-2.6381,-2.8193,-2.9985,-3.0702,-3.0728,-3.0837,-3.0798,-3.0717,0.0,0.0,0.0,0.0,0.0,-1.6368,-1.8077,-1.9951,-2.0041,-1.6879,-1.6488,0.0,-2.1457,-2.184,-2.1991,-2.2282,-2.231,0.0,0.0,0.0,0.0,-2.1703,-2.1832,-2.186,-2.1769,-1.9154,-1.7544,0.0,-1.357,-1.1489,-1.0704,-0.9469,-0.8891,-0.8925,0.0,0.0,-1.414,-1.5656,0.0,-1.9073,-1.9467,-1.9887,-2.0382,-2.1395,-2.1358,-2.0911,-2.1792,-2.2023,-2.1938,-2.2073,-2.2124,-2.2245,-2.2979,-2.3189,-2.3346,-2.3996,-2.419,-2.4209,-2.4247,-2.441,-2.4591,-2.4785,-2.4943,-2.5061,-2.5071,-2.5101,-2.5101,-2.5101,-2.4986,-2.4773,-2.4389,0.0,0.0,0.0,0.0,0.0,0.0,0.0,0.0,0.0,0.0,0.0,0.0,0.0,0.0,0.0,0.0,0.0,0.0,0.0,0.0,0.0,0.0,0.0,0.0,0.0,0.0,-2.5303,-2.5303,-2.5303,-2.5303,-2.5303,-2.5303,-2.5303,-2.5303,-2.5303,-2.5303,-2.5303,-2.6392,-2.8248,-2.9881,-3.0665,-3.0841,-3.0711,-3.0731,-3.0864,0.0,0.0,0.0,0.0,0.0,0.0,0.0,-2.1197,0.0,-1.9443,-1.9163,-1.9956,-2.2057,-2.231,-2.231,-2.231,-2.231,-2.231,-2.231,-2.231,-2.231,-2.231,-2.231,0.0,-2.231,-2.0889,-1.9372,-1.7799,-1.2787,-1.022,-0.9944,-0.9242,-0.8891,-0.8959,0.0,-1.2652,0.0,0.0,0.0,-1.9161,-2.0051,-2.0577,-2.0908,-2.1912,-2.1993,-2.164,-2.2136,-2.2388,-2.25,-2.25,-2.25,-2.2616,-2.3253,-2.3459,-2.3566,-2.4036,-2.419,-2.419,-2.419,-2.4358,-2.4528,-2.4623,-2.4818,-2.5022,-2.5111,-2.5224,-2.5303,-2.5303,-2.5322,-2.5111,-2.4345,-2.3256,0.0,0.0,0.0,0.0,0.0,0.0,0.0,0.0,0.0,0.0,0.0,0.0,0.0,0.0,0.0,0.0,0.0,0.0,0.0,0.0,0.0,0.0,0.0,0.0,0.0,-2.5303,-2.5303,-2.5303,-2.5303,-2.5303,-2.5303,-2.5303,-2.5303,-2.5303,-2.536,-2.6313,-2.7229,-2.8202,-2.9899,-3.0634,-3.0733,-3.0676,-3.0699,-3.0737,0.0,-1.5171,0.0,0.0,-1.6263,0.0,0.0,-2.0878,-2.1751,-2.1751,-2.2077,-2.231,-2.231,-2.231,-2.231,-2.231,-2.231,-2.231,-2.231,-2.231,-2.231,-2.231,-2.231,-2.231,-2.231,-2.231,-2.1136,0.0,0.0,-1.0132,-0.8919,-0.9219,-0.9457,0.0,0.0,0.0,0.0,0.0,-1.8555,-1.9469,-2.0465,-2.0988,-2.1225,-2.1995,-2.231,-2.2304,-2.2357,-2.247,-2.2643,-2.2855,-2.2873,-2.2923,-2.3522,-2.3692,-2.3774,-2.4094,-2.419,-2.419,-2.419,-2.4321,-2.4462,-2.4495,-2.4693,-2.4924,-2.4967,-2.5111,-2.5253,-2.5284,-2.5341,-2.5149,-2.4389,-2.3893,0.0,0.0,0.0,0.0,0.0,0.0,0.0,0.0,0.0,0.0,0.0,0.0,0.0,0.0,0.0,0.0,-1.4241,-1.5694,0.0,0.0,0.0,0.0,-2.5024,0.0,-2.5303,0.0,-2.5303,-2.5303,-2.5303,-2.5303,-2.5303,-2.5303,-2.5303,-2.5303,-2.5437,-2.7246,-2.8016,-2.8179,-2.9904,-3.0616,-3.0656,-3.066,-3.0655,-3.066,0.0,0.0,0.0,0.0,0.0,0.0,0.0,-1.9854,-1.9945,-1.9945,-2.1323,-2.231,-2.231,-2.231,-2.231,-2.231,-2.231,-2.231,-2.231,-2.231,-2.231,-2.231,-2.231,-2.231,-2.231,-2.231,-2.217,0.0,0.0,-1.4208,-0.8936,-1.0262,-1.1278,0.0,0.0,0.0,0.0,-1.8166,-1.9638,-2.1017,-2.1109,-2.1566,-2.2164,-2.2276,-2.231,-2.2321,-2.2582,-2.2531,-2.2461,-2.332,-2.3392,-2.323,-2.3588,-2.3692,-2.3774,-2.4094,-2.419,-2.419,-2.419,-2.4209,-2.4266,-2.4444,-2.451,-2.4636,-2.4937,-2.5022,-2.5088,-2.5264,-2.5303,-2.5072,-2.4274,-2.4742,-2.4774,0.0,0.0,0.0,0.0,0.0,0.0,0.0,0.0,0.0,0.0,0.0,0.0,0.0,0.0,0.0,0.0,-1.6055,0.0,-2.1583,0.0,-2.3263,-2.4206,-2.4947,0.0,-2.5303,-2.5303,-2.5303,-2.5303,-2.5303,-2.5303,-2.5303,-2.5303,-2.5303,-2.5437,-2.7246,-2.8046,-2.8247,-2.9886,-3.0664,-3.0845,-3.0617,-3.0664,-3.0864,0.0,0.0,0.0,0.0,0.0,0.0,0.0,-2.126,-2.126,-2.126,-2.1886,-2.231,-2.231,-2.231,-2.231,-2.231,-2.231,-2.231,-2.231,-2.231,-2.231,-2.231,-2.231,-2.231,-2.231,-2.231,-2.2298,0.0,0.0,-1.5663,-1.1601,-1.22,0.0,0.0,0.0,-1.6495,-1.8115,-1.9646,-2.0645,-2.1254,-2.1684,-2.204,-2.231,-2.231,-2.231,-2.2332,-2.2685,-2.2737,-2.2799,-2.3702,-2.372,-2.3454,-2.3878,-2.3996,-2.4016,-2.417,-2.419,-2.419,-2.419,-2.419,-2.4209,-2.4303,-2.441,-2.4545,-2.4663,-2.4858,-2.5022,-2.5099,-2.5214,-2.5207,-2.4928,-2.4799,-2.4684,0.0,0.0,0.0,0.0,0.0,0.0,0.0,0.0,0.0,0.0,0.0,0.0,0.0,0.0,0.0,0.0,0.0,0.0,-2.0808,0.0,-2.3225,-2.4091,-2.4909,-2.5303,-2.5303,-2.5303,-2.5303,-2.5303,-2.5303,-2.5303,-2.5303,-2.5303,-2.562,-2.6237,-2.7488,-2.8347,-2.8992,-3.0114,-3.0637,-3.0698,-3.0641,-3.0679,-3.0775,-1.969,0.0,-1.9854,0.0,-2.1493,-2.231,-2.231,-2.231,-2.231,-2.231,-2.231,-2.231,-2.231,-2.231,-2.231,-2.231,-2.231,-2.231,-2.231,-2.231,-2.231,-2.231,-2.231,0.0,-2.231,-2.231,-2.231,-2.231,-2.0179,0.0,-1.47,0.0,0.0,0.0,-1.6442,-1.7743,-1.9545,-2.094,-2.1515,-2.1566,-2.209,-2.231,-2.231,-2.231,-2.2349,-2.249,-2.2867,-2.3,-2.3102,-2.3923,-2.3981,-2.3767,-2.4095,-2.419,-2.419,-2.419,-2.419,-2.419,-2.419,-2.419,-2.419,-2.419,-2.4303,-2.4445,-2.4495,-2.4723,-2.4962,-2.5077,-2.5203,-2.5303,-2.537,-2.4947,-2.4714,-2.5115,0.0,0.0,0.0,0.0,0.0,0.0,-1.9292,-1.8472,0.0,0.0,0.0,0.0,0.0,0.0,0.0,0.0,0.0,0.0,0.0,0.0,0.0,-2.4909,-2.5303,-2.5303,-2.5303,-2.5303,-2.5303,-2.5303,-2.5303,-2.5322,-2.5322,-2.5861,-2.6795,-2.7701,-2.8595,-2.9512,-3.0312,-3.0645,-3.0681,-3.0709,-3.0717,-3.0772,-1.969,-1.969,-2.0243,-2.1991,-2.2282,-2.231,-2.231,-2.231,-2.231,-2.231,-2.231,-2.231,-2.231,-2.231,-2.231,-2.231,-2.231,-2.231,-2.231,-2.231,-2.231,0.0,0.0,-2.231,-2.231,-2.231,-2.231,-2.231,0.0,0.0,-1.776,0.0,-1.7742,-1.778,-1.7797,-1.8893,-2.0844,-2.186,-2.2293,-2.2293,-2.231,-2.231,-2.231,-2.231,-2.2463,-2.2746,-2.3069,-2.3191,-2.3292,-2.3964,-2.4208,-2.419,-2.419,-2.419,-2.419,-2.419,-2.419,-2.419,-2.419,-2.419,-2.419,-2.419,-2.419,-2.4266,-2.4444,-2.4654,-2.4902,-2.5233,-2.5303,-2.5303,-2.5303,-2.5409,-2.5213,-2.4349,0.0,0.0,0.0,0.0,0.0,0.0,-1.8773,-1.8042,-1.89,0.0,0.0,0.0,0.0,0.0,0.0,0.0,0.0,-2.1594,-2.3245,0.0,-2.411,-2.4909,-2.5303,-2.5303,-2.5303,-2.5303,-2.5303,-2.5303,-2.5341,-2.5409,-2.5409,-2.5919,-2.6872,-2.7798,-2.8714,-2.9592,-3.0387,-3.0781,-3.0875,-3.075,-3.0775,-3.0904,-1.969,-1.969,-2.0243,-2.1991,-2.231,-2.231,-2.231,-2.231,-2.231,-2.231,-2.231,-2.231,-2.231,-2.231,-2.231,0.0,-2.231,-2.231,0.0,-2.231,-2.231,-2.231,-2.231,-2.231,-2.231,-2.231,-2.231,-2.231,0.0,0.0,0.0,-2.0866,-2.0887,-2.0857,-2.0857,-2.1231,-2.1843,-2.2147,-2.231,-2.231,-2.231,-2.231,-2.231,-2.231,-2.2463,-2.2729,-2.2922,-2.3061,-2.3292,-2.3964,-2.419,-2.419,-2.419,-2.419,-2.419,-2.419,-2.419,-2.419,-2.419,-2.419,-2.419,-2.419,-2.419,-2.4209,-2.4284,-2.4561,-2.4902,-2.5233,-2.5303,-2.5303,-2.537,-2.5447,-2.5418,-2.52,0.0,0.0,0.0,0.0,0.0,0.0,0.0,-1.9581,0.0,-1.8616,0.0,0.0,0.0,0.0,0.0,0.0,0.0,0.0,-2.2949,0.0,-2.411,-2.4909,-2.5303,-2.5303,-2.5303,-2.5303,-2.5303,-2.5303,-2.5341,-2.5428,-2.6044,-2.6814,-2.7757,-2.8645,-2.9528,-3.0342,-3.0603,-3.0781,-3.0898,-3.0852,-3.0849,-3.0898,-1.969,-2.0208,-2.1023,-2.2106,-2.231,-2.231,-2.231,-2.231,-2.231,-2.231,-2.231,-2.231,-2.231,-2.231,0.0,-2.231,-2.231,0.0,-2.231,-2.231,-2.231,-2.231,-2.231,-2.231,-2.231,0.0,0.0,-2.2647,-2.2632,-2.2764,-2.3,-2.2511,-2.2306,-2.231,-2.231,-2.231,-2.231,-2.231,-2.231,-2.231,-2.231,-2.231,-2.231,-2.231,-2.2398,-2.2586,-2.2917,-2.3258,-2.364,-2.4058,-2.419,-2.419,-2.419,-2.419,-2.419,-2.419,-2.419,-2.419,-2.419,-2.419,-2.419,-2.419,-2.4266,-2.4339,-2.4458,-2.4693,-2.4962,-2.5243,-2.5303,-2.5322,-2.539,-2.5444,-2.5517,-2.5582,0.0,-2.4706,0.0,0.0,0.0,0.0,0.0,0.0,0.0,-2.0546,0.0,0.0,0.0,0.0,0.0,0.0,0.0,-2.178,-2.3602,0.0,-2.4543,-2.5063,-2.5303,-2.5303,-2.5303,-2.5303,-2.5303,-2.5303,-2.5514,-2.5928,-2.6467,-2.74,-2.8588,-2.9137,-2.9887,-3.0704,-3.0698,-3.0781,-3.0898,-3.0898,-3.0898,-3.0898,-1.9889,-2.1197,0.0,0.0,-2.231,0.0,-2.231,-2.231,-2.231,-2.231,-2.231,-2.231,-2.231,-2.231,-2.231,-2.231,0.0,0.0,0.0,-2.231,-2.231,-2.231,-2.231,0.0,-2.231,-2.266,-2.2944,-2.3135,-2.323,-2.3544,-2.4054,-2.296,-2.2377,-2.231,-2.2338,-2.2338,-2.231,-2.231,-2.231,-2.231,-2.231,-2.231,-2.231,-2.2321,-2.2315,-2.2412,-2.2994,-2.3631,-2.419,-2.419,-2.419,-2.419,-2.419,-2.419,-2.419,-2.419,-2.419,-2.419,-2.419,-2.419,-2.419,-2.4209,-2.4375,-2.4604,-2.4937,-2.501,-2.5065,-2.5264,-2.5303,-2.5322,-2.539,-2.5459,-2.5529,-2.5588,-2.4931,-2.4102,-2.3223,0.0,0.0,0.0,0.0,0.0,0.0,-2.237,-2.2887,0.0,0.0,0.0,0.0,0.0,-2.1746,-2.412,-2.4928,-2.5303,-2.5303,-2.5303,-2.5303,-2.5303,-2.5303,-2.5303,-2.5303,-2.5303,-2.5822,-2.6687,-2.676,-2.7743,-2.9298,-2.935,-2.9906,-3.0698,-3.0677,-3.0779,-3.0897,-3.0898,-3.0898,-3.0876,0.0,0.0,-2.231,-2.231,-2.231,-2.231,-2.231,-2.231,-2.231,-2.231,-2.231,-2.231,-2.231,-2.231,-2.231,-2.231,-2.231,-2.231,-2.231,-2.231,-2.231,-2.231,-2.231,-2.231,-2.231,-2.2388,-2.246,-2.2521,-2.3491,-2.3558,-2.2756,-2.3445,-2.3236,-2.231,-2.2624,-2.2598,-2.231,-2.231,-2.231,-2.231,-2.231,-2.231,-2.2321,-2.2527,-2.2658,-2.2788,-2.3093,-2.3635,-2.419,-2.419,-2.419,-2.419,-2.419,-2.419,-2.419,-2.419,-2.419,-2.419,-2.419,-2.419,-2.4247,-2.4393,-2.4575,-2.4771,-2.4962,-2.501,-2.5065,-2.5264,-2.5303,-2.5341,-2.5447,-2.5498,-2.5531,-2.5657,-2.4956,-2.4102,-2.3223,-2.2864,0.0,0.0,-2.213,-2.2485,-2.2485,-2.3283,-2.3274,0.0,0.0,0.0,0.0,0.0,-2.3524,-2.4178,-2.4966,-2.539,-2.539,-2.5428,-2.5447,-2.5447,-2.5447,-2.5428,-2.539,-2.539,-2.586,-2.6745,-2.7391,-2.8259,-2.9282,-2.994,-3.0379,-3.0614,-3.0521,-3.0645,-3.0901,-3.0901,-3.0732,-3.0519,-2.231,-2.231,-2.231,-2.231,-2.231,-2.231,-2.231,-2.231,-2.231,-2.231,-2.231,-2.231,-2.231,-2.231,-2.231,-2.231,-2.231,-2.231,-2.231,-2.231,-2.231,-2.231,-2.231,-2.231,-2.231,-2.231,-2.2588,-2.3164,-2.3855,-2.3535,-2.2338,-2.3602,-2.3834,-2.3164,-2.2982,-2.2773,-2.2544,-2.2377,-2.2496,-2.2801,-2.2801,-2.2988,-2.3311,-2.347,-2.3517,-2.3513,-2.362,-2.3898,-2.4198,-2.4198,-2.4202,-2.4205,-2.4205,-2.4188,-2.419,-2.419,-2.419,-2.4246,-2.4358,-2.4394,-2.4429,-2.4663,-2.4809,-2.493,-2.5088,-2.5141,-2.5163,-2.5274,-2.5303,-2.5341,-2.5486,-2.5498,-2.541,-2.5155,-2.4707,-2.4102,-2.3223,-2.3032,0.0,-2.2812,-2.3149,-2.3543,-2.3908,-2.437,-2.4284,-2.3391,0.0,0.0,-2.4217,-2.4531,-2.4755,-2.4793,-2.5187,-2.5407,-2.5449,-2.5468,-2.5488,-2.5488,-2.5488,-2.5453,-2.5393,-2.5399,-2.6082,-2.7264,-2.7745,-2.8637,-2.979,-3.0263,-3.0487,-3.0506,-3.0417,-3.0506,-3.0667,-3.0671,-3.056,-3.0398,-2.231,-2.231,-2.231,-2.231,-2.231,-2.231,-2.231,-2.231,-2.231,-2.231,-2.2699,-2.297,-2.297,-2.297,-2.297,-2.297,-2.2564,-2.231,-2.231,-2.231,-2.231,-2.231,-2.231,-2.231,-2.231,-2.231,-2.2833,-2.3915,-2.4112,-2.3664,-2.2615,-2.3689,-2.4337,-2.4519,-2.3595,-2.3235,-2.3265,-2.2904,-2.3073,-2.3663,-2.3663,-2.4041,-2.4607,-2.4701,-2.468,-2.4592,-2.4562,-2.4725,-2.492,-2.492,-2.4928,-2.4919,-2.4919,-2.4591,-2.4189,-2.4189,-2.4246,-2.4321,-2.4481,-2.458,-2.4689,-2.4937,-2.5022,-2.5088,-2.5264,-2.5303,-2.5303,-2.5303,-2.5303,-2.5341,-2.5486,-2.5515,-2.5273,-2.453,-2.4394,-2.4101,-2.3215,0.0,-2.343,-2.4111,-2.4245,-2.4543,-2.5226,-2.5303,-2.5322,-2.539,-2.5409,0.0,0.0,-2.5524,-2.5505,-2.5505,-2.5466,-2.5464,-2.5535,-2.5539,-2.5539,-2.5539,-2.5539,-2.5498,-2.5432,-2.5558,-2.6447,-2.792,-2.8025,-2.8967,-3.0398,-3.0398,-3.0398,-3.0398,-3.0398,-3.0398,-3.0398,-3.0398,-3.0398,-3.0398,-2.231,-2.231,-2.231,-2.231,-2.231,-2.231,-2.231,-2.231,-2.231,-2.231,-2.4475,-2.6015,-2.6015,-2.6015,-2.6015,-2.6015,-2.3748,-2.231,-2.231,-2.231,-2.231,-2.231,-2.231,-2.231,-2.231,-2.231,-2.2405,-2.2588,-2.3667,-2.4094,-2.3915,-2.4112,-2.4924,-2.6169,-2.5077,-2.4813,-2.5154,-2.4809,-2.4728,-2.4832,-2.4832,-2.4895,-2.506,-2.5625,-2.6087,-2.6367,-2.6257,-2.7093,-2.8255,-2.8255,-2.8257,-2.826,-2.826,-2.6381,-2.4202,-2.4202,-2.4432,-2.4645,-2.4348,-2.4505,-2.4784,-2.4891,-2.5102,-2.5264,-2.5284,-2.5303,-2.5303,-2.5303,-2.5341,-2.5409,-2.5486,-2.5562,-2.5323,-2.4527,-2.4394,-2.4104,-2.3226,0.0,-2.4038,-2.4111,-2.4716,-2.5149,-2.5284,-2.5303,-2.5322,-2.539,-2.5409,-2.5428,-2.5505,-2.5517,-2.5531,-2.5572,-2.5563,-2.5608,-2.5661,-2.5662,-2.5662,-2.5662,-2.5662,-2.5622,-2.5599,-2.6269,-2.7091,-2.8027,-2.8651,-2.9486,-3.0398,-3.0398,-3.0398,-3.0398,-3.0398,-3.0398,-3.0398,-3.0398,-3.0398,-3.0398,-2.4678,-2.4678,-2.4678,-2.4678,-2.4678,-2.4678,-2.4678,-2.4678,-2.4678,-2.4678,-2.5862,-2.6691,-2.6691,-2.6691,-2.6691,-2.6691,-2.5456,-2.4678,-2.4678,-2.319,-2.231,-2.231,-2.231,-2.231,-2.231,-2.231,-2.2642,-2.3312,-2.3915,-2.419,-2.419,-2.419,-2.4593,-2.5346,-2.5972,-2.6368,-2.6519,-2.5701,-2.5604,-2.6026,-2.6026,-2.6364,-2.689,-2.722,-2.761,-2.7981,-2.7907,-2.8364,-2.9001,-2.9001,-2.9008,-2.8997,-2.8997,-2.7582,-2.5954,-2.6132,-2.5555,-2.4851,-2.479,-2.493,-2.5075,-2.5105,-2.5205,-2.5303,-2.5303,-2.5303,-2.5303,-2.5303,-2.5341,-2.5428,-2.5495,-2.5558,-2.5345,-2.4526,-2.4785,0.0,0.0,-2.4422,-2.488,-2.4803,-2.5111,-2.5303,-2.5341,-2.5341,-2.539,-2.5447,-2.5448,-2.5484,-2.5553,-2.5556,-2.5584,-2.5649,-2.5654,-2.5665,-2.5703,-2.5703,-2.5703,-2.5703,-2.5703,-2.5918,-2.6308,-2.6672,-2.7503,-2.867,-2.9017,-2.9621,-3.0398,-3.0398,-3.0398,-3.0398,-3.0398,-3.0398,-3.0398,-3.0398,-3.0398,-3.0398,-2.6691,-2.6691,-2.6691,-2.6691,-2.6691,-2.6691,-2.6691,-2.6691,-2.6691,-2.6691,-2.6691,-2.6691,-2.6691,-2.6691,-2.6691,-2.6691,-2.6691,-2.6691,-2.6691,-2.4577,-2.3325,-2.3325,-2.3325,-2.3325,-2.3325,-2.3325,-2.3794,-2.4789,-2.5147,-2.5328,-2.5328,-2.5328,-2.5328,-2.5383,-2.6778,-2.7548,-2.7706,-2.6687,-2.6665,-2.7298,-2.7219,-2.7665,-2.842,-2.8496,-2.8725,-2.8994,-2.8994,-2.8994,-2.8994,-2.8994,-2.9007,-2.9001,-2.9001,-2.843,-2.7809,-2.8091,-2.6618,-2.4945,-2.5126,-2.5248,-2.5303,-2.5303,-2.5303,-2.5303,-2.5303,-2.5303,-2.5303,-2.5303,-2.537,-2.5444,-2.5482,-2.5577,-2.5343,-2.4528,0.0,0.0,0.0,-2.4983,-2.5486,-2.5409,-2.5341,-2.5341,-2.5409,-2.5398,-2.5455,-2.5524,-2.5515,-2.5556,-2.5611,-2.5614,-2.565,-2.5708,-2.5693,-2.5703,-2.5703,-2.5703,-2.5703,-2.5703,-2.5703,-2.6133,-2.6934,-2.7129,-2.7953,-2.9281,-2.9436,-2.9852,-3.0417,-3.0398,-3.0398,-3.0398,-3.0398,-3.0398,-3.0398,-3.0398,-3.0398,-3.0398,-2.6691,-2.6691,-2.6691,-2.6691,-2.6691,-2.6691,-2.6691,-2.6691,-2.6691,-2.6691,-2.6691,-2.6691,-2.6691,-2.6691,-2.6691,-2.6691,-2.6691,-2.6691,-2.6691,-2.6488,-2.637,-2.637,-2.637,-2.637,-2.637,-2.637,-2.6436,-2.6517,-2.7949,-2.8645,-2.8645,-2.8645,-2.8645,-2.859,-2.7787,-2.7948,-2.8842,-2.8377,-2.8445,-2.8814,-2.8424,-2.834,-2.8446,-2.8797,-2.8975,-2.8994,-2.8994,-2.8994,-2.8994,-2.8994,-2.9017,-2.8998,-2.8998,-2.8956,-2.8904,-2.8911,-2.7022,-2.4898,-2.4853,-2.5056,-2.5303,-2.5303,-2.5303,-2.5303,-2.5303,-2.5303,-2.5303,-2.5303,-2.5409,-2.5483,-2.5502,-2.5618,-2.5409,-2.4531,0.0,0.0,-2.4431,-2.4987,-2.5486,-2.5409,-2.5409,-2.539,-2.5409,-2.5466,-2.5512,-2.5582,-2.5582,-2.5621,-2.5688,-2.5695,-2.5681,-2.5701,-2.5703,-2.5703,-2.5703,-2.5703,-2.5703,-2.5703,-2.5703,-2.6152,-2.7012,-2.7754,-2.8613,-2.9506,-3.0139,-3.0448,-3.0487,-3.0417,-3.0398,-3.0398,-3.0398,-3.0398,-3.0398,-3.0398,-3.0398,-3.0398,-2.6691,-2.6691,-2.6691,-2.6691,-2.6691,-2.6691,-2.6691,-2.6691,-2.6691,-2.6691,-2.6691,-2.6691,-2.6691,-2.6691,-2.7083,-2.8029,-2.7238,-2.6691,-2.6691,-2.6691,-2.6691,-2.6691,-2.6691,-2.6691,-2.6691,-2.6691,-2.6691,-2.6691,-2.7286,-2.8057,-2.8994,-2.8994,-2.8994,-2.8975,-2.8553,-2.8608,-2.8994,-2.8839,-2.8863,-2.8994,-2.8839,-2.8773,-2.8773,-2.8929,-2.8994,-2.8994,-2.8994,-2.8994,-2.8994,-2.8994,-2.8994,-2.9003,-2.8993,-2.9005,-2.9055,-2.9334,-2.8888,-2.7842,-2.5699,-2.5194,-2.5303,-2.5303,-2.5303,-2.5303,-2.5303,-2.5303,-2.5303,-2.5341,-2.5447,-2.5515,-2.5545,-2.5632,-2.5586,-2.5254,0.0,-2.5566,-2.5156,-2.5371,-2.5532,-2.5466,-2.5466,-2.5486,-2.5524,-2.555,-2.5596,-2.566,-2.5668,-2.5668,-2.5707,-2.5696,-2.5703,-2.5703,-2.5703,-2.5703,-2.5703,-2.5703,-2.5703,-2.5703,-2.5703,-2.6445,-2.7812,-2.8125,-2.8984,-3.0254,-3.0512,-3.0579,-3.0506,-3.0525,-3.0487,-3.0398,-3.0398,-3.0398,-3.0398,-3.0398,-3.0398,-3.0398,-2.6691,-2.6691,-2.6691,-2.6691,-2.6691,-2.6691,-2.6691,-2.6691,-2.6691,-2.6691,-2.6691,-2.6691,-2.6691,-2.6691,-2.733,-2.8881,-2.8029,-2.7224,-2.6725,-2.6691,-2.6691,-2.6691,-2.6691,-2.6691,-2.6691,-2.6691,-2.6691,-2.6691,-2.6691,-2.7482,-2.8994,-2.8994,-2.8994,-2.8994,-2.8994,-2.8994,-2.8994,-2.8994,-2.8994,-2.8994,-2.8994,-2.8994,-2.8994,-2.8994,-2.8994,-2.8994,-2.8994,-2.8994,-2.8994,-2.8994,-2.9062,-2.9156,-2.92,-2.9325,-2.9493,-2.9821,-3.0139,-2.9886,-2.7544,-2.6514,-2.5986,-2.5437,-2.5303,-2.5303,-2.5303,-2.5322,-2.5341,-2.539,-2.5466,-2.5543,-2.5582,-2.5643,-2.5703,-2.5703,-2.5703,-2.5684,-2.5644,-2.5605,-2.5574,-2.5544,-2.552,-2.5543,-2.5601,-2.5619,-2.5644,-2.5703,-2.5703,-2.5703,-2.5703,-2.5703,-2.5703,-2.5703,-2.5703,-2.5703,-2.5703,-2.5703,-2.5703,-2.5703,-2.5703,-2.6602,-2.8301,-2.8301,-2.9199,-3.0762,-3.0723,-3.0651,-3.0563,-3.0584,-3.0525,-3.0398,-3.0398,-3.0398,-3.0398,-3.0398,-3.0398,-3.0398,-2.6691,-2.6691,-2.6691,-2.6691,-2.6691,-2.6691,-2.6691,-2.6691,-2.6691,-2.6691,-2.6725,-2.6725,-2.6725,-2.6725,-2.733,-2.8881,-2.8994,-2.836,-2.6808,-2.6691,-2.6691,-2.6691,-2.6691,-2.6691,-2.6691,-2.6691,-2.6691,-2.6691,-2.6691,-2.7482,-2.8994,-2.8994,-2.8994,-2.8994,-2.8994,-2.8994,-2.8994,-2.8994,-2.8994,-2.8994,-2.8994,-2.8994,-2.8994,-2.8994,-2.8994,-2.8994,-2.8994,-2.8994,-2.8994,-2.9017,-2.9237,-2.9524,-2.9656,-3.0017,-3.0409,-3.0409,-3.0407,-3.0398,-3.0398,-2.9182,-2.7505,-2.5755,-2.5303,-2.5303,-2.5303,-2.5341,-2.5409,-2.5409,-2.5505,-2.5601,-2.5611,-2.5663,-2.5703,-2.5703,-2.5703,-2.5703,-2.5703,-2.5644,-2.5605,-2.5605,-2.5607,-2.5611,-2.5611,-2.5664,-2.5703,-2.5703,-2.5703,-2.5703,-2.5703,-2.5703,-2.5703,-2.5703,-2.5703,-2.5703,-2.5703,-2.5703,-2.5703,-2.5703,-2.5703,-2.6602,-2.8301,-2.8301,-2.9258,-3.0898,-3.0762,-3.0703,-3.0682,-3.0632,-3.0525,-3.0398,-3.0398,-3.0398,-3.0398,-3.0398,-3.0398,-3.0398,-2.6691,-2.6691,-2.6691,-2.6691,-2.6691,-2.6691,-2.6691,-2.6691,-2.6691,-2.6691,-2.7643,-2.8316,-2.8316,-2.8316,-2.8489,-2.8952,-2.8994,-2.836,-2.6808,-2.6691,-2.6691,-2.6691,-2.6691,-2.6691,-2.6691,-2.6691,-2.6691,-2.6691,-2.6691,-2.7482,-2.8994,-2.8994,-2.8994,-2.8994,-2.8994,-2.8994,-2.8994,-2.8994,-2.8994,-2.8994,-2.8994,-2.8994,-2.8994,-2.8994,-2.8994,-2.8994,-2.8994,-2.8994,-2.904,-2.9222,-2.9349,-2.9454,-2.9636,-3.0018,-3.0394,-3.0394,-3.0393,-3.0402,-3.0406,-3.0021,-2.9105,-2.6794,-2.6217,-2.6063,-2.5437,-2.5341,-2.5418,-2.5453,-2.5545,-2.5614,-2.5664,-2.5696,-2.5703,-2.5703,-2.5703,-2.5703,-2.5703,-2.5684,-2.5664,-2.5664,-2.5672,-2.5668,-2.5668,-2.5698,-2.5703,-2.5703,-2.5703,-2.5703,-2.5703,-2.5703,-2.5703,-2.5703,-2.5703,-2.5703,-2.5703,-2.5703,-2.5703,-2.5703,-2.5703,-2.6602,-2.8301,-2.8301,-2.9258,-3.0898,-3.0859,-3.0781,-3.0703,-3.078,-3.0646,-3.0398,-3.0398,-3.0398,-3.0398,-3.0398,-3.0398,-3.0398,-2.6691,-2.6691,-2.6691,-2.6691,-2.6691,-2.6691,-2.6691,-2.6691,-2.6691,-2.6691,-2.8029,-2.8994,-2.8994,-2.8994,-2.8994,-2.8994,-2.8994,-2.836,-2.6808,-2.6691,-2.6691,-2.6691,-2.7269,-2.7631,-2.7631,-2.7631,-2.7631,-2.7631,-2.7631,-2.8084,-2.8994,-2.8994,-2.8994,-2.8994,-2.8994,-2.8994,-2.8994,-2.8994,-2.8994,-2.8994,-2.8994,-2.8994,-2.8994,-2.8994,-2.8994,-2.8998,-2.9112,-2.9156,-2.92,-2.9435,-2.957,-2.9677,-2.9918,-3.0171,-3.0398,-3.0398,-3.0398,-3.041,-3.0414,-3.0394,-3.0029,-2.8489,-2.7593,-2.6986,-2.6467,-2.615,-2.5966,-2.604,-2.5835,-2.5649,-2.5681,-2.5703,-2.5703,-2.5703,-2.5703,-2.5703,-2.5703,-2.5703,-2.5703,-2.5703,-2.5703,-2.5703,-2.5703,-2.5703,-2.5703,-2.5703,-2.5703,-2.5703,-2.5703,-2.5703,-2.5703,-2.5703,-2.5703,-2.5703,-2.5703,-2.5703,-2.5703,-2.5703,-2.5703,-2.6602,-2.8301,-2.8301,-2.9258,-3.0898,-3.0898,-3.0859,-3.0781,-3.0879,-3.0774,-3.0605,-3.0605,-3.0519,-3.0398,-3.0398,-3.0398,-3.0398,-2.6691,-2.6691,-2.6691,-2.6691,-2.6691,-2.6691,-2.6691,-2.6691,-2.6691,-2.6691,-2.8029,-2.8994,-2.8994,-2.8994,-2.8994,-2.8994,-2.8994,-2.836,-2.6808,-2.6841,-2.6906,-2.6906,-2.8264,-2.8994,-2.8994,-2.8994,-2.8994,-2.8994,-2.8994,-2.8994,-2.8994,-2.8994,-2.8994,-2.8994,-2.8994,-2.8994,-2.9012,-2.9305,-2.925,-2.8994,-2.8994,-2.8994,-2.9012,-2.914,-2.9195,-2.9242,-2.9439,-2.9524,-2.9527,-2.9681,-2.9861,-3.0075,-3.0323,-3.0398,-3.0398,-3.0398,-3.0398,-3.0398,-3.0398,-3.0398,-3.039,-3.0406,-2.9259,-2.8132,-2.8027,-2.7441,-2.6921,-2.6892,-2.6325,-2.5781,-2.5703,-2.5703,-2.5703,-2.5703,-2.5703,-2.5703,-2.5703,-2.5703,-2.5703,-2.5703,-2.5703,-2.5703,-2.5703,-2.5703,-2.5703,-2.5703,-2.5703,-2.5703,-2.5703,-2.5703,-2.5703,-2.5703,-2.5703,-2.5703,-2.5703,-2.5703,-2.5703,-2.5703,-2.5703,-2.6602,-2.8301,-2.8242,-2.9199,-3.0898,-3.0898,-3.0898,-3.0898,-3.0898,-3.0898,-3.0898,-3.0898,-3.0701,-3.0448,-3.0417,-3.0398,-3.0398,-2.6691,-2.6691,-2.6691,-2.6691,-2.6691,-2.6691,-2.6691,-2.6691,-2.6691,-2.6691,-2.8029,-2.8994,-2.8994,-2.8994,-2.8994,-2.8994,-2.8994,-2.836,-2.6808,-2.7833,-2.8489,-2.8489,-2.8815,-2.8994,-2.8994,-2.8994,-2.8994,-2.8994,-2.8994,-2.8994,-2.8994,-2.8994,-2.8994,-2.8994,-2.8994,-2.8994,-2.9159,-3.1696,-3.1311,-2.8994,-2.8994,-2.8994,-2.9122,-3.0393,-3.087,-3.0827,-3.0479,-3.0341,-3.0294,-3.004,-3.0109,-3.0323,-3.0367,-3.0398,-3.0398,-3.0398,-3.0398,-3.0398,-3.0398,-3.0398,-3.041,-3.039,-3.0198,-2.966,-2.8315,-2.7915,-2.7647,-2.7026,-2.6792,-2.6504,-2.582,-2.5703,-2.5703,-2.5703,-2.5703,-2.5703,-2.5703,-2.5703,-2.5703,-2.5703,-2.5703,-2.5703,-2.5703,-2.5703,-2.5703,-2.5703,-2.5703,-2.5703,-2.5703,-2.5703,-2.5703,-2.5703,-2.5703,-2.5703,-2.5703,-2.5703,-2.5703,-2.5703,-2.5703,-2.6602,-2.8281,-2.7812,-2.8809,-3.0898,-3.0898,-3.0898,-3.0898,-3.0898,-3.0898,-3.0898,-3.0898,-3.0857,-3.0775,-3.0602,-3.0487,-3.0398,-2.6691,-2.6691,-2.6691,-2.6691,-2.6691,-2.6691,-2.6691,-2.733,-2.7805,-2.7805,-2.8489,-2.8994,-2.8994,-2.8994,-2.8994,-2.8994,-2.8994,-2.8676,-2.7862,-2.854,-2.8994,-2.8994,-2.8994,-2.8994,-2.8994,-2.8994,-2.8994,-2.8994,-2.8994,-2.8994,-2.8994,-2.8994,-2.8994,-2.9067,-3.0613,-3.0448,-2.9195,-3.243,-3.2834,-3.1292,-3.1292,-3.1292,-3.1329,-3.1659,-3.177,-3.1753,-3.1448,-3.1356,-3.1189,-3.0452,-3.0279,-3.0398,-3.0398,-3.0398,-3.0398,-3.0398,-3.0398,-3.0398,-3.0398,-3.0398,-3.0398,-3.0398,-3.0448,-3.0275,-2.944,-2.9004,-2.866,-2.8265,-2.7889,-2.7344,-2.6484,-2.6328,-2.6172,-2.5762,-2.5703,-2.5703,-2.5703,-2.5703,-2.5703,-2.5703,-2.5703,-2.5703,-2.5703,-2.5703,-2.5703,-2.5703,-2.5703,-2.5703,-2.5703,-2.5703,-2.5703,-2.5703,-2.5703,-2.5703,-2.5703,-2.5703,-2.5673,-2.5654,-2.5654,-2.6559,-2.8226,-2.7626,-2.8652,-3.0898,-3.0898,-3.0898,-3.0898,-3.0898,-3.0898,-3.0898,-3.0898,-3.0897,-3.0886,-3.079,-3.0602,-3.0398,-2.6691,-2.6691,-2.6691,-2.6691,-2.6691,-2.6691,-2.6691,-2.7805,-2.8608,-2.8608,-2.8608,-2.8608,-2.8608,-2.8839,-2.8905,-2.8633,-2.9351,-2.9824,-2.9824,-2.9305,-2.9104,-2.9402,-2.9329,-2.9329,-2.942,-2.942,-2.9292,-2.8994,-2.8994,-2.9269,-2.9824,-2.9824,-2.9824,-2.9953,-3.2614,-3.232,-3.0008,-3.2669,-3.3807,-3.3807,-3.3807,-3.3807,-3.3697,-3.2797,-3.2467,-3.2452,-3.2323,-3.226,-3.2102,-3.116,-3.0629,-3.0398,-3.0398,-3.0398,-3.0398,-3.0398,-3.0398,-3.0398,-3.0398,-3.0398,-3.0398,-3.0398,-3.0398,-3.0448,-3.0564,-3.0125,-2.9677,-2.9601,-2.9023,-2.8262,-2.7383,-2.7226,-2.6934,-2.6055,-2.5918,-2.5879,-2.5723,-2.5703,-2.5703,-2.5703,-2.5703,-2.5703,-2.5703,-2.5703,-2.5703,-2.5703,-2.5703,-2.5703,-2.5703,-2.5703,-2.5703,-2.5703,-2.5703,-2.5703,-2.5703,-2.5698,-2.5663,-2.5601,-2.5736,-2.6638,-2.8172,-2.7761,-2.8783,-3.0898,-3.0898,-3.0898,-3.0898,-3.0898,-3.0898,-3.0898,-3.0898,-3.0898,-3.0897,-3.0889,-3.0711,-3.0487,-2.6691,-2.6691,-2.6691,-2.6691,-2.6691,-2.6691,-2.6691,-2.6873,-2.7019,-2.7019,-2.7019,-2.7019,-2.7019,-2.821,-2.8464,-2.7129,-3.0751,-3.3146,-3.3146,-3.0558,-2.9622,-3.0999,-3.0632,-3.0595,-3.1072,-3.1072,-3.0393,-2.8994,-2.8994,-3.043,-3.3146,-3.3146,-3.3146,-3.3164,-3.3605,-3.355,-3.3183,-3.3623,-3.3807,-3.3807,-3.3807,-3.3807,-3.377,-3.3642,-3.3587,-3.3493,-3.2877,-3.2708,-3.2776,-3.2602,-3.1602,-3.0398,-3.0398,-3.0398,-3.0398,-3.0398,-3.0398,-3.0398,-3.0398,-3.0398,-3.0398,-3.0398,-3.0398,-3.0448,-3.0564,-3.051,-3.0292,-2.9723,-2.9512,-2.916,-2.8281,-2.8125,-2.7832,-2.6973,-2.6816,-2.6562,-2.5801,-2.5703,-2.5703,-2.5703,-2.5703,-2.5703,-2.5703,-2.5703,-2.5703,-2.5703,-2.5703,-2.5703,-2.5703,-2.5703,-2.5703,-2.5703,-2.5703,-2.5703,-2.5703,-2.5632,-2.5609,-2.5601,-2.6245,-2.7091,-2.8121,-2.8452,-2.9441,-3.0898,-3.0898,-3.0898,-3.0898,-3.0898,-3.0898,-3.0898,-3.0898,-3.0898,-3.0898,-3.0894,-3.0878,-3.0794,-2.6691,-2.6691,-2.6691,-2.6691,-2.6691,-2.6691,-2.6691,-2.6691,-2.6691,-2.6691,-2.6691,-2.6691,-2.6691,-2.881,-2.9934,-2.9268,-3.2018,-3.3807,-3.3807,-3.2467,-3.1604,-3.1403,-3.1458,-3.1586,-3.1843,-3.243,-3.2394,-3.1678,-3.1678,-3.2412,-3.3807,-3.3807,-3.3807,-3.3807,-3.3807,-3.3807,-3.3807,-3.3807,-3.3807,-3.3807,-3.3807,-3.3807,-3.3807,-3.3807,-3.3902,-3.4012,-3.3877,-3.4051,-3.4353,-3.4353,-3.3872,-3.2917,-3.0994,-3.0737,-3.1025,-3.0533,-3.0398,-3.0398,-3.0398,-3.0398,-3.0417,-3.0487,-3.0467,-3.0448,-3.0621,-3.0634,-3.0546,-3.0368,-3.0332,-3.0019,-2.8984,-2.8809,-2.8672,-2.8281,-2.7656,-2.7207,-2.7168,-2.6738,-2.625,-2.5762,-2.5703,-2.5703,-2.5703,-2.5703,-2.5703,-2.5703,-2.5703,-2.5703,-2.5703,-2.5703,-2.5703,-2.5703,-2.5703,-2.5672,-2.5643,-2.5614,-2.5563,-2.5505,-2.6811,-2.7638,-2.8052,-2.8522,-2.9439,-3.0614,-3.0614,-3.0724,-3.0898,-3.0898,-3.0894,-3.0886,-3.0691,-3.0614,-3.0614,-3.0614,-3.0615,-3.0602]}]]